GFSMA_850_spd_000.txt.gz
Wind_Speed
9 11 12 13 14 15 16 18 19 19 20 22 24 25 26 26 26 27 30 36 37 35 33 33 33 34 34 36 37 38 39 39 38 39 40 38 38 39 38 38 37 37 36
10 12 14 15 17 17 19 20 21 24 25 24 26 25 27 27 28 30 30 33 38 39 38 37 38 38 39 38 38 39 40 41 41 42 43 44 44 42 41 42 41 41 41
11 13 15 16 15 17 21 21 21 21 21 21 22 23 23 25 27 27 27 28 30 34 32 31 32 37 40 42 42 42 43 43 44 45 45 48 48 48 47 45 43 44 45
11 12 14 14 17 19 18 18 18 20 20 20 21 23 23 25 26 27 27 28 27 31 33 34 31 30 32 35 39 42 44 45 46 46 47 48 50 52 52 51 50 48 47
9 10 11 13 15 15 15 17 18 19 23 21 22 23 24 25 25 25 27 27 26 28 29 29 32 32 31 32 34 38 42 45 47 48 48 48 50 53 54 55 55 54 53
8 10 11 13 15 17 18 19 19 19 19 20 23 25 24 25 25 23 24 24 24 25 27 30 33 33 32 29 31 33 36 38 42 49 52 52 52 52 55 58 59 58 57
10 12 14 16 17 20 21 22 20 21 20 20 24 27 26 19 20 25 19 22 31 31 29 30 31 31 31 34 35 35 34 34 36 40 43 47 53 56 58 58 60 61 61
12 14 16 19 22 23 23 25 24 24 20 21 23 28 22 28 19 26 35 24 27 31 29 28 27 29 31 31 34 35 35 35 35 36 39 43 47 49 50 54 60 63 63
16 19 21 23 24 24 23 23 22 21 20 20 19 19 24 24 35 30 30 25 22 28 32 31 30 33 36 36 38 42 45 40 38 41 41 43 43 47 50 51 51 54 60
20 22 23 23 23 23 23 23 23 21 19 19 19 17 20 25 30 37 20 30 26 27 32 34 35 37 39 38 35 36 42 44 41 41 36 40 44 41 41 46 51 53 55
22 25 26 25 24 23 22 22 22 22 20 19 19 21 22 22 25 30 41 31 35 31 34 37 37 35 37 41 37 35 35 34 36 38 38 38 38 45 41 38 42 48 50
25 25 23 22 20 19 20 22 24 24 24 24 20 19 20 23 26 29 35 39 39 38 35 37 37 34 34 34 31 30 30 31 30 32 30 31 32 35 36 44 56 46 33
22 21 20 18 18 19 21 23 25 25 23 25 22 21 21 22 25 27 31 37 38 41 38 34 33 32 31 33 34 36 38 36 38 34 31 31 35 38 39 41 39 42 40
19 19 18 17 18 20 22 24 25 24 23 22 26 24 22 24 24 25 28 32 38 38 41 42 36 32 34 36 38 41 38 41 39 39 39 37 35 36 37 36 34 38 45
18 17 17 17 19 21 24 26 27 26 27 22 24 22 24 26 25 26 27 31 33 36 38 43 41 40 39 41 39 36 39 48 42 46 41 43 43 43 43 41 42 40 39
17 16 17 18 20 23 26 28 27 28 24 24 23 25 25 26 27 27 28 31 31 32 36 40 43 40 42 39 39 41 43 42 41 40 43 32 34 39 42 43 43 44 39
16 17 18 20 23 26 28 30 30 28 25 24 24 25 26 27 28 29 30 30 30 31 33 44 37 45 44 43 43 42 39 41 42 45 40 37 41 37 34 38 43 43 39
16 17 19 23 26 29 31 33 29 25 25 26 27 27 28 28 29 29 29 30 32 33 34 38 42 44 43 43 42 43 43 41 43 42 41 38 37 35 33 34 41 42 40
17 20 23 26 30 32 33 32 26 27 26 27 27 28 29 29 30 29 30 33 33 34 35 39 43 41 42 42 43 43 43 43 40 38 36 35 32 34 36 33 34 41 41
20 23 26 29 31 33 33 28 33 30 28 27 28 27 28 28 28 30 32 31 34 36 39 38 39 41 41 46 41 41 42 41 43 39 41 31 36 31 33 33 32 35 34
23 26 30 31 33 33 29 33 34 29 28 29 27 27 27 27 28 28 31 34 36 40 40 40 40 39 44 42 41 41 42 44 47 46 38 30 33 32 38 40 41 40 39
27 30 31 32 33 32 32 33 31 28 28 27 28 29 28 28 27 31 31 33 34 38 43 39 37 40 44 42 43 43 42 43 42 37 32 41 45 42 41 41 37 32 35
31 33 33 32 32 31 32 33 31 27 25 25 27 29 30 28 31 32 37 35 39 36 31 38 41 43 45 43 44 47 43 42 45 45 41 46 38 37 40 38 37 36 32
33 32 31 31 30 27 31 27 27 24 25 25 26 28 29 31 31 35 39 45 31 33 37 41 40 40 42 44 43 44 45 48 45 40 29 37 37 40 39 36 27 25 32
33 31 30 30 28 27 25 25 25 25 26 27 27 27 30 33 33 37 39 35 38 43 44 34 39 38 40 37 32 36 40 37 38 36 30 35 34 34 31 41 31 23 26
30 29 28 26 24 25 23 22 24 25 28 29 30 31 31 33 35 36 43 41 38 43 43 45 41 36 30 31 29 30 37 38 36 39 27 30 36 31 23 17 17 22 23

GFSMA_850_spd_003.txt.gz
Wind_Speed
5 6 8 8 9 10 12 13 14 15 17 18 19 20 21 23 24 26 30 32 33 37 38 37 34 36 38 40 39 39 39 39 40 40 42 42 42 41 40 40 40 39 38
7 8 8 8 10 10 12 15 16 18 17 18 20 20 21 23 25 27 30 33 34 35 35 36 33 31 34 38 40 42 42 42 42 43 43 44 44 45 45 44 43 42 43
7 7 7 9 10 13 13 14 14 14 15 16 18 19 20 21 23 25 28 31 33 33 34 35 36 34 33 33 35 39 41 43 44 45 44 45 46 47 49 49 48 47 45
6 6 7 9 11 10 11 12 15 17 18 19 20 21 22 24 24 26 27 26 31 31 32 33 34 35 33 32 34 37 40 41 43 45 46 47 47 49 51 53 53 52 50
6 6 7 10 10 11 12 15 16 16 19 20 21 22 26 25 28 29 28 26 27 27 31 30 31 36 38 36 34 34 35 37 41 45 49 50 51 51 52 53 55 56 55
9 10 11 13 15 15 16 19 18 18 20 20 22 25 23 28 22 23 24 24 25 27 28 34 36 33 40 32 38 36 35 37 37 38 43 47 52 56 57 56 55 57 59
11 13 14 16 18 18 17 19 18 21 21 19 24 25 25 18 20 18 21 28 32 29 31 32 31 29 32 35 35 36 37 36 37 38 39 41 45 50 53 58 61 59 60
13 16 18 19 20 20 18 20 21 22 18 19 22 23 20 24 19 28 28 25 26 24 23 30 34 34 35 36 38 35 35 38 40 45 43 44 43 42 44 49 53 55 61
16 19 21 20 19 18 18 19 19 18 18 18 17 18 19 21 32 25 28 20 23 29 27 29 34 38 40 41 45 43 41 42 38 38 39 42 43 45 45 47 47 51 56
20 22 22 20 19 17 18 18 18 19 17 18 19 16 19 25 30 33 18 31 27 30 36 33 36 39 39 37 36 39 42 45 43 40 32 32 33 35 40 43 47 52 53
23 24 24 21 19 18 18 19 20 20 18 17 18 21 22 23 25 31 37 33 32 31 31 36 30 39 38 34 33 32 36 33 36 35 30 31 33 34 32 32 51 42 47
21 24 22 20 18 18 18 19 20 19 19 18 21 20 22 25 28 29 34 37 36 36 30 37 35 32 33 33 34 33 34 33 34 32 33 35 36 38 38 37 43 40 44
21 22 21 19 18 18 19 20 21 21 19 19 22 24 25 25 27 29 33 38 38 39 39 38 37 31 34 33 37 40 46 46 47 41 40 42 41 42 44 42 43 44 44
19 20 18 17 17 18 19 20 22 18 18 24 23 26 27 26 28 29 32 33 41 41 42 41 33 41 35 35 34 37 40 39 43 42 42 43 47 41 43 45 42 38 37
18 18 17 17 17 19 21 22 23 25 24 26 26 27 26 30 30 31 32 32 34 38 44 44 41 40 31 42 31 38 44 45 43 44 48 42 42 45 45 38 37 38 37
18 17 16 17 19 21 23 24 26 26 25 24 26 28 29 30 31 32 33 32 32 35 42 42 43 43 43 38 40 38 37 43 43 39 43 43 44 46 43 45 46 42 45
17 17 18 20 22 24 23 25 26 25 23 27 28 29 31 31 32 32 32 34 34 32 36 46 42 43 44 43 42 42 38 40 41 43 43 42 43 44 45 43 43 39 40
17 18 20 22 23 24 26 27 26 24 26 29 29 30 31 31 32 31 32 32 32 34 37 40 42 44 43 43 42 40 41 42 40 39 40 42 43 42 41 41 39 36 39
18 20 22 24 25 28 29 28 26 25 30 28 29 30 31 31 31 31 30 32 35 35 35 38 44 43 42 41 44 40 40 42 40 41 40 40 40 40 42 38 37 34 32
21 23 25 27 28 28 28 27 25 33 31 30 29 30 29 29 29 30 33 32 31 36 39 39 40 42 41 42 37 40 48 45 48 44 44 42 38 40 34 31 36 38 35
23 26 28 28 27 29 25 28 34 33 33 31 30 27 27 28 29 28 29 32 35 39 39 40 43 42 38 40 41 47 46 46 47 42 40 46 40 41 43 38 37 36 34
25 27 28 27 29 28 26 27 27 32 30 29 28 29 28 28 27 28 30 33 34 38 42 47 36 35 40 43 49 42 46 44 45 42 37 50 44 40 40 36 35 31 35
26 28 28 28 29 30 26 27 27 28 28 27 28 29 30 29 29 34 35 35 36 40 36 39 42 40 46 43 49 47 42 45 46 50 42 49 37 41 33 41 36 35 36
27 31 32 31 30 29 27 27 26 26 26 27 27 28 30 31 34 34 37 41 43 42 41 41 40 43 44 47 43 45 46 48 46 41 35 39 41 35 44 36 42 36 34
32 33 33 31 29 29 26 24 25 26 28 28 28 28 31 33 35 34 37 44 46 47 41 36 39 40 39 38 37 38 41 39 40 37 38 37 37 38 44 42 37 29 27
32 32 31 30 28 28 23 23 24 27 29 31 33 35 32 33 33 35 40 45 44 42 41 44 42 39 37 35 31 32 37 39 38 41 36 37 40 36 36 33 15 27 38

GFSMA_850_spd_006.txt.gz
Wind_Speed
3 5 5 7 9 10 11 14 17 18 19 18 19 20 22 23 23 25 27 28 30 32 32 32 33 34 33 32 34 36 39 39 38 39 39 41 43 42 43 43 43 41 41
4 5 6 7 10 12 13 13 14 15 15 16 18 19 20 22 23 25 27 27 29 29 31 31 31 31 31 33 31 32 35 40 43 40 41 41 42 44 45 46 45 46 45
3 3 4 7 9 7 8 10 11 13 15 17 19 19 21 24 26 27 30 28 27 27 28 31 30 29 28 29 31 32 33 33 38 43 44 42 42 44 45 48 49 49 48
5 3 2 3 4 6 9 13 16 18 20 22 20 21 22 26 24 26 27 26 28 25 21 20 24 30 32 35 35 33 35 32 33 37 42 45 48 48 46 47 49 52 53
4 3 4 6 9 11 14 17 19 21 24 24 23 26 23 23 20 20 22 18 18 26 28 28 27 29 29 30 31 32 32 34 36 37 36 39 44 48 52 53 53 52 54
7 8 9 11 13 15 17 20 21 21 20 20 23 23 25 13 18 22 24 25 26 29 28 27 27 25 25 29 30 30 28 28 32 36 37 39 37 39 42 46 53 57 57
9 11 13 15 17 17 18 18 19 21 20 21 24 30 25 20 14 19 26 25 25 20 19 23 30 35 38 40 42 43 42 41 45 47 40 40 41 44 41 41 42 42 56
12 15 17 19 18 17 17 18 19 21 21 21 24 24 20 30 20 33 19 25 20 24 29 35 30 31 37 40 43 44 42 43 40 37 36 35 35 37 37 36 39 44 52
15 18 20 21 19 17 17 17 19 20 23 22 21 17 15 12 40 21 36 15 32 32 37 38 33 31 37 33 33 42 36 41 34 33 32 32 32 32 32 34 35 35 39
17 21 22 22 20 19 18 19 19 20 20 21 21 21 21 22 29 27 12 40 31 33 35 31 35 29 31 40 37 34 25 31 34 31 32 32 33 33 32 33 35 35 33
18 21 23 24 23 21 19 19 19 20 20 20 21 26 29 27 31 31 41 33 35 33 33 33 31 41 40 33 37 41 40 43 39 38 38 37 36 37 36 36 38 39 39
17 20 23 23 22 20 19 19 20 21 22 22 24 27 28 30 32 32 35 41 40 38 33 36 33 40 29 31 34 43 43 46 47 39 36 38 38 39 38 40 44 43 43
18 22 23 22 21 19 19 20 22 23 24 25 26 31 28 30 33 31 33 41 41 43 41 38 38 31 35 40 33 41 41 37 40 46 45 44 43 44 44 43 44 44 44
19 22 22 21 19 19 21 23 25 26 27 28 30 31 30 33 31 31 36 35 44 45 45 42 35 39 42 31 34 44 45 40 42 42 41 44 45 42 42 45 44 44 44
19 20 20 19 19 21 23 25 28 30 31 31 31 31 33 34 35 33 33 35 35 43 47 47 46 42 36 40 40 35 42 41 41 43 40 40 41 41 42 43 44 45 45
19 18 18 19 21 23 26 28 31 32 32 32 30 34 36 35 35 36 35 33 34 35 44 49 43 44 47 41 43 40 43 40 40 38 40 39 40 41 41 42 42 43 42
19 18 19 21 23 26 29 31 33 33 33 31 33 38 36 35 36 34 36 35 35 32 34 49 48 47 45 47 51 43 40 38 40 36 36 40 41 42 42 43 44 43 42
18 18 21 23 26 29 32 33 34 34 31 32 39 38 37 36 36 36 34 35 33 36 39 40 45 45 46 47 44 49 42 36 35 37 43 43 46 43 42 43 43 44 42
18 20 23 26 29 32 33 34 35 31 32 37 41 40 37 35 35 34 34 36 41 38 35 36 47 45 43 44 50 46 38 39 41 44 43 38 39 40 38 39 39 41 39
20 22 25 28 31 33 33 35 29 34 40 41 42 37 34 29 31 34 37 37 33 33 38 39 43 41 44 46 37 39 46 47 49 42 47 38 37 41 37 36 38 38 36
21 24 28 31 33 33 34 28 31 34 37 42 41 30 28 29 31 31 32 34 35 40 42 41 39 41 40 41 39 43 44 48 54 45 34 53 40 43 43 40 33 35 31
24 28 31 33 33 33 32 29 28 32 36 39 34 32 32 32 31 31 32 36 37 38 40 41 42 43 47 47 42 41 47 48 48 37 41 50 42 44 40 36 37 34 31
27 30 32 33 33 34 33 27 28 31 34 35 32 33 35 32 34 39 39 38 39 36 37 40 44 45 43 45 47 48 43 41 45 48 45 45 40 38 42 46 39 35 34
29 31 32 33 34 35 32 28 28 30 34 33 33 32 33 38 38 36 41 40 46 45 41 42 40 40 43 44 43 41 43 48 47 39 34 41 39 45 42 41 39 39 32
30 32 33 34 35 34 32 28 27 30 34 37 35 32 33 38 36 37 40 44 44 42 48 40 36 36 40 38 34 37 40 40 44 40 36 39 42 42 43 42 37 28 24
31 32 34 35 33 34 31 26 26 31 35 35 36 34 38 35 38 38 40 43 41 45 44 39 44 47 38 38 33 33 37 39 42 43 36 38 42 39 37 32 12 31 36

GFSMA_850_spd_009.txt.gz
Wind_Speed
3 4 4 4 7 10 12 12 12 12 11 13 12 13 14 15 17 19 20 20 21 22 23 24 26 25 26 27 27 26 26 28 31 35 39 39 36 38 38 40 43 43 43
5 3 3 7 8 9 11 11 12 11 12 14 15 15 16 16 17 20 22 19 21 18 20 22 23 24 25 24 25 27 27 30 29 30 32 37 41 40 38 40 42 45 47
5 5 6 7 7 8 7 8 11 13 15 16 17 17 17 18 19 19 19 16 14 14 15 14 13 14 16 19 21 26 30 30 31 33 32 33 34 39 44 44 42 42 47
9 7 5 4 4 6 9 12 16 18 19 20 20 19 19 15 13 10 12 13 14 18 20 21 19 16 17 17 18 17 18 22 22 23 26 29 32 34 35 40 47 49 48
5 2 1 4 7 11 13 16 17 18 19 19 19 19 17 11 10 15 17 18 19 21 22 21 21 20 21 24 26 27 29 30 29 30 32 35 37 36 37 35 35 38 48
4 3 6 9 12 14 16 17 17 17 18 19 20 20 18 10 18 10 21 17 19 19 18 19 21 22 24 31 34 34 35 36 33 31 31 33 32 32 32 33 35 40 42
4 7 10 13 16 17 17 18 18 18 19 23 26 28 22 22 6 25 16 26 17 17 20 23 28 31 31 30 32 36 39 42 39 31 26 26 27 30 31 32 33 34 34
7 11 15 17 19 18 17 17 18 20 20 22 24 23 15 21 12 28 21 20 16 24 29 29 30 29 33 30 28 28 33 33 34 29 28 29 29 30 30 31 31 30 30
9 13 16 18 20 19 18 17 18 20 22 21 20 16 10 10 41 12 33 10 32 26 36 33 33 32 26 31 36 37 26 30 34 32 33 34 34 33 32 34 34 34 32
9 13 16 19 20 19 18 17 17 18 20 23 23 22 19 23 28 23 17 43 25 38 37 37 37 29 32 34 38 26 34 35 34 35 35 35 35 35 34 34 35 34 33
9 14 18 20 20 19 18 18 18 18 20 21 22 26 27 30 31 31 35 29 37 37 41 35 36 39 34 34 28 35 38 35 37 39 37 36 37 38 38 39 40 38 37
11 14 17 20 20 18 18 18 19 20 21 22 24 24 25 29 32 34 40 41 38 36 31 33 34 31 29 24 36 37 26 33 37 39 40 40 41 41 40 42 42 42 41
13 16 19 20 19 18 18 19 20 22 24 26 27 28 28 29 29 33 37 41 38 41 39 37 29 26 28 34 30 26 36 42 34 36 38 41 40 41 41 41 41 42 44
14 17 20 20 18 18 19 21 23 25 27 29 30 29 28 28 30 35 35 37 46 43 41 37 34 33 34 27 35 41 36 32 39 39 40 39 39 38 39 39 39 41 41
15 18 19 18 17 19 21 23 26 28 30 31 31 31 28 31 36 35 34 35 36 40 45 47 40 38 36 40 40 34 38 41 41 38 38 38 38 38 39 38 39 41 41
17 18 18 18 18 20 23 26 28 30 31 32 32 30 32 36 41 37 34 31 34 36 44 46 46 42 46 45 43 37 42 39 40 40 37 36 36 38 40 44 43 44 42
17 18 18 18 20 23 25 28 30 31 33 32 32 33 38 42 40 35 34 32 31 32 36 54 47 48 49 50 51 48 44 42 39 36 34 38 42 43 47 44 42 40 41
17 17 17 19 22 25 28 30 31 32 31 33 36 40 40 41 36 31 28 31 34 38 38 39 48 48 47 51 46 46 43 40 40 37 43 43 47 46 40 41 41 40 39
16 16 18 21 25 28 30 31 32 31 31 35 37 40 41 35 30 28 30 35 37 36 32 33 42 46 46 41 40 44 44 43 43 42 40 43 41 38 34 37 42 39 38
16 17 20 24 27 30 31 32 31 32 32 35 38 39 36 30 28 31 34 34 31 35 37 38 43 39 38 38 40 46 48 41 45 44 42 39 32 30 41 37 36 35 34
16 19 24 26 28 30 31 31 31 30 32 35 37 37 34 28 27 27 29 36 38 40 40 40 36 38 40 45 44 43 44 47 49 41 35 37 42 45 44 38 34 31 32
18 22 25 27 29 30 31 29 27 29 32 34 36 36 34 31 28 30 33 32 32 37 43 38 40 40 44 44 43 46 43 38 47 39 35 49 40 44 41 40 33 35 40
21 24 26 28 29 31 30 28 27 29 32 33 34 37 37 35 32 38 38 36 39 38 35 37 39 41 42 45 45 41 45 43 43 46 42 48 39 44 43 41 37 36 36
24 26 27 28 30 30 30 27 27 29 31 33 35 33 34 34 37 36 40 42 44 38 36 35 37 39 41 40 45 42 41 46 45 42 35 43 42 45 45 43 36 35 35
26 27 28 30 31 31 29 27 27 29 32 33 31 29 31 36 36 37 40 44 38 38 42 36 35 35 39 36 33 37 40 40 40 40 43 40 43 46 44 43 37 21 23
27 28 30 30 30 31 32 26 25 28 31 34 36 38 38 35 37 37 37 38 40 44 42 37 43 42 36 37 32 32 37 38 39 41 39 38 40 40 32 33 26 34 35

GFSMA_850_spd_012.txt.gz
Wind_Speed
3 5 5 6 7 9 11 12 15 14 15 13 13 15 15 16 16 17 16 18 19 18 18 15 16 17 18 16 18 20 21 21 22 25 27 28 28 30 35 35 34 35 39
10 8 8 9 9 10 13 15 14 12 14 16 17 18 19 18 18 19 20 19 17 14 11 11 11 10 10 10 13 13 15 13 16 22 25 24 26 27 29 33 37 39 38
9 10 9 9 10 13 11 11 13 16 18 19 19 19 17 16 15 15 13 9 10 11 12 13 13 13 12 11 12 13 15 15 17 19 20 21 21 22 23 26 29 32 39
8 6 8 10 8 8 11 14 16 18 18 18 17 14 12 11 9 8 9 12 14 16 16 16 17 17 18 18 19 20 22 24 26 27 29 28 30 31 32 29 32 34 32
8 8 7 5 8 11 13 15 16 16 16 15 14 13 10 8 7 11 8 13 12 13 13 14 16 18 21 23 25 26 28 29 29 27 26 25 24 29 28 25 26 28 29
5 3 4 7 10 13 14 14 13 13 15 17 17 16 9 4 14 4 21 9 15 9 14 18 21 22 24 26 27 29 31 33 34 23 25 24 23 24 25 25 24 26 27
3 2 6 9 12 15 16 16 15 14 16 20 22 22 14 12 7 7 17 19 14 16 25 20 24 24 25 26 25 25 27 29 31 28 26 26 26 27 27 28 28 27 30
1 4 8 11 14 16 16 15 16 16 16 20 23 19 13 16 4 31 12 28 13 33 20 27 27 28 27 27 30 32 33 32 26 28 29 28 29 30 30 32 30 30 32
2 5 9 13 16 16 15 15 15 17 18 18 19 15 9 8 36 15 35 19 33 28 34 33 31 30 30 32 32 33 30 27 29 33 30 31 32 32 32 33 34 34 33
2 7 11 14 17 17 15 14 15 16 18 20 20 18 16 18 15 22 27 42 32 41 38 37 34 34 35 33 32 27 28 33 35 27 29 32 34 34 35 36 38 38 40
4 8 12 15 17 16 15 14 15 16 18 19 21 24 24 24 24 24 32 31 43 43 42 37 38 37 36 32 28 30 35 29 27 30 34 36 33 35 37 39 40 42 41
6 10 13 16 16 15 14 15 16 17 19 20 22 23 24 25 29 29 34 37 36 37 30 40 37 37 32 28 33 39 28 30 36 36 31 33 36 37 38 39 40 41 43
7 10 13 15 15 15 15 16 18 19 21 24 26 26 26 26 25 26 33 44 37 40 34 31 27 23 27 29 33 28 35 33 33 32 36 37 38 38 38 39 39 40 40
9 12 14 15 15 15 16 18 20 22 24 26 27 28 28 25 25 28 33 39 44 40 37 32 30 28 27 28 31 33 33 31 31 33 35 37 37 39 39 39 40 41 41
10 13 14 15 16 16 18 20 23 25 26 27 29 28 28 29 32 35 37 34 31 38 44 39 33 31 30 36 37 33 34 36 33 34 38 38 38 39 39 39 37 39 40
11 14 15 16 16 17 19 22 25 26 27 28 28 29 31 34 36 37 35 31 28 31 41 42 43 39 40 39 41 35 37 34 34 38 39 40 41 42 41 40 43 44 44
13 15 15 16 16 19 22 24 25 27 28 28 29 32 34 35 38 36 30 27 27 28 35 48 46 45 45 47 46 41 37 33 34 41 42 46 44 42 43 44 45 46 46
14 15 15 16 18 21 24 26 27 27 29 30 31 32 34 36 36 34 29 28 30 31 34 39 45 48 45 49 40 38 37 42 38 40 39 36 39 41 43 43 42 41 40
13 13 15 18 21 24 26 27 28 29 29 29 31 32 35 35 36 31 28 30 31 29 32 37 44 47 51 42 32 40 41 44 45 41 36 35 38 37 36 37 37 36 41
12 13 16 20 23 25 26 29 29 30 30 30 31 33 34 34 34 31 31 30 32 39 41 42 42 40 40 39 41 40 47 43 47 40 36 39 39 36 37 38 40 40 39
12 15 19 21 24 26 28 30 29 29 30 31 32 32 32 33 30 28 29 34 37 39 41 35 45 43 29 42 40 43 43 48 36 42 44 43 36 40 46 42 40 37 35
13 17 21 24 25 27 28 28 26 28 31 31 32 31 34 32 31 29 32 32 32 38 41 42 32 41 41 40 42 43 40 42 46 41 34 47 41 45 44 44 40 36 36
16 20 22 24 26 28 28 28 27 28 30 31 33 32 31 32 32 37 37 36 39 38 31 35 38 37 40 43 39 42 43 41 43 48 43 46 45 42 45 44 39 37 37
19 21 23 25 27 28 28 29 29 28 30 29 28 29 31 34 34 34 37 41 34 38 41 37 36 39 39 41 43 40 41 44 43 45 37 39 46 46 43 41 39 36 34
20 22 25 26 28 28 29 29 26 29 30 31 29 30 31 33 36 34 37 38 39 44 43 33 33 35 38 34 32 33 38 39 40 42 40 37 44 45 44 44 39 29 25
22 24 25 26 26 28 28 27 24 27 32 34 35 36 36 34 33 31 39 38 43 39 37 38 42 38 32 33 30 30 34 37 38 42 39 35 42 41 31 36 29 39 38

GFSMA_850_spd_015.txt.gz
Wind_Speed
6 3 4 5 5 8 10 13 15 18 18 16 16 17 18 18 19 18 18 19 19 19 17 15 11 13 14 11 9 13 14 14 14 15 17 19 21 22 22 23 25 29 33
7 6 6 6 8 10 13 17 17 16 17 18 19 20 21 20 18 17 17 16 15 12 10 10 11 11 11 10 11 13 15 14 16 18 18 18 18 18 20 23 24 24 24
10 8 8 9 11 13 15 14 16 18 20 20 20 18 16 15 13 12 11 11 12 13 13 14 14 15 14 15 16 18 19 21 21 22 23 24 24 24 25 25 25 25 24
9 9 8 8 11 10 13 16 19 20 20 20 17 14 13 12 11 10 11 13 14 15 15 15 15 17 18 20 20 22 24 25 26 28 27 32 31 30 30 30 28 27 25
8 8 7 6 7 11 13 15 16 18 19 17 15 13 14 12 12 10 8 13 11 13 13 13 16 19 20 21 23 24 26 28 29 31 30 26 26 28 26 28 30 28 30
8 6 4 6 8 11 13 14 15 16 17 18 17 15 10 10 11 16 11 17 13 15 11 20 21 21 21 22 24 25 27 28 29 29 26 22 25 24 23 24 23 24 24
7 3 4 6 10 14 16 17 15 14 16 19 21 20 11 9 17 11 13 22 21 19 18 27 24 26 26 26 26 27 29 30 28 23 24 24 24 24 24 25 26 26 27
5 2 5 9 12 15 16 15 14 14 15 19 21 18 12 15 5 10 23 18 25 21 31 27 30 30 30 30 31 32 33 32 30 25 28 27 24 25 27 28 28 28 29
4 2 6 10 12 15 15 14 14 15 15 15 17 12 8 7 34 16 32 26 32 33 33 33 33 33 31 34 34 35 34 32 29 31 26 25 26 28 30 30 30 31 32
4 4 7 10 13 15 14 13 14 14 16 17 17 16 15 17 14 19 24 42 36 41 40 39 38 35 37 36 35 32 32 31 34 27 27 30 32 33 31 30 32 33 35
5 6 8 11 13 15 14 13 13 15 17 18 19 21 23 24 21 19 35 41 47 46 45 42 43 40 35 34 33 33 33 31 27 29 32 32 30 31 33 35 36 36 37
6 7 9 12 14 14 14 14 15 16 17 19 21 22 22 22 25 24 32 39 43 48 47 49 40 38 35 32 35 36 34 29 31 32 31 31 32 34 35 37 39 40 40
7 8 11 13 14 15 15 15 16 17 19 21 23 24 24 23 23 24 31 42 43 49 42 34 30 31 30 34 34 36 34 31 33 33 32 33 34 35 38 39 40 41 42
8 10 12 14 15 15 15 17 18 20 21 23 24 25 24 22 24 27 30 37 47 35 41 33 37 34 24 28 31 30 34 35 34 34 33 34 36 38 41 41 42 42 44
9 10 12 14 15 16 17 18 20 22 23 24 25 25 26 27 28 29 31 30 30 33 45 31 30 37 37 37 35 33 37 37 33 33 34 37 37 41 44 45 45 46 45
10 11 13 15 15 17 18 21 23 23 25 25 26 28 28 29 30 32 32 30 27 30 39 46 46 44 40 38 41 36 38 36 37 32 33 38 43 47 46 47 47 47 45
10 12 14 15 17 18 21 23 24 25 26 27 27 27 29 29 32 32 32 30 28 28 36 50 46 48 52 48 44 42 37 35 33 37 39 44 47 43 40 40 40 41 43
11 13 15 16 18 20 22 24 25 26 28 28 28 29 30 31 32 32 33 32 31 30 32 39 47 51 48 49 44 46 40 39 33 36 42 42 39 40 39 38 40 41 41
12 14 15 17 19 22 24 25 27 27 27 28 29 30 30 30 32 34 33 33 33 32 32 38 47 49 46 44 45 38 43 45 43 39 38 35 34 35 39 42 40 40 39
13 14 16 18 21 23 24 26 27 27 28 28 29 29 29 30 33 31 32 32 33 38 40 42 43 41 44 41 36 41 49 42 43 41 37 36 42 41 39 38 39 39 40
14 15 17 19 22 25 26 27 27 27 29 30 30 30 30 28 25 25 28 34 36 37 41 40 42 36 37 42 41 42 44 45 41 44 43 45 38 39 43 40 38 38 36
13 15 19 22 24 26 27 29 25 28 29 29 30 29 28 26 28 28 31 29 30 36 40 33 43 42 45 41 43 43 39 48 47 42 34 49 44 45 45 42 39 34 35
14 17 20 23 26 27 28 27 26 26 28 28 29 29 27 30 31 34 34 34 30 27 34 37 42 38 41 44 43 46 44 42 45 48 39 47 45 46 44 42 38 36 36
16 19 22 25 27 27 27 27 24 27 28 28 29 27 30 33 32 32 37 34 41 42 43 37 34 38 39 41 43 41 42 44 45 44 34 39 45 47 45 44 41 38 35
18 21 24 26 27 27 27 26 24 27 28 31 31 31 30 30 34 33 35 40 40 44 33 35 31 36 38 32 30 34 39 40 44 42 42 38 43 44 47 48 38 36 32
20 23 24 25 25 26 26 25 22 25 29 32 34 35 32 33 31 32 35 37 40 35 38 38 43 34 31 31 31 30 34 38 39 46 37 37 43 38 32 38 36 41 37

GFSMA_850_spd_018.txt.gz
Wind_Speed
5 3 3 4 5 5 8 12 13 15 17 15 16 18 20 20 20 19 19 18 17 15 15 16 16 15 9 10 10 12 15 15 21 19 17 16 18 18 18 19 21 22 24
7 5 6 6 7 9 11 14 15 15 16 18 20 20 20 19 18 16 15 14 13 11 13 13 13 12 11 13 14 16 17 18 18 19 19 21 21 21 21 20 20 21 23
7 8 9 9 10 12 13 13 15 17 18 18 18 18 16 16 15 13 12 11 12 13 14 15 16 16 16 18 19 20 22 24 24 26 26 26 28 28 27 27 28 28 29
7 9 9 9 11 10 11 14 17 18 18 17 15 15 15 15 14 12 10 11 13 14 15 16 16 17 18 20 21 23 24 27 28 30 31 31 32 33 33 32 32 31 31
10 9 8 9 8 10 12 14 17 18 17 15 13 12 14 13 12 13 13 12 12 14 16 16 16 20 22 23 24 26 27 28 30 30 30 29 31 32 32 28 28 30 30
10 8 8 6 7 10 13 15 16 17 18 18 16 14 13 11 12 11 18 18 17 19 22 20 22 26 26 27 28 29 30 31 32 31 29 29 28 28 27 22 23 23 23
10 8 5 5 7 11 14 17 17 17 18 20 20 18 9 6 11 18 12 16 24 18 25 22 29 28 30 30 31 31 33 33 34 32 29 27 33 30 25 24 25 26 26
10 7 5 5 9 13 16 18 17 17 18 21 21 18 11 12 3 8 25 20 26 21 27 25 30 29 30 30 31 33 36 36 35 29 24 28 24 24 25 27 28 29 30
10 7 4 6 10 14 17 18 18 18 17 17 18 12 8 6 31 11 29 19 27 32 32 34 33 32 32 34 34 34 36 35 33 27 29 27 27 29 30 33 33 32 31
10 6 5 7 11 14 16 17 17 17 17 17 16 15 15 17 14 18 18 39 31 40 40 39 37 38 35 34 34 34 35 34 31 30 30 28 32 33 33 32 32 32 34
10 6 6 9 11 14 15 16 16 16 17 18 19 20 21 20 20 19 35 39 46 45 45 44 43 34 36 33 33 33 33 29 29 31 31 33 34 34 35 34 35 36 35
9 6 8 10 12 14 15 16 16 16 17 19 20 20 21 22 24 22 32 41 44 45 49 43 39 37 36 33 33 33 35 29 31 31 33 35 35 36 36 37 37 38 38
8 8 8 11 13 14 15 16 16 17 19 20 21 22 22 21 22 25 30 40 46 52 36 42 36 35 34 35 37 36 35 32 33 35 36 36 37 37 37 38 39 40 41
9 8 9 12 13 15 16 16 17 18 20 21 22 22 23 23 24 25 28 33 46 33 40 34 35 30 32 38 34 32 34 34 34 35 36 38 38 39 40 40 40 41 44
8 9 11 13 14 16 17 18 19 20 22 23 23 24 26 25 25 27 28 28 29 35 48 32 26 44 42 39 38 32 34 34 32 35 38 40 40 40 39 40 44 46 49
9 10 11 14 16 17 17 19 20 22 23 24 25 27 27 27 27 28 28 28 28 31 40 46 49 45 41 45 40 38 38 34 37 37 35 35 35 40 44 50 53 52 48
10 11 12 15 16 17 18 20 22 23 25 27 27 28 28 28 29 28 28 29 31 30 38 54 47 48 50 45 47 43 41 36 37 33 33 38 42 49 50 48 47 45 44
10 11 14 15 17 17 20 22 24 25 27 28 28 29 30 30 30 29 29 31 30 29 33 43 51 50 48 48 48 46 42 35 42 46 41 42 44 43 44 42 41 41 41
11 13 15 16 17 19 22 24 26 27 27 28 29 30 31 31 31 29 26 28 29 31 34 38 47 47 49 44 40 43 46 44 38 36 37 37 38 39 40 41 43 43 44
12 13 15 17 19 21 23 25 27 27 28 29 29 30 29 28 26 25 26 27 30 36 38 40 44 41 35 42 41 47 43 42 42 39 40 44 38 38 38 39 39 39 40
12 14 16 18 20 23 25 27 27 28 29 29 29 27 26 24 22 23 26 32 32 34 40 34 34 46 41 44 41 46 43 45 47 41 40 45 41 44 46 41 39 37 36
12 15 16 19 22 25 26 27 28 26 28 29 29 27 26 25 28 27 28 26 27 34 32 40 41 39 42 43 46 44 44 46 48 41 34 51 46 46 46 44 39 35 36
13 15 18 22 24 26 27 28 26 26 27 27 27 28 28 30 28 31 32 33 27 38 36 35 39 38 42 43 42 47 47 45 45 48 42 49 44 48 47 45 40 37 37
14 17 20 23 25 26 27 27 26 26 26 25 26 28 31 31 31 32 35 33 39 41 41 33 32 37 37 41 39 39 41 45 46 44 34 42 47 48 47 46 43 36 34
15 18 22 25 26 26 27 28 26 25 25 27 28 30 31 29 33 30 32 38 40 42 31 33 30 34 37 32 29 32 38 40 43 46 44 38 42 45 50 47 35 34 32
17 21 23 24 24 26 27 26 22 23 27 28 29 35 33 31 29 29 33 35 39 34 36 37 41 35 30 28 30 30 33 37 39 44 42 38 44 42 32 36 35 44 38

GFSMA_850_spd_021.txt.gz
Wind_Speed
7 6 4 5 4 4 6 9 13 15 15 15 17 18 18 18 18 17 16 14 13 15 14 15 16 12 11 12 13 16 16 17 18 20 21 22 19 19 18 18 19 20 22
8 7 6 6 6 7 8 12 14 14 16 17 18 18 17 16 15 14 12 11 10 12 12 13 14 14 15 16 16 18 19 20 21 22 22 23 23 23 23 23 23 23 23
8 8 8 8 7 9 12 11 14 16 17 16 17 16 15 14 13 12 10 9 9 11 13 14 14 15 16 18 19 21 24 26 27 28 29 29 29 30 31 30 30 31 31
10 7 8 8 8 9 9 12 15 17 17 16 15 15 14 13 13 11 9 7 7 9 11 13 14 15 16 18 19 22 24 25 27 28 29 30 30 32 33 34 35 34 34
10 7 9 9 8 7 10 13 15 16 15 12 11 13 13 13 11 11 11 11 12 13 16 17 18 20 23 25 25 26 28 28 30 31 30 29 28 30 30 31 31 29 27
9 7 9 8 6 7 10 12 14 14 15 15 14 14 11 8 9 10 11 14 17 18 20 20 22 25 27 28 29 29 31 31 32 33 32 30 28 25 26 29 26 25 24
9 8 9 7 6 6 9 11 12 14 15 17 16 14 8 4 12 11 14 13 17 18 23 23 27 29 30 29 29 30 32 33 34 34 33 31 24 27 30 25 25 26 27
9 11 8 6 5 7 9 11 13 15 17 19 19 14 8 7 1 10 22 21 25 15 25 24 28 28 28 30 30 31 32 33 34 34 31 25 27 28 28 28 30 31 33
13 12 9 6 6 7 10 12 14 14 16 17 17 12 7 4 24 4 22 14 22 28 30 32 31 31 31 29 32 32 33 34 34 31 27 28 29 31 30 32 34 36 37
16 12 9 6 6 8 11 13 15 16 16 16 16 16 14 14 8 14 15 30 28 36 35 35 36 33 30 31 31 30 31 33 32 29 31 30 32 32 34 35 37 37 38
17 13 9 6 6 9 11 14 16 16 17 17 17 17 17 18 18 18 26 30 38 38 38 41 38 33 32 32 31 31 35 32 30 30 31 33 34 35 37 39 39 40 40
16 12 8 6 7 10 12 14 15 16 17 17 18 18 19 19 20 20 20 28 32 31 43 38 35 34 33 32 32 39 37 34 31 31 33 34 36 37 39 40 41 41 41
16 12 8 8 9 11 13 15 15 16 17 17 18 19 20 21 23 25 28 31 31 37 20 25 26 30 27 29 37 38 35 33 32 32 33 34 36 37 39 41 42 43 43
15 10 9 9 10 12 14 15 15 16 18 19 19 20 21 22 22 24 27 29 40 26 27 25 21 19 20 32 33 32 28 29 31 33 35 36 38 40 41 41 42 41 42
13 10 9 9 11 13 14 15 16 17 18 19 20 21 22 23 24 25 26 27 26 33 42 27 15 29 30 29 29 29 29 30 32 33 35 37 39 39 38 38 37 39 40
12 9 9 10 12 13 15 16 17 18 18 20 21 23 24 25 26 26 27 27 28 29 40 38 39 34 32 31 32 30 31 34 34 34 36 37 39 39 41 42 43 46 49
10 9 9 10 12 14 15 16 17 18 20 22 22 24 25 26 28 28 28 28 29 29 37 53 40 41 35 33 33 31 31 31 35 42 41 41 41 39 40 41 43 44 44
10 9 9 11 12 14 16 17 18 20 22 23 25 26 27 28 28 27 27 27 26 27 31 44 44 41 38 35 33 31 39 39 35 35 36 36 37 39 39 40 41 43 44
9 9 9 11 12 15 17 19 20 22 23 24 26 27 28 27 27 27 25 26 27 27 28 34 44 45 40 32 42 42 35 37 33 33 37 36 34 36 37 38 40 41 41
8 9 9 11 14 16 18 20 22 23 25 26 26 27 26 25 26 25 25 25 24 30 33 34 39 33 41 44 41 39 39 39 37 35 42 37 35 36 37 38 39 40 39
8 8 10 13 15 17 20 22 23 25 26 26 26 26 24 25 23 23 24 26 28 29 34 32 36 39 42 39 38 39 40 43 44 35 42 37 37 45 43 39 37 36 35
7 9 11 14 16 19 21 23 24 25 25 26 27 26 26 26 27 22 25 24 26 30 32 39 40 38 39 34 39 40 40 43 45 34 32 50 41 45 43 41 36 35 36
7 10 12 15 18 20 22 24 24 24 24 25 25 26 27 26 26 27 29 28 31 25 32 36 35 33 37 38 39 44 45 41 42 46 40 49 45 45 44 44 40 37 37
9 11 14 17 20 22 23 24 24 24 24 24 24 25 27 30 27 28 31 32 35 37 30 30 29 35 34 37 39 36 37 40 43 45 32 41 44 42 46 48 38 27 31
10 13 16 19 20 21 23 24 24 24 24 25 25 26 28 25 28 27 29 36 34 31 30 29 29 29 35 31 27 28 34 36 41 44 42 32 34 42 47 44 32 39 33
11 14 17 19 21 22 23 24 22 21 24 25 23 24 26 27 27 27 31 31 32 32 32 32 34 35 28 25 25 26 30 32 35 39 33 33 40 34 30 29 40 45 36

GFSMA_850_spd_024.txt.gz
Wind_Speed
10 10 8 5 5 6 6 9 13 14 14 15 17 18 18 17 16 14 13 12 12 11 13 14 13 11 13 14 14 16 17 18 18 19 21 21 21 21 20 20 20 21 21
10 8 7 8 7 7 8 11 15 13 15 16 18 18 17 16 14 12 10 11 11 11 12 13 13 14 15 16 16 17 20 21 22 23 24 25 25 25 26 25 25 25 25
11 10 9 8 8 8 10 13 12 13 16 17 18 17 15 14 13 10 9 9 10 10 11 12 13 13 15 16 17 19 21 23 24 25 26 26 27 28 29 31 32 32 31
11 11 9 8 9 10 10 10 12 14 15 15 15 15 15 14 12 10 9 9 9 10 11 12 14 17 18 19 21 22 23 25 26 26 28 29 27 27 28 30 31 32 33
15 13 9 8 11 9 7 9 12 13 13 12 13 13 14 13 11 10 10 11 12 15 18 20 19 20 21 24 25 25 26 27 28 30 29 29 29 28 28 29 31 33 33
18 14 11 9 10 7 6 8 10 12 12 13 12 12 10 7 8 8 9 11 14 16 16 20 22 24 28 28 27 27 27 28 30 30 31 29 28 24 23 25 27 28 27
18 14 12 10 9 6 5 6 9 11 13 14 12 10 8 6 9 10 8 11 18 21 21 19 26 26 29 28 28 27 27 28 29 30 30 29 27 25 25 27 29 28 27
19 17 13 12 8 5 4 6 9 12 14 15 12 8 5 4 2 5 19 8 14 14 20 21 26 25 26 28 26 28 28 29 30 31 30 28 25 27 29 30 31 31 31
21 17 15 12 8 5 5 6 9 11 12 14 12 6 5 4 14 7 9 15 12 19 22 26 25 26 29 24 29 29 30 30 31 32 30 28 30 31 32 33 34 34 35
21 18 16 12 9 6 6 7 10 11 12 11 13 12 9 9 6 10 8 12 14 19 22 23 25 29 23 27 28 28 29 30 35 34 30 31 32 33 34 36 37 38 39
22 19 17 13 9 7 6 8 10 12 12 12 12 13 12 11 9 10 20 15 20 20 20 16 25 20 20 22 22 21 29 32 30 29 30 31 33 35 37 39 40 41 42
23 21 17 13 9 7 7 9 11 12 14 13 13 14 12 10 11 13 20 24 26 23 20 24 19 20 23 22 23 26 36 36 32 31 31 32 33 35 37 39 40 41 41
24 22 16 12 9 7 8 9 11 13 14 14 15 14 16 15 17 17 19 24 25 25 22 16 22 21 22 20 23 33 38 35 32 31 33 34 35 36 37 39 40 41 42
25 21 15 12 9 8 8 10 12 13 14 15 16 17 18 18 18 18 19 22 31 25 25 21 24 18 17 24 28 30 29 29 30 32 34 36 37 38 39 39 40 40 40
24 19 14 11 9 8 9 10 12 14 14 15 17 18 19 19 19 19 20 19 22 32 32 22 15 21 26 26 28 29 30 30 32 35 36 36 37 37 40 41 40 42 41
21 17 13 10 9 9 10 11 13 14 14 17 18 19 19 19 21 21 20 20 21 26 37 28 29 27 27 29 28 29 30 33 35 35 37 38 38 37 37 39 39 39 40
19 15 11 9 9 9 10 12 13 15 16 19 20 20 21 22 22 20 19 20 22 23 34 39 31 29 30 29 29 29 30 34 38 38 36 37 37 36 36 37 39 40 40
17 13 10 9 8 9 11 12 14 16 18 20 20 21 22 21 23 20 19 20 21 23 29 40 36 35 32 31 30 31 36 34 36 34 35 36 37 37 37 36 38 39 40
14 11 9 8 8 10 12 14 15 18 19 20 21 22 22 22 21 19 20 21 22 25 28 35 42 39 37 31 36 39 30 33 29 31 35 35 35 37 36 36 37 39 41
12 9 7 7 9 11 13 15 17 18 19 20 21 22 22 22 20 21 21 23 25 27 30 34 37 42 30 37 39 34 34 32 35 33 40 35 34 35 35 37 39 39 39
9 7 6 8 10 12 14 16 17 18 19 19 20 21 21 22 25 22 22 23 25 30 32 37 37 31 40 38 35 34 36 39 43 34 38 38 35 43 42 38 37 35 34
7 6 7 9 11 13 16 18 19 19 19 20 20 21 20 21 20 22 23 24 26 30 34 37 35 37 36 34 34 37 42 36 43 34 30 48 39 43 42 41 36 36 37
5 6 8 10 12 14 17 19 20 21 20 20 20 20 20 20 22 22 24 26 28 28 26 35 34 31 34 34 40 40 40 42 40 42 38 48 39 42 42 42 38 36 32
5 7 9 11 14 16 18 19 21 21 19 18 18 20 21 21 21 24 28 32 28 31 27 27 28 31 35 36 36 39 38 39 40 40 30 39 42 38 41 46 35 24 31
6 8 10 13 15 17 19 21 22 19 16 18 19 20 20 23 23 26 28 33 31 28 25 25 28 30 31 34 29 29 32 33 39 41 41 30 29 40 44 43 33 31 33
6 9 12 15 16 17 19 21 22 18 17 18 20 20 21 22 26 26 29 30 31 27 27 32 29 28 25 24 23 22 27 31 35 39 30 29 39 30 27 31 38 41 40

GFSMA_850_spd_027.txt.gz
Wind_Speed
11 9 11 8 6 4 4 8 8 11 13 13 15 15 13 10 10 8 13 12 10 11 13 12 11 12 13 13 15 15 17 17 18 18 19 20 20 20 20 19 19 19 20
13 14 11 9 7 5 7 8 11 13 13 14 14 14 12 9 9 9 6 13 11 11 13 13 12 13 14 14 16 17 18 20 20 21 21 22 23 24 25 26 26 25 25
18 12 10 7 7 8 9 9 11 11 13 13 12 13 11 10 9 8 7 8 12 10 11 12 11 12 13 15 17 18 21 22 24 24 24 24 24 24 24 25 26 28 29
13 11 12 10 7 9 10 10 9 10 11 12 12 10 11 11 9 8 9 8 9 10 13 13 16 19 19 18 19 21 23 24 25 25 25 26 26 26 26 26 27 29 30
15 14 13 10 9 10 10 7 7 8 9 11 11 10 12 12 9 8 7 10 12 14 14 18 17 19 19 20 22 22 23 24 24 26 26 26 26 26 26 25 25 25 30
17 16 15 13 10 9 8 5 6 7 8 10 11 9 12 8 7 7 7 9 10 16 17 19 19 18 22 25 24 24 24 24 25 26 27 28 27 25 24 23 23 24 26
20 19 17 15 11 10 7 5 5 7 9 11 10 9 8 10 9 8 9 7 12 15 16 13 18 20 22 23 24 26 24 25 26 27 28 28 27 24 23 24 25 27 28
23 21 19 16 13 10 7 5 5 8 10 11 10 8 3 5 6 6 8 18 10 14 12 18 22 22 21 24 24 23 26 26 26 27 27 27 26 25 27 28 29 30 31
25 23 20 17 14 11 7 5 5 6 9 11 10 4 3 3 14 7 10 10 14 13 19 24 24 23 23 27 22 24 27 27 27 27 30 30 28 28 30 30 31 32 34
29 25 21 19 15 11 8 5 6 7 8 10 11 9 5 8 3 8 4 11 16 18 21 24 26 25 28 22 23 27 26 29 31 33 31 28 29 30 31 31 33 35 36
29 25 23 19 15 12 8 6 7 8 9 9 10 10 8 9 8 10 20 13 20 20 23 22 22 28 24 22 26 24 20 25 28 29 30 30 29 31 32 33 34 36 36
30 25 24 20 16 12 8 7 8 9 10 11 11 12 10 8 9 11 18 24 25 26 21 25 24 24 22 25 25 21 23 28 31 29 29 30 31 32 33 34 35 35 36
30 24 24 20 16 12 9 8 8 10 11 12 13 12 13 13 14 15 17 23 26 30 27 22 21 23 24 27 25 23 32 30 29 31 31 31 33 34 36 36 36 35 37
29 26 24 20 15 11 9 8 9 11 13 14 14 14 15 16 16 17 19 21 27 26 25 22 25 24 23 25 31 29 33 30 31 32 32 34 36 36 36 36 36 36 37
27 25 22 18 14 10 9 8 10 12 13 14 15 16 17 17 19 20 21 21 21 26 29 24 21 14 27 31 30 30 34 33 31 33 35 35 36 36 37 37 37 37 37
24 23 21 16 12 9 8 9 11 12 13 15 16 17 18 19 20 22 21 21 22 25 33 28 28 27 28 30 32 31 33 31 33 35 37 35 36 36 36 36 36 37 37
24 22 19 14 10 8 8 10 12 13 14 15 17 18 20 21 22 22 22 23 23 24 31 34 30 28 30 32 32 32 33 39 38 36 36 35 34 34 35 36 36 37 38
23 20 16 12 9 8 9 11 13 14 15 17 18 20 21 19 22 23 21 21 24 26 29 36 32 33 32 32 34 35 34 34 39 32 32 34 35 36 36 36 36 37 37
21 17 13 10 7 8 10 12 13 15 17 18 19 20 21 20 22 22 21 23 24 26 29 33 37 33 34 35 36 30 39 30 33 33 34 35 36 37 35 35 36 36 37
17 13 10 7 7 9 11 13 15 17 18 19 19 20 21 22 22 21 24 24 24 28 29 32 37 41 37 35 30 35 34 33 34 37 37 40 35 35 34 36 37 37 36
12 9 7 6 7 10 13 14 16 18 19 19 20 20 20 21 25 23 22 24 27 30 33 37 38 38 35 36 36 31 35 35 44 38 34 40 32 43 42 38 36 34 32
10 7 6 6 8 12 14 16 17 19 20 20 21 21 21 21 20 20 22 23 24 29 34 37 40 35 41 34 33 34 43 39 38 42 29 44 41 44 43 41 35 34 35
8 5 5 7 11 13 14 17 19 20 21 19 21 21 20 19 21 22 23 23 26 29 28 33 38 34 35 36 41 42 41 39 47 47 41 40 43 47 42 41 40 35 36
5 3 8 9 11 14 15 17 19 21 20 19 19 20 21 22 21 23 27 30 33 33 30 30 32 34 37 38 37 37 39 43 43 42 33 36 46 44 42 45 44 31 25
4 6 8 9 12 13 18 18 20 21 20 18 17 19 21 22 22 22 28 34 35 35 32 26 28 31 32 32 31 31 34 38 41 46 39 37 36 39 49 48 40 33 36
5 6 8 11 13 14 17 19 20 21 18 17 18 20 19 21 21 25 29 34 37 35 32 33 34 33 29 29 25 25 30 34 39 47 38 31 42 34 33 38 37 45 40

GFSMA_850_spd_030.txt.gz
Wind_Speed
11 9 11 13 12 7 5 4 5 7 9 9 11 12 10 8 9 11 13 11 8 9 11 10 10 11 11 12 13 13 14 15 15 15 16 16 17 18 18 18 18 19 19
12 17 21 18 10 6 6 8 8 8 9 11 10 10 10 8 8 8 12 12 9 9 10 10 11 11 11 11 13 14 15 16 18 19 18 18 18 19 19 19 20 21 22
20 25 21 11 8 7 9 10 8 7 9 9 8 8 9 8 7 8 10 12 11 9 9 9 10 12 14 16 16 17 19 20 20 22 22 22 22 21 22 22 22 22 23
24 21 15 11 9 9 11 10 8 7 7 8 8 8 9 11 9 8 9 10 11 11 12 12 13 15 15 17 18 19 21 22 22 21 22 23 23 23 23 24 23 23 23
21 18 14 14 13 12 12 10 7 5 6 7 8 8 9 11 8 8 9 10 10 10 12 16 15 18 18 18 19 20 20 21 22 22 22 23 24 23 23 23 23 22 21
22 18 18 17 14 12 10 9 6 3 4 7 8 8 9 7 7 8 7 10 11 13 18 15 17 16 19 22 23 22 23 23 22 23 23 23 23 22 22 21 21 21 21
24 22 22 19 16 14 11 8 5 3 4 7 8 8 6 8 9 8 5 7 10 17 18 18 16 22 23 24 23 23 25 23 24 23 23 24 24 24 23 23 23 24 25
28 26 24 20 17 13 12 9 5 4 3 6 8 5 2 6 7 8 13 13 16 15 17 20 23 26 25 25 24 27 23 25 25 25 25 25 27 27 25 25 27 27 27
30 28 25 21 18 15 13 9 6 4 5 5 7 5 2 3 11 7 7 13 12 17 19 21 27 27 29 26 29 25 25 28 27 27 25 27 27 27 27 28 28 29 30
31 30 27 23 19 17 14 10 6 4 6 7 7 5 6 7 5 7 6 11 17 16 19 27 27 30 28 30 27 26 28 28 26 24 27 29 29 29 28 29 30 31 32
34 32 28 24 21 18 15 10 7 5 6 8 8 9 10 9 8 9 20 19 21 23 25 26 26 28 28 26 27 29 29 29 29 29 31 30 30 30 31 31 31 31 32
37 33 29 25 22 19 16 11 8 7 7 8 9 10 10 9 8 12 19 27 29 31 28 28 26 23 24 25 24 28 29 27 26 30 29 30 31 31 32 32 33 34 34
38 35 30 27 24 21 15 11 8 8 8 10 10 11 12 12 13 15 19 24 30 35 34 31 24 22 22 25 30 29 31 28 30 30 32 32 31 32 34 34 34 33 34
40 35 30 26 24 19 16 12 9 9 9 10 11 12 13 13 15 17 19 23 30 32 35 30 32 26 21 23 26 31 38 39 35 33 31 31 33 34 35 35 34 34 34
37 33 30 26 22 19 15 12 9 9 10 12 13 14 15 16 17 19 20 22 22 25 32 33 30 23 33 34 36 37 39 41 32 31 31 34 36 35 34 35 35 34 34
35 32 28 24 22 18 13 10 9 9 10 13 15 16 16 18 19 20 21 22 22 26 33 35 38 36 35 33 35 37 34 33 33 35 35 35 35 35 33 34 35 35 35
33 29 26 24 20 15 11 9 9 10 12 13 15 17 18 20 21 22 23 24 25 25 31 39 37 34 31 33 39 32 37 36 38 39 33 33 31 32 35 35 36 37 37
29 27 25 22 18 13 10 9 9 11 13 14 16 17 20 21 23 24 25 25 24 26 29 35 34 33 32 34 38 36 35 31 40 35 30 32 35 34 35 36 35 35 35
28 26 23 18 15 11 8 8 10 12 14 15 17 19 21 23 25 25 25 25 27 29 28 31 38 37 40 36 36 35 37 40 34 34 35 32 37 34 34 36 33 34 35
26 22 19 14 10 7 7 9 11 13 15 16 18 20 22 24 24 25 27 28 26 28 30 33 36 40 36 38 31 37 40 33 39 44 43 36 35 35 36 34 34 34 32
23 19 13 9 7 5 8 11 13 15 16 18 19 20 21 22 23 22 21 23 25 27 30 33 35 37 39 28 39 34 35 45 46 43 40 37 43 42 40 37 36 33 31
15 14 10 7 6 7 10 12 14 16 17 19 20 20 21 23 23 19 20 21 22 25 30 34 38 36 43 36 33 36 44 43 45 38 36 50 40 43 43 42 37 34 35
14 9 6 5 7 10 10 14 15 17 18 19 19 20 22 23 24 24 24 22 25 26 28 31 36 35 38 37 38 43 41 42 41 47 45 45 42 48 46 43 41 38 35
9 7 4 6 9 12 12 14 16 17 19 19 18 18 20 23 22 22 23 25 28 34 34 31 33 34 33 36 37 38 36 40 44 42 38 42 47 49 49 48 43 35 29
6 2 5 7 9 12 14 16 17 19 20 19 17 18 20 20 20 20 23 29 34 37 38 35 28 28 29 30 28 30 35 38 44 43 41 40 44 47 50 48 37 34 39
2 3 5 7 10 11 14 18 19 21 21 21 20 20 18 17 19 20 25 30 36 39 35 30 33 33 28 27 27 26 30 34 40 45 40 34 43 39 35 39 34 45 42

GFSMA_850_spd_033.txt.gz
Wind_Speed
15 15 13 12 9 7 8 7 6 5 5 6 7 8 8 8 10 10 10 8 7 7 7 7 7 8 8 9 9 9 10 11 11 12 12 13 13 13 13 13 14 15 17
15 18 18 15 10 9 10 8 7 7 8 7 8 7 6 6 8 9 9 8 7 5 6 7 7 7 8 9 12 13 14 14 15 16 17 16 16 16 17 16 16 16 17
18 20 16 15 13 13 11 9 9 9 8 7 6 6 5 5 7 9 9 8 7 7 6 6 8 10 11 13 13 15 16 17 17 17 17 19 18 18 18 18 18 18 18
21 21 21 19 17 15 12 11 11 10 8 6 5 5 6 5 6 7 9 9 8 7 8 8 10 12 12 14 14 15 17 19 18 18 18 18 19 19 19 19 19 19 18
26 24 23 21 18 16 14 12 12 9 6 4 4 5 4 6 5 5 7 8 9 9 10 11 13 14 14 14 18 19 19 19 20 20 19 19 18 19 19 19 19 19 18
28 27 24 22 21 19 15 13 11 8 5 3 3 4 3 2 3 5 7 6 8 10 13 16 16 13 17 19 22 20 20 21 23 21 19 19 19 19 19 19 19 19 20
25 25 26 25 24 20 16 13 11 8 6 3 2 4 2 2 3 3 3 7 11 13 15 16 17 18 20 22 22 21 22 24 21 21 20 20 18 19 20 20 21 22 23
30 26 29 29 26 23 18 15 12 9 6 4 2 2 2 4 3 6 8 8 10 14 14 17 18 21 25 25 25 24 24 22 22 22 20 19 21 23 24 24 24 24 25
32 32 32 30 27 23 18 16 14 11 8 5 3 1 2 2 6 5 7 8 12 12 15 18 20 24 26 27 26 26 24 22 24 20 18 20 23 26 26 25 26 26 27
34 37 34 31 27 24 20 18 15 12 9 6 4 4 4 5 3 4 8 9 13 16 18 20 24 24 23 25 24 25 25 25 24 20 21 24 27 26 27 27 28 28 28
41 38 36 33 29 25 22 20 17 13 10 7 6 6 6 6 8 9 14 13 18 20 21 22 22 23 20 19 21 24 24 27 24 23 25 28 28 29 30 30 30 30 30
39 40 37 34 31 27 25 22 17 13 11 8 7 8 8 8 9 11 15 22 25 27 24 23 22 20 19 21 21 22 22 24 23 25 28 31 31 32 31 30 31 32 33
39 41 40 37 33 27 25 22 19 14 11 9 9 9 10 11 12 13 16 20 25 30 30 27 23 22 19 21 20 22 26 30 33 31 33 32 31 30 31 31 32 34 34
37 40 40 36 31 29 26 23 19 15 12 10 9 10 11 12 13 15 17 19 25 28 31 28 29 26 20 22 27 31 34 34 35 33 31 29 29 30 33 33 32 32 32
39 38 40 36 31 28 25 22 18 14 11 10 10 11 12 13 15 16 17 19 20 20 30 29 28 31 34 34 33 32 32 35 31 30 30 29 30 32 32 31 31 29 30
39 40 39 34 32 28 24 21 16 13 11 11 12 13 14 15 16 17 18 19 20 22 24 32 35 36 37 37 35 32 35 35 33 31 29 28 32 29 30 29 31 32 32
41 41 39 35 28 26 24 18 14 12 10 11 13 14 15 17 18 18 20 21 22 24 29 35 35 37 36 37 35 34 32 31 31 31 33 30 29 27 31 32 32 33 34
41 41 35 30 27 24 20 16 12 11 11 12 13 15 16 17 19 20 21 23 24 25 29 36 35 34 35 35 35 31 30 28 37 33 29 26 31 31 32 33 32 32 34
38 35 30 31 26 23 17 12 10 10 12 13 14 15 17 19 20 21 23 24 25 27 27 30 35 35 36 39 37 33 30 41 35 35 32 33 33 33 29 29 32 32 32
34 32 26 25 21 16 11 8 8 10 12 14 15 17 18 20 21 22 23 24 25 26 28 29 32 35 38 37 33 35 39 38 41 39 37 36 32 32 33 32 31 32 32
28 26 23 17 14 10 7 10 12 11 12 15 15 17 18 20 19 21 20 21 22 25 26 28 33 36 34 35 39 38 40 43 44 41 41 34 41 42 34 34 36 34 30
25 21 19 12 11 8 11 11 9 11 14 15 15 17 19 20 21 21 20 19 19 22 25 30 32 36 39 37 37 36 39 43 46 38 34 49 44 43 38 40 39 34 34
22 17 13 13 10 9 9 9 11 12 14 15 17 19 21 21 20 22 23 21 20 22 24 28 35 36 35 35 35 37 38 37 38 45 46 50 43 45 43 41 40 37 33
15 13 10 8 8 9 9 10 11 13 15 16 19 20 22 22 22 23 21 22 24 27 31 32 32 34 33 30 31 34 37 38 41 40 38 44 44 45 43 43 39 31 23
12 11 8 6 6 8 10 12 13 14 16 18 20 19 19 20 18 17 20 24 28 32 33 34 31 26 25 28 28 26 30 33 41 41 38 38 40 47 47 44 34 27 33
10 6 5 4 5 7 10 13 16 18 19 19 16 18 20 19 18 18 22 27 31 34 33 29 30 31 30 26 22 24 28 32 37 38 35 32 41 41 31 37 28 40 40

GFSMA_850_spd_036.txt.gz
Wind_Speed
18 17 14 13 12 12 11 10 8 7 7 7 7 9 9 9 8 7 6 5 5 6 6 5 5 5 6 6 6 7 9 9 10 11 11 11 12 12 12 12 12 14 15
20 18 17 16 14 12 10 10 9 8 8 8 9 9 8 7 7 7 6 5 5 4 5 5 5 5 6 8 10 11 11 12 13 14 14 15 14 14 15 15 15 15 16
21 19 20 20 16 13 11 12 11 10 10 10 9 8 7 7 6 7 6 5 4 4 4 4 6 7 8 9 10 13 13 13 14 15 15 15 16 16 16 15 15 16 15
22 22 23 21 18 17 14 14 12 12 11 9 8 7 7 6 7 7 6 5 4 4 5 6 7 10 10 11 12 13 16 17 16 15 16 17 17 16 16 15 14 14 14
23 24 24 21 20 19 17 15 13 13 12 10 8 7 6 6 6 5 5 5 4 4 5 8 10 9 10 10 14 16 16 17 18 19 18 17 17 17 17 17 16 15 15
24 26 24 22 23 22 21 18 15 14 12 10 8 6 6 5 3 4 4 5 5 7 8 11 10 10 12 13 17 17 18 17 19 20 17 16 16 16 17 16 17 17 18
29 26 27 26 27 26 22 19 17 16 14 11 8 7 7 6 5 5 6 6 8 9 11 10 12 14 15 18 19 20 18 19 17 18 17 17 15 15 17 19 20 20 21
32 31 28 30 30 28 26 23 18 18 16 13 10 8 6 8 9 8 8 9 10 10 12 13 16 18 20 22 22 21 21 18 18 17 16 16 15 18 20 21 21 21 22
36 32 29 30 30 31 28 23 20 19 17 15 12 9 6 6 8 10 11 11 12 13 13 15 18 20 24 24 23 24 23 21 20 17 16 16 18 21 23 23 23 24 25
39 35 34 33 32 31 29 25 22 21 19 16 14 12 10 9 5 4 9 12 14 14 16 18 21 23 23 25 23 22 22 23 20 17 18 19 21 24 25 26 26 27 28
42 39 37 37 32 33 30 28 25 24 21 18 15 12 11 10 10 11 9 10 14 16 20 22 21 23 22 22 21 23 23 22 21 20 21 22 25 27 28 29 29 28 29
44 43 40 40 37 36 33 30 26 25 23 19 16 13 12 11 11 12 13 17 19 21 20 20 20 21 19 22 21 22 22 24 27 28 26 28 30 31 31 30 29 29 30
45 46 44 43 41 37 35 32 28 27 24 20 17 13 13 13 13 13 15 17 22 26 26 24 23 19 21 22 19 25 28 31 34 34 29 30 29 29 28 28 29 31 31
42 45 46 45 41 37 37 33 29 29 25 21 16 14 13 13 14 15 16 17 22 25 27 23 26 23 20 28 30 31 32 31 32 31 30 27 29 29 28 29 30 31 31
41 44 44 41 38 39 37 33 32 27 24 18 17 14 13 14 15 15 16 18 19 20 26 25 26 26 32 33 35 34 34 33 32 31 29 28 27 27 28 30 29 30 31
41 42 40 37 39 39 36 32 28 24 23 18 15 13 12 13 15 16 17 19 21 22 23 28 31 32 34 36 34 33 31 30 29 28 26 25 27 28 28 27 28 28 31
38 36 37 38 39 37 33 28 24 20 19 15 14 12 13 14 16 18 20 21 21 23 29 33 32 32 33 34 34 32 32 31 29 26 30 25 26 26 26 29 29 30 31
32 35 38 39 37 33 28 25 20 20 17 13 11 12 12 15 17 19 21 22 23 23 28 33 33 32 34 34 34 36 32 29 32 27 28 26 27 27 28 28 30 28 29
32 33 37 38 34 30 26 23 19 13 14 12 11 12 15 18 20 21 22 24 24 25 26 29 33 33 34 35 37 36 36 36 33 30 29 30 29 28 27 27 28 30 31
30 33 35 32 27 22 19 16 14 14 11 13 16 18 19 20 22 22 22 23 24 25 25 28 31 32 34 36 38 40 41 37 36 33 33 32 28 27 30 30 29 29 30
27 28 28 24 22 21 19 15 12 13 14 17 18 16 19 20 21 21 21 22 22 24 26 27 29 32 36 38 41 40 40 38 38 36 36 32 37 40 36 34 33 33 34
25 25 21 20 18 14 12 13 15 17 13 13 15 17 18 20 20 21 20 18 19 22 24 27 30 33 38 40 39 37 35 37 41 36 38 46 39 42 41 37 33 31 31
22 20 19 15 13 12 12 16 10 8 11 13 15 18 19 21 21 21 22 24 21 20 22 25 31 34 37 36 32 33 33 33 38 43 41 48 41 43 37 34 35 35 33
17 17 17 16 12 8 6 8 11 12 13 14 16 18 20 20 20 20 20 20 22 24 26 29 33 35 34 30 30 31 35 39 38 37 37 44 41 38 39 41 39 31 23
18 13 10 8 3 5 10 12 12 11 11 14 16 16 18 20 20 18 19 21 25 28 29 31 30 26 25 26 28 30 31 31 38 40 38 36 37 43 45 43 35 29 33
11 9 6 6 5 7 7 7 12 14 16 18 18 18 21 23 20 16 19 25 30 32 29 26 29 30 29 27 25 23 25 30 34 35 33 34 41 39 30 36 33 41 37

GFSMA_850_spd_039.txt.gz
Wind_Speed
20 19 17 15 14 14 13 11 10 8 7 7 7 8 9 8 7 6 5 6 6 6 5 5 5 5 6 6 7 8 9 10 9 10 11 12 11 11 12 12 11 12 13
22 20 18 16 15 14 12 11 10 9 9 9 9 9 8 7 7 6 5 5 5 5 4 5 5 4 6 8 10 10 11 12 12 12 12 13 14 13 13 13 13 13 14
25 22 21 19 16 16 14 13 12 11 11 11 10 9 9 7 7 6 5 4 4 4 4 4 5 5 7 8 10 11 13 13 14 14 14 14 15 15 14 14 14 14 14
26 25 23 21 19 19 16 13 13 13 12 12 11 10 9 9 7 6 5 4 4 4 5 5 5 8 6 8 9 11 14 17 17 15 15 16 16 16 16 16 15 14 13
25 26 24 21 22 21 19 15 15 14 14 13 12 11 10 9 8 6 5 5 4 4 5 6 7 7 7 9 11 13 14 16 18 18 18 18 17 16 16 15 15 14 14
26 24 24 22 24 23 22 19 18 17 15 15 13 11 10 10 8 7 7 6 6 6 7 8 8 8 10 11 13 15 17 17 18 18 17 17 16 15 14 14 15 16 16
29 26 24 25 26 26 24 21 21 19 18 17 14 13 11 11 10 9 9 8 8 9 9 11 11 12 14 15 17 19 19 18 18 17 16 14 14 14 14 16 17 18 18
32 30 28 27 28 28 27 26 24 22 21 19 16 14 8 12 14 13 11 11 11 12 11 13 13 15 18 19 22 22 22 23 20 17 15 14 14 15 17 18 20 20 20
35 32 31 31 30 29 31 29 28 24 23 22 20 15 7 8 10 14 15 15 14 14 14 15 16 19 22 24 24 24 24 23 20 19 15 16 16 18 19 22 22 23 23
37 35 36 33 33 31 34 32 30 27 25 24 22 21 20 13 9 7 13 15 16 16 16 17 18 23 25 25 25 24 23 22 21 17 16 18 19 20 23 24 26 26 27
40 39 39 35 35 37 35 35 32 30 28 26 25 23 21 18 16 15 9 12 16 17 17 19 23 24 25 24 24 23 25 24 23 24 22 22 24 25 26 28 29 28 28
42 43 43 40 38 38 38 36 34 33 30 27 27 25 22 19 17 16 15 15 15 17 19 20 23 24 24 22 24 24 23 25 29 30 30 26 26 27 28 28 28 28 28
46 44 46 46 42 40 40 38 37 35 32 30 28 25 22 19 18 17 16 16 17 19 19 20 21 21 21 22 22 23 31 31 32 33 32 28 28 28 28 28 28 28 29
47 46 46 45 45 43 42 39 39 36 33 29 26 22 19 18 18 17 17 16 19 21 23 22 23 24 22 22 29 32 34 33 33 33 33 32 29 29 27 27 27 28 29
45 44 45 43 43 44 42 39 38 35 31 29 26 22 19 17 17 17 16 18 18 18 24 23 20 22 27 30 33 35 35 34 33 32 31 30 29 27 26 28 29 29 29
42 43 42 41 43 40 37 37 37 33 28 26 24 22 17 16 16 17 18 18 20 22 23 24 26 27 29 32 33 34 34 33 33 30 28 27 27 28 27 28 28 27 28
43 41 39 37 36 34 36 37 34 31 29 26 21 17 18 14 16 16 19 20 21 23 28 30 30 29 31 31 33 33 33 33 33 30 30 29 28 26 26 27 28 29 29
37 33 31 30 32 34 36 35 33 28 25 23 22 16 19 14 14 18 19 21 23 24 27 31 32 32 32 32 33 34 33 33 33 31 28 27 26 26 27 27 28 28 28
27 28 27 30 33 33 33 29 26 24 21 15 7 15 14 16 18 20 21 22 24 24 26 29 32 32 34 33 35 36 37 38 35 32 28 27 27 26 25 25 25 28 30
26 26 25 26 28 29 26 24 23 18 13 11 11 15 19 20 20 18 22 23 24 25 25 28 31 32 33 35 35 39 43 39 38 31 29 28 27 24 29 29 29 29 31
23 22 23 24 27 27 24 22 20 17 11 12 15 19 20 19 18 20 22 23 23 24 25 28 30 32 35 36 37 40 42 40 36 34 32 32 36 35 32 32 33 32 31
19 18 21 24 22 19 17 15 10 9 10 14 15 13 15 18 20 20 22 22 21 21 24 27 29 31 35 37 39 38 35 35 39 35 39 44 39 39 37 35 32 30 31
18 18 17 16 15 14 13 11 7 10 8 9 12 14 16 19 22 21 21 21 21 20 20 23 29 32 36 36 34 33 33 32 34 42 41 47 41 42 36 33 32 32 31
17 17 18 18 15 12 8 6 3 3 7 10 13 15 18 19 20 20 20 20 20 21 24 27 31 34 33 30 30 32 32 39 42 38 33 44 42 41 38 37 35 30 25
19 17 14 9 5 6 1 3 4 6 7 10 14 16 18 20 21 19 19 20 23 27 28 29 28 26 27 26 27 32 33 34 38 38 35 35 39 42 44 42 35 30 33
13 11 10 7 5 2 1 4 6 9 12 15 17 18 20 22 21 15 17 23 28 30 26 25 28 28 26 25 25 25 27 29 32 35 31 33 39 38 31 38 34 40 38

GFSMA_850_spd_042.txt.gz
Wind_Speed
19 18 17 16 15 14 12 11 10 9 8 7 7 8 8 8 6 6 6 6 6 6 5 3 3 3 3 4 5 6 6 6 7 7 9 10 10 10 11 11 11 12 12
22 20 19 18 17 15 14 13 12 11 9 9 9 9 9 8 7 6 6 6 5 5 5 4 3 3 4 6 7 7 8 9 9 10 11 12 12 12 12 12 13 13 13
25 23 21 20 18 16 16 15 14 13 12 11 10 10 10 8 7 6 6 5 5 5 5 4 4 4 5 7 8 8 10 10 12 12 13 13 13 13 14 14 14 14 14
27 27 25 23 20 19 18 17 15 14 14 12 12 11 11 10 8 7 7 6 6 6 6 6 5 5 6 6 6 8 11 13 15 14 14 15 15 15 15 14 13 13 12
28 30 28 25 23 23 22 20 17 15 15 14 13 12 12 11 10 9 8 8 8 7 6 6 7 7 6 7 9 10 12 14 16 18 18 17 16 15 13 12 12 13 13
28 30 29 27 27 26 25 24 21 18 17 16 15 14 13 13 12 11 11 10 9 9 8 9 8 8 8 10 11 13 15 15 17 18 17 17 16 15 12 11 12 14 14
28 30 29 29 31 30 28 25 25 22 20 19 17 16 15 15 14 13 13 12 12 12 11 11 11 11 12 13 14 16 18 17 17 18 16 15 14 14 13 13 14 15 16
31 32 31 31 32 32 30 30 28 25 23 22 19 17 11 16 18 17 16 15 15 15 14 14 14 14 15 17 18 20 20 20 19 18 16 14 14 13 14 15 17 18 19
35 33 34 35 32 33 33 32 31 29 26 24 22 18 8 10 13 18 20 19 17 17 16 16 16 17 19 21 23 22 23 22 20 19 17 15 15 16 18 19 20 21 23
37 35 35 36 35 36 36 34 34 33 29 28 25 26 26 17 9 8 18 20 19 19 18 18 19 20 22 24 24 24 24 23 21 21 20 17 18 19 21 23 24 24 26
42 39 37 37 37 38 38 36 37 36 34 29 31 29 28 27 24 20 12 16 19 20 20 20 21 22 24 24 25 24 24 24 24 23 24 26 24 24 24 25 27 27 26
47 43 40 38 38 37 39 39 39 38 36 32 34 32 30 29 28 25 22 20 17 18 19 21 23 24 24 24 23 24 25 25 25 31 31 30 26 25 26 27 27 27 28
43 42 44 42 40 39 39 40 42 41 38 35 35 33 31 27 25 23 21 20 18 18 19 19 21 23 23 22 25 24 25 30 32 32 32 32 30 29 28 27 27 27 27
36 39 43 43 41 40 40 41 41 43 38 37 37 33 29 28 25 21 17 18 16 18 19 20 19 20 22 20 22 28 32 32 33 33 32 31 32 32 31 27 26 26 26
38 38 40 42 45 43 42 44 43 42 39 38 36 33 32 25 23 21 18 18 17 16 17 18 16 19 20 26 30 33 34 34 34 33 32 31 31 30 27 26 27 27 28
35 37 40 41 43 44 43 43 40 37 38 37 34 32 25 26 20 16 14 14 15 17 19 18 22 25 27 29 31 33 33 34 33 33 32 31 31 29 27 27 27 27 28
32 34 36 36 36 39 40 37 34 35 36 35 31 27 24 20 19 14 14 14 16 20 23 25 26 26 28 29 31 31 32 33 33 32 32 32 32 28 26 27 27 28 28
28 30 31 29 28 30 31 30 32 33 33 31 28 25 23 20 20 18 14 15 20 22 24 30 28 29 30 29 32 34 32 33 34 33 31 29 27 26 26 26 26 27 28
20 22 23 23 23 24 27 29 29 29 27 25 24 23 20 16 13 14 18 18 20 18 23 27 30 30 31 32 33 35 35 36 36 34 29 26 26 24 24 24 24 26 28
17 18 19 21 22 23 25 26 27 26 23 20 19 15 11 11 13 14 18 17 17 22 23 25 28 30 31 32 34 36 40 38 39 32 28 25 25 26 27 26 26 27 29
15 17 19 20 20 22 23 25 21 19 16 13 12 10 10 13 15 14 15 16 19 21 23 25 28 30 33 33 34 36 39 39 35 34 31 30 34 34 29 27 28 28 29
14 15 16 17 19 21 19 14 13 13 12 11 9 10 10 11 11 13 16 17 19 21 24 26 26 28 32 33 35 35 33 35 38 34 36 40 37 37 33 32 29 28 29
11 13 15 15 16 15 13 13 13 10 8 8 8 7 8 12 13 16 17 18 19 19 18 20 26 28 31 32 29 30 32 33 36 39 39 46 38 39 35 34 32 31 30
15 17 16 16 14 13 9 9 5 3 3 3 7 8 10 13 14 16 18 18 18 19 20 23 26 28 28 25 26 30 33 37 38 37 33 43 40 41 39 39 34 28 24
18 18 17 14 10 9 6 2 2 0 2 5 9 10 13 14 16 16 16 17 19 21 23 24 23 22 23 23 24 27 29 31 37 37 34 30 38 43 45 42 32 32 35
17 14 12 9 8 6 4 3 0 4 7 8 11 13 15 16 15 11 13 18 24 25 22 22 21 19 18 19 21 22 26 29 31 34 27 30 38 38 31 38 39 43 38

GFSMA_850_spd_045.txt.gz
Wind_Speed
18 17 17 17 16 15 14 12 11 10 8 7 7 7 7 7 7 7 7 8 7 7 5 3 2 2 2 3 4 4 4 4 5 6 7 7 8 8 9 9 9 10 10
21 20 18 19 18 16 15 14 13 12 10 9 9 9 8 8 8 8 7 8 7 7 6 5 3 3 4 5 5 6 6 6 6 7 9 9 10 10 10 11 11 11 11
23 22 21 21 20 18 18 18 16 15 13 11 11 10 10 9 9 9 9 9 9 8 8 7 5 5 5 6 6 7 7 8 9 10 10 10 11 11 12 12 13 13 13
25 24 25 24 22 22 20 20 18 17 15 14 12 12 11 11 11 10 10 10 10 9 9 8 8 7 7 6 6 7 9 11 13 12 12 12 12 12 12 13 13 14 14
27 27 28 26 25 25 24 22 22 20 17 15 14 14 13 13 12 12 12 12 12 11 11 10 10 8 8 7 7 8 10 12 13 15 15 15 14 14 13 12 12 11 12
28 29 29 29 29 29 28 26 25 23 20 18 17 16 16 15 14 14 14 14 14 13 13 12 11 10 9 9 9 10 12 14 15 14 15 16 15 14 13 11 11 12 12
29 28 28 30 32 34 32 29 28 28 25 22 20 19 18 17 17 17 17 17 17 16 15 14 13 12 12 12 12 13 15 16 15 16 16 15 14 13 13 12 12 14 15
31 32 30 31 33 35 36 34 32 32 29 27 24 19 13 19 21 21 20 20 20 19 19 17 16 15 15 14 15 16 18 18 17 16 16 15 14 13 14 14 15 16 17
38 35 33 32 33 37 38 36 35 35 33 31 29 21 9 12 13 21 24 24 23 22 21 20 18 18 18 18 18 19 20 20 18 17 16 14 14 15 16 17 18 19 21
41 41 36 35 35 35 39 38 38 37 36 36 33 29 28 23 13 10 19 24 26 26 23 23 21 21 21 20 20 22 23 22 21 20 20 20 18 18 20 22 22 23 24
41 42 40 38 36 36 38 38 40 41 40 41 39 34 35 32 29 27 22 21 25 27 26 24 23 23 22 23 22 23 23 22 22 22 22 24 26 24 22 23 24 25 26
39 40 41 43 40 37 38 39 41 43 42 42 41 39 36 34 33 33 27 23 21 23 26 25 25 24 24 23 24 24 24 24 24 25 28 29 29 26 24 24 26 27 27
34 35 35 41 44 42 40 41 41 43 43 43 45 40 38 36 33 30 28 26 19 20 22 25 25 24 23 22 22 24 25 25 28 31 30 31 31 32 32 31 27 26 26
33 32 33 35 38 39 42 42 41 40 42 42 43 41 38 36 34 31 28 24 21 22 24 23 18 19 18 19 20 22 26 31 32 32 32 32 32 31 31 31 28 27 26
32 33 36 37 35 37 41 41 42 41 39 40 41 41 40 37 35 34 30 28 23 22 21 19 16 15 15 17 21 28 31 32 33 33 33 33 33 32 31 30 28 28 28
29 32 32 34 35 36 39 42 42 41 39 36 39 41 39 38 36 35 29 29 27 23 17 13 11 14 21 25 25 28 32 33 33 32 32 31 32 31 30 29 27 28 28
27 29 30 29 30 32 32 36 38 36 35 35 37 38 37 34 33 27 24 23 23 22 24 24 22 24 25 23 25 29 31 32 33 32 32 31 32 32 28 26 27 28 28
23 23 23 23 23 25 26 28 30 31 31 33 36 35 31 29 24 21 21 19 19 18 20 21 23 21 20 24 27 30 30 30 32 33 32 31 30 27 26 25 25 26 27
16 16 17 16 17 19 21 23 25 27 28 28 28 25 23 20 18 17 16 15 17 17 19 21 22 22 24 24 28 30 31 31 33 33 31 27 25 23 22 24 24 25 28
12 12 12 14 16 18 19 20 23 24 25 24 21 17 17 16 14 14 14 15 17 17 17 20 22 23 24 27 29 31 32 30 33 32 28 22 22 23 26 25 25 25 27
11 12 12 15 17 17 17 19 20 20 17 15 14 14 14 13 12 11 14 14 15 15 15 19 23 24 25 25 26 25 28 28 27 30 26 26 29 30 28 25 24 24 27
8 10 12 13 14 16 17 14 12 12 12 12 12 11 9 9 11 10 9 10 14 15 16 20 23 24 23 24 24 24 24 23 27 24 29 32 29 33 30 28 27 27 28
11 13 14 15 15 14 13 13 12 10 9 8 8 9 7 5 6 8 9 11 14 15 16 18 22 21 21 22 26 25 26 25 27 29 33 38 33 35 29 29 28 27 27
17 16 17 16 16 15 11 10 8 6 6 5 3 1 4 6 6 11 13 13 15 16 16 17 20 22 22 19 20 24 26 26 28 30 28 32 32 32 34 35 33 25 21
18 18 16 14 11 13 10 9 6 4 3 1 2 4 6 9 11 12 11 13 16 16 17 19 19 17 17 17 17 21 23 24 29 31 28 24 34 34 39 37 28 27 30
17 16 15 12 10 8 8 7 5 2 2 4 6 8 10 11 11 9 10 16 18 17 18 16 13 12 12 13 15 18 21 23 25 28 20 28 34 28 26 31 32 37 34

GFSMA_850_spd_051.txt.gz
Wind_Speed
14 13 13 12 12 13 12 12 12 12 12 11 11 9 8 6 6 6 12 11 10 9 9 8 7 6 5 4 3 3 3 3 3 3 3 4 5 5 6 6 7 7 7
17 16 15 15 14 15 15 16 15 14 12 12 12 11 9 8 8 8 8 14 12 11 10 9 8 7 6 4 4 3 3 2 2 3 4 5 5 5 6 7 8 8 9
21 19 17 18 17 17 16 16 16 16 15 15 14 13 13 11 11 10 11 11 12 12 12 11 9 9 8 7 6 5 4 3 3 4 5 6 6 6 7 8 8 9 10
22 22 22 21 19 19 19 18 18 19 18 18 16 16 15 15 13 12 13 13 14 12 12 13 12 11 11 9 9 8 6 5 5 6 6 7 7 8 8 9 10 10 10
22 24 24 23 21 22 24 22 22 21 21 21 18 18 18 17 16 15 16 15 16 14 14 13 14 14 12 11 11 10 9 8 8 9 9 9 10 10 10 10 10 11 10
26 27 27 24 23 25 28 26 25 25 24 22 19 19 20 19 18 18 18 17 18 18 18 19 15 16 15 14 14 13 12 11 10 11 11 11 12 12 12 11 11 11 10
27 28 30 27 26 29 30 28 27 26 27 23 21 22 21 22 22 22 21 20 21 20 20 21 19 18 17 17 17 16 15 14 13 13 13 12 12 13 13 12 11 12 11
35 34 34 33 32 32 32 31 31 30 30 29 30 18 11 19 26 27 25 24 24 24 22 22 22 21 21 20 21 20 18 17 16 15 14 14 15 14 13 13 13 14 15
41 36 39 37 36 36 36 36 36 36 35 36 35 24 11 13 14 18 27 28 26 26 25 24 24 24 24 25 25 21 22 20 19 18 17 17 17 18 18 16 16 17 19
37 38 39 38 38 37 40 40 39 41 38 39 37 38 29 16 12 11 18 26 29 28 28 26 26 27 28 26 27 27 26 22 21 20 19 19 19 19 19 19 19 20 20
33 37 37 37 40 40 42 41 40 42 44 39 43 40 40 38 30 20 15 19 24 28 29 29 29 30 29 29 30 28 28 25 24 24 23 22 21 21 22 23 22 21 22
29 31 32 32 37 40 40 42 44 45 45 44 40 44 44 44 47 41 32 22 23 24 26 31 32 30 32 30 30 30 27 25 26 27 25 23 23 24 27 28 30 31 31
30 33 34 33 33 33 37 38 42 44 46 46 44 45 45 46 42 38 37 32 30 30 25 30 33 33 32 30 30 29 30 29 29 28 25 24 25 29 30 32 33 34 33
26 24 28 32 32 31 30 34 40 39 43 46 45 43 46 48 47 46 44 39 37 33 31 29 30 33 34 31 33 34 34 32 33 27 28 29 33 34 34 33 34 34 35
20 22 24 25 30 29 28 30 35 38 38 40 40 39 42 46 47 45 44 41 39 28 28 26 21 27 31 33 33 33 31 31 31 30 32 36 36 34 34 35 35 34 34
16 17 18 26 25 28 26 26 30 34 36 37 35 34 36 41 43 43 38 37 37 33 27 20 26 27 26 30 31 31 31 34 34 35 36 36 34 32 33 34 35 34 33
19 21 22 24 23 25 26 23 23 26 28 31 31 31 32 33 35 35 34 34 30 28 22 18 20 23 27 29 28 29 30 32 35 34 33 31 32 33 33 33 33 31 30
21 21 22 21 21 21 19 18 19 20 23 25 27 28 28 29 28 27 26 26 25 17 19 18 24 22 26 26 26 27 28 28 29 28 29 30 30 30 29 29 28 28 27
18 18 19 18 16 15 14 16 16 17 20 22 23 23 22 21 20 19 17 15 15 17 18 17 18 20 20 21 22 22 23 23 23 24 24 25 26 26 26 25 25 25 25
12 10 10 11 13 16 15 13 13 14 16 18 16 13 11 9 9 9 11 12 13 13 14 14 14 15 16 18 17 16 16 15 20 24 25 26 22 21 20 21 22 23 24
9 8 8 10 8 8 11 10 8 7 8 8 7 6 6 7 8 8 10 10 11 11 11 12 11 12 11 10 11 13 19 21 23 24 23 20 18 21 22 21 23 24 23
7 6 5 7 6 5 7 5 4 5 6 7 7 7 7 8 9 9 10 8 9 10 10 10 10 10 11 11 10 13 18 22 26 16 14 22 20 23 23 23 23 23 24
10 10 11 11 10 11 9 10 9 8 7 8 7 5 4 4 3 5 6 7 8 9 11 11 11 10 10 12 17 21 22 17 21 21 19 24 21 25 22 23 23 24 25
14 14 13 11 10 11 8 7 6 5 4 4 3 1 3 2 3 5 6 8 10 10 10 10 11 13 14 15 14 15 17 20 21 19 15 26 22 24 24 27 27 22 17
15 14 13 11 10 10 8 8 5 5 6 5 3 2 3 5 6 7 8 10 10 8 11 13 14 15 16 16 16 17 16 17 20 21 17 20 22 26 31 29 23 23 28
13 12 11 10 10 9 8 6 5 5 5 5 5 6 6 8 8 9 8 9 10 9 11 13 12 12 11 11 11 13 15 17 18 20 9 21 26 28 25 33 34 36 34

GFSMA_850_spd_054.txt.gz
Wind_Speed
17 15 11 12 11 13 8 12 10 10 11 12 12 11 12 9 10 14 13 13 12 11 10 8 6 6 4 3 3 2 1 1 1 0 1 2 2 3 3 4 4 4 4
20 19 15 15 16 13 14 13 14 13 18 15 15 15 14 12 11 15 15 15 13 13 11 10 8 7 6 5 5 4 3 2 1 1 2 3 3 4 4 4 5 5 6
23 22 21 21 20 20 18 20 21 21 21 18 18 18 16 15 15 15 17 17 14 12 13 12 10 9 8 7 6 5 5 4 3 3 3 4 4 4 5 6 6 7 7
25 26 25 24 23 23 23 22 24 24 23 22 22 20 20 19 18 17 17 19 18 15 13 14 12 12 11 10 9 8 7 6 5 5 4 4 4 5 5 6 7 7 7
23 23 28 27 26 27 26 27 25 26 27 27 25 22 22 22 20 19 20 20 21 19 15 14 14 14 14 13 13 11 10 9 8 7 6 5 6 6 6 6 7 8 8
26 27 27 28 29 27 30 31 31 29 30 28 26 23 24 24 23 22 22 22 22 22 21 18 16 16 17 17 17 15 14 12 11 10 9 9 9 8 8 8 9 9 8
31 31 33 33 32 31 32 33 33 32 32 29 23 25 26 29 27 27 25 24 25 24 23 24 21 19 19 20 20 19 17 15 13 12 12 12 12 12 12 12 11 10 9
30 32 34 35 35 35 35 36 37 35 34 32 31 26 25 30 32 31 29 28 28 27 25 26 26 23 22 22 23 22 20 18 17 16 15 14 14 14 13 13 13 13 11
36 31 33 36 37 37 37 38 39 39 38 37 36 30 13 18 18 25 31 33 32 32 30 28 28 27 26 25 25 24 23 23 21 20 19 17 17 17 17 17 17 16 16
31 30 35 38 37 38 37 37 39 42 42 41 37 40 36 18 14 13 22 27 33 35 34 31 30 29 29 30 29 27 26 26 23 23 22 22 20 19 19 19 18 16 16
30 31 33 30 37 36 38 37 37 39 42 46 45 43 42 39 24 26 25 25 30 34 35 34 32 31 32 33 32 30 29 27 25 24 24 23 22 23 23 23 23 22 23
26 26 29 31 28 31 36 39 39 40 41 44 48 46 45 43 47 35 28 27 26 27 31 34 33 32 32 33 31 32 31 31 28 25 25 25 24 23 24 26 26 28 28
22 26 30 31 31 31 32 34 37 41 43 45 45 51 45 44 41 39 44 36 27 30 28 36 37 33 32 36 35 34 32 31 29 27 27 26 25 25 26 27 30 32 33
21 21 22 25 28 25 28 30 32 34 37 41 45 44 47 43 40 39 40 38 38 39 37 33 39 39 36 43 31 34 33 30 31 29 27 28 26 27 28 32 33 34 32
19 23 23 22 24 24 26 24 26 30 32 35 38 41 44 44 39 40 39 39 38 31 32 33 28 33 35 34 36 35 34 34 31 36 31 28 29 29 32 34 34 33 33
17 19 21 23 22 22 24 23 23 25 29 31 33 36 37 40 41 41 40 40 40 38 27 22 26 25 23 29 33 28 29 33 35 31 29 29 30 30 31 32 31 32 32
19 18 17 19 22 26 22 20 21 21 22 25 27 30 30 34 35 37 37 37 34 30 24 20 21 23 20 21 23 26 29 28 27 26 27 28 28 29 30 31 30 29 29
16 18 19 19 19 18 20 20 19 17 18 19 21 24 24 27 30 28 26 23 20 17 17 20 18 20 18 19 22 23 22 24 24 25 23 25 28 29 25 24 25 25 24
14 13 15 14 13 13 11 13 15 14 13 14 16 19 18 21 22 19 15 12 10 10 12 13 15 14 15 17 18 18 19 21 22 21 22 20 22 23 24 23 22 21 20
9 10 11 11 11 12 12 10 11 13 10 11 12 13 13 12 9 7 8 9 9 9 8 8 8 8 10 11 14 15 15 15 16 17 21 20 22 21 18 17 17 19 20
8 8 8 9 9 10 7 9 8 4 7 5 5 6 4 4 5 6 6 7 8 8 8 8 9 10 10 10 10 11 14 17 18 19 22 17 17 15 16 16 18 18 18
9 10 9 8 8 11 10 7 3 2 4 4 5 5 3 3 4 5 5 6 7 8 9 9 9 8 8 9 10 14 17 19 23 19 13 17 16 15 13 14 14 14 17
14 13 13 13 14 16 14 13 12 9 7 6 4 3 3 0 2 4 6 7 7 6 6 9 10 9 9 11 14 17 19 22 21 16 17 21 14 15 12 14 15 18 18
15 15 14 14 12 14 13 12 10 8 6 3 3 2 1 1 3 4 5 6 7 7 7 9 11 11 13 15 17 17 17 18 17 15 13 23 17 16 17 17 17 13 13
15 14 13 12 12 11 9 8 8 7 6 4 4 4 4 5 6 7 7 8 8 7 9 11 10 11 14 15 15 15 14 15 17 16 13 16 17 24 23 20 13 19 23
13 12 10 10 10 10 9 7 7 8 8 8 8 7 7 8 9 10 10 10 11 11 11 12 12 11 9 8 8 10 11 14 15 17 6 14 21 24 22 22 31 30 27

GFSMA_850_spd_057.txt.gz
Wind_Speed
13 12 12 11 12 12 14 13 13 11 14 14 12 12 12 10 14 15 14 15 13 12 12 10 8 7 7 6 6 5 5 4 4 4 3 2 2 1 1 1 1 0 1
15 16 17 15 13 13 12 16 12 12 14 15 14 17 16 14 15 18 17 16 16 14 14 13 10 9 9 9 8 8 7 6 6 5 4 3 2 1 1 0 0 0 1
18 20 21 20 18 16 16 15 15 15 18 18 20 20 19 19 18 18 19 19 18 16 15 15 13 11 11 10 11 10 9 8 7 6 5 4 3 3 2 2 2 2 2
20 24 25 24 22 21 22 21 20 21 22 25 26 23 21 21 21 21 22 22 21 19 17 17 16 14 14 13 13 12 11 10 9 8 7 6 5 4 4 4 3 4 4
22 21 23 25 26 26 27 27 27 27 29 31 30 27 25 24 24 25 25 25 24 22 20 19 18 17 16 16 16 15 13 13 11 10 9 8 7 6 5 5 4 5 5
27 27 26 25 27 29 31 32 32 31 31 31 32 31 30 29 28 28 29 28 27 26 24 22 21 20 19 19 18 19 16 16 14 13 12 11 9 8 7 6 6 6 6
28 30 31 30 29 31 32 32 35 35 36 33 32 32 33 31 32 32 30 31 31 29 28 27 24 23 22 21 22 22 21 19 17 16 15 13 12 11 10 10 10 8 8
32 33 33 34 33 35 36 35 34 39 39 38 35 35 28 34 37 38 36 35 35 34 32 30 30 27 26 24 24 25 25 22 20 19 17 16 15 15 14 13 12 12 12
27 29 36 33 35 34 36 39 38 40 41 41 42 33 15 22 25 33 39 40 39 37 37 35 33 32 29 28 26 28 28 25 25 22 20 19 18 17 16 15 16 16 15
23 23 22 26 35 37 38 38 36 42 42 47 43 44 42 29 18 13 25 30 37 39 39 38 36 34 33 31 30 29 27 26 26 25 23 21 21 18 17 18 18 17 16
20 22 24 25 25 26 29 35 36 39 41 40 46 44 46 47 38 29 29 30 29 34 38 37 37 35 34 34 32 30 27 26 26 25 23 21 22 20 21 20 18 18 20
30 24 23 26 26 25 24 26 31 36 38 38 42 45 47 47 49 47 37 36 32 30 33 34 36 36 34 31 34 32 30 31 30 25 23 18 20 22 22 22 22 23 22
22 21 20 21 24 28 27 25 27 30 33 37 39 41 44 49 48 48 41 40 37 32 29 34 39 41 37 39 36 36 32 29 31 31 30 28 26 26 26 26 26 25 25
17 22 25 24 25 24 24 24 28 27 27 31 36 39 41 43 46 49 37 38 35 33 34 35 39 42 40 39 41 41 40 37 39 33 32 31 36 35 30 28 27 28 29
18 19 21 25 28 27 26 22 20 26 25 25 30 33 34 35 35 39 42 38 40 30 37 39 37 37 40 43 41 42 37 35 36 31 32 33 34 35 32 29 30 31 29
17 18 19 21 22 22 22 24 25 25 25 24 25 26 28 30 31 32 34 32 36 39 34 26 29 32 31 36 37 37 32 29 31 34 33 32 30 29 28 28 29 27 26
17 17 18 18 18 19 21 25 26 22 22 22 23 23 25 24 24 27 27 28 26 27 31 26 23 21 22 21 25 28 27 29 30 28 25 26 24 25 26 26 26 25 23
14 16 16 16 17 18 18 18 19 17 18 17 17 19 20 19 20 22 25 25 24 22 18 20 18 23 23 21 23 25 24 22 21 20 22 24 23 22 24 22 20 21 22
11 11 11 12 11 10 10 11 10 10 11 13 14 14 14 15 18 20 19 17 14 11 9 13 15 17 17 17 18 18 16 17 18 19 19 19 18 18 20 22 22 19 17
6 6 6 7 8 10 12 10 10 9 10 11 12 13 12 11 12 11 8 6 4 5 7 9 9 10 12 13 14 14 15 16 16 16 15 16 20 21 21 20 16 17 18
5 6 6 7 8 8 7 6 7 6 5 5 5 5 5 5 3 2 2 2 3 3 3 3 5 8 11 12 12 11 12 13 13 16 16 18 19 15 13 14 15 15 15
8 8 9 10 9 12 15 12 10 8 6 4 4 3 2 2 2 2 3 4 5 5 4 5 6 6 6 7 9 10 11 13 15 13 14 16 13 12 10 12 12 11 11
11 11 11 11 12 15 14 13 12 9 8 6 5 3 2 2 3 4 5 5 5 6 6 7 8 8 9 11 11 13 15 17 19 15 16 16 8 6 8 8 9 11 12
11 12 13 13 13 14 12 11 9 7 6 5 5 4 4 5 6 6 7 8 8 8 9 9 10 10 11 12 14 15 16 17 15 11 12 16 9 6 8 10 11 6 6
11 11 11 11 10 11 10 9 8 6 6 6 6 7 7 8 9 11 11 11 10 10 10 10 10 9 11 13 14 14 13 12 13 11 11 14 7 14 14 9 4 7 14
10 9 8 8 8 9 9 9 9 8 8 8 8 8 9 9 10 10 11 10 11 11 10 11 12 12 11 8 7 8 8 10 12 11 2 9 15 17 13 12 15 19 19

GFSMA_850_spd_060.txt.gz
Wind_Speed
11 11 10 9 9 11 13 14 15 15 15 15 15 16 14 15 16 16 16 15 15 15 15 14 13 12 11 9 9 8 7 7 6 6 6 5 5 4 4 4 3 2 2
10 11 12 11 11 12 13 13 14 15 16 15 17 17 18 17 18 18 19 18 18 17 16 16 15 13 12 12 11 10 10 9 8 8 7 6 6 5 5 4 4 3 2
13 14 15 16 15 15 15 16 15 17 19 19 19 20 18 21 22 22 22 22 20 20 18 18 17 16 15 14 13 13 12 11 10 9 8 8 7 6 5 4 4 3 3
16 18 19 20 19 20 20 20 20 20 21 22 24 23 22 23 25 25 25 25 24 23 22 20 19 18 17 17 15 15 14 13 12 11 10 9 8 7 6 6 5 5 4
20 21 22 22 22 24 25 25 25 26 25 26 27 27 28 29 27 26 28 29 28 28 25 23 22 21 19 19 18 17 17 15 15 14 12 11 10 9 8 7 6 6 5
24 26 26 26 25 26 27 28 30 30 31 31 30 31 33 33 31 30 31 31 32 32 30 27 25 24 23 22 21 19 19 18 17 16 14 13 12 11 10 9 8 7 7
30 29 28 30 29 30 29 30 31 33 34 36 36 36 37 37 36 36 35 34 35 35 34 33 30 27 25 24 24 23 21 21 19 18 16 15 13 13 12 12 10 9 8
30 31 31 31 31 34 34 33 33 35 36 37 39 40 35 37 41 41 40 41 39 38 38 37 36 32 28 27 26 26 25 23 21 19 19 17 15 14 14 13 11 10 10
28 27 27 29 29 34 35 34 35 37 38 39 39 35 16 23 29 32 33 36 40 41 41 40 39 37 33 30 28 27 27 28 24 19 18 17 17 17 16 15 13 12 12
30 30 27 23 22 22 25 29 30 33 36 40 40 41 43 45 30 26 26 28 30 39 42 42 41 40 37 34 31 29 28 29 29 24 18 17 17 16 14 13 12 11 11
28 23 23 24 24 22 21 23 24 26 28 31 34 35 38 41 48 43 38 36 39 35 32 38 40 41 41 37 35 31 28 28 28 27 23 17 18 17 14 13 13 13 14
22 26 28 27 24 22 23 23 23 24 25 26 28 31 34 35 39 45 49 50 45 42 43 37 37 39 42 40 37 36 34 35 36 34 32 30 20 19 17 15 14 16 18
18 19 22 20 20 22 23 24 22 21 22 25 28 30 32 33 32 38 41 42 40 37 37 33 37 42 41 42 41 42 37 34 33 35 36 33 34 32 29 30 32 30 22
19 20 19 21 24 25 25 24 24 24 22 24 24 27 28 32 31 30 33 36 34 34 35 41 36 42 43 41 41 42 38 39 41 35 36 35 36 37 37 35 33 33 26
18 19 20 20 20 23 26 26 26 24 24 23 23 27 26 27 27 27 26 28 35 19 19 20 31 36 38 38 40 39 34 37 32 35 33 31 33 35 34 33 30 29 26
16 17 18 19 19 19 20 22 23 23 24 25 29 22 22 23 22 23 24 25 25 27 25 18 22 26 25 24 27 26 28 34 32 32 31 28 28 29 27 24 23 24 25
16 16 16 16 17 18 19 19 21 23 24 26 22 20 19 18 19 20 21 22 21 17 23 25 26 25 23 21 25 26 28 35 33 29 23 22 24 24 21 20 24 27 25
11 12 13 13 13 14 14 15 16 16 16 14 14 14 15 16 16 16 16 16 16 16 17 18 19 20 21 22 22 22 23 22 21 22 21 21 22 20 23 25 23 20 19
8 9 9 9 8 9 10 10 8 9 9 9 10 12 12 14 15 14 14 13 13 12 11 10 11 11 13 14 16 17 18 19 19 19 19 19 20 20 19 20 20 22 20
4 6 5 5 6 7 5 5 5 7 7 8 9 10 11 10 12 13 12 9 8 7 6 7 8 8 10 10 12 13 15 15 17 17 16 14 15 18 20 23 24 24 23
1 1 2 3 5 6 6 6 6 5 4 4 4 5 5 7 9 6 7 6 5 4 5 6 7 9 9 9 10 12 13 13 12 13 13 15 19 20 21 20 19 19 19
4 5 6 8 9 12 12 11 12 9 7 6 4 3 4 4 5 6 6 6 6 5 4 5 6 6 7 10 10 10 12 12 12 12 12 16 16 17 17 17 15 15 15
8 9 9 10 12 12 11 11 11 9 7 6 5 5 5 6 6 7 7 7 6 6 6 5 6 7 8 9 10 12 12 13 15 16 18 18 11 12 13 13 13 14 14
10 11 10 10 11 11 11 11 9 8 8 7 6 6 6 7 9 9 9 8 8 8 8 8 8 8 9 10 12 13 14 15 16 14 14 15 7 9 11 11 14 14 12
9 8 9 9 9 9 9 9 9 9 9 9 9 9 9 9 10 12 10 10 10 9 9 9 8 7 8 9 11 12 11 11 11 7 10 13 10 9 11 11 11 11 10
7 7 6 6 8 9 10 10 10 11 11 11 10 10 10 10 11 12 12 11 11 11 11 11 12 12 11 9 10 11 9 9 10 8 4 8 11 13 8 9 12 14 15

GFSMA_850_spd_063.txt.gz
Wind_Speed
10 11 9 10 8 9 10 12 14 15 15 15 15 16 16 17 18 18 17 16 16 17 17 17 16 14 13 12 11 10 9 8 7 6 6 6 5 5 5 4 3 3 3
9 10 11 12 12 10 9 11 12 15 15 16 17 18 18 19 20 20 20 19 18 19 19 18 18 17 15 14 13 12 11 10 9 9 8 7 7 6 6 5 5 4 3
11 12 12 13 12 13 12 13 15 16 17 18 20 19 19 19 20 20 23 23 22 21 21 20 20 20 18 16 15 14 13 13 12 11 10 9 9 8 7 6 5 5 4
14 15 16 17 14 16 17 18 18 20 21 20 22 22 22 22 23 23 24 26 26 25 24 22 22 21 21 19 17 17 15 15 14 13 13 12 10 10 9 8 8 7 6
18 18 20 19 18 19 21 23 24 24 25 26 26 25 26 26 27 25 27 28 28 29 28 26 25 24 23 22 21 18 18 18 18 17 16 14 13 12 11 10 9 8 7
22 23 23 23 23 24 26 27 28 28 29 30 31 32 31 31 31 32 32 31 31 31 31 31 28 28 26 25 24 21 19 19 20 19 18 17 16 14 13 12 10 10 9
26 28 28 28 28 30 29 29 30 32 32 32 34 37 37 37 37 37 37 37 36 36 35 35 33 32 30 28 26 25 21 21 20 19 19 17 15 14 14 14 12 11 9
30 31 31 30 29 29 30 31 31 33 33 33 35 37 38 36 36 36 35 36 36 38 38 37 37 35 33 32 30 28 27 24 23 21 19 19 17 15 14 13 13 10 7
31 32 32 33 32 32 31 30 30 31 32 32 33 35 20 22 24 22 23 26 29 31 34 36 37 37 36 36 34 32 30 29 27 24 20 17 17 16 15 12 12 13 11
30 31 31 31 30 30 29 26 21 22 23 26 27 29 33 37 36 31 26 24 23 29 29 30 33 35 36 37 40 38 33 30 30 26 22 19 16 15 14 14 14 12 10
32 34 34 32 29 29 27 25 22 21 22 23 24 23 24 25 27 33 37 28 26 27 31 30 28 30 34 39 39 41 37 34 30 27 24 21 19 17 18 19 18 14 12
19 20 22 25 29 29 26 25 24 22 21 21 22 21 22 22 24 25 31 35 36 34 33 32 34 38 38 40 38 39 39 38 35 33 29 27 28 31 29 26 24 25 24
18 17 17 17 20 20 22 24 22 22 21 21 20 20 19 19 21 23 25 30 31 34 32 30 29 29 32 32 37 40 36 36 39 38 38 38 34 33 33 32 34 28 28
19 20 19 18 17 17 19 18 18 18 20 22 23 23 21 20 20 24 25 23 26 28 29 29 28 25 28 32 34 34 36 34 39 37 33 30 28 29 31 37 34 34 33
17 17 18 18 18 18 18 18 18 19 19 17 16 19 21 23 26 24 23 19 25 23 27 26 25 23 21 22 23 30 28 31 33 32 34 30 28 28 30 33 33 30 24
15 16 16 17 17 18 17 17 18 18 19 19 21 23 23 23 20 16 18 16 18 20 24 23 25 26 27 25 23 22 14 20 23 25 24 26 26 25 28 28 27 24 21
15 14 14 15 15 15 15 16 17 17 18 20 20 20 19 14 14 15 15 15 15 15 18 21 25 25 26 24 21 17 14 17 24 25 22 23 24 23 21 22 22 20 23
12 11 12 13 12 12 12 12 13 13 13 12 11 8 8 10 12 12 13 13 14 13 16 18 18 20 19 18 17 16 16 18 23 24 27 28 23 23 23 21 23 25 26
8 8 9 7 8 8 9 9 6 6 6 6 6 6 7 9 11 11 12 13 13 13 13 14 13 12 11 11 12 13 15 17 18 20 20 19 19 20 21 20 19 21 24
6 6 6 5 5 5 2 2 2 3 4 3 3 5 4 5 6 7 8 9 8 8 9 11 9 9 11 10 10 10 10 12 14 15 16 15 16 17 19 21 21 21 22
4 3 3 2 4 5 7 9 9 10 8 5 4 4 5 6 7 7 7 6 6 6 7 8 9 8 9 9 8 9 9 11 12 12 11 13 15 17 20 22 23 23 21
2 1 4 6 8 12 12 12 12 10 9 8 7 7 7 8 8 9 8 8 7 6 7 8 9 9 9 9 10 10 11 12 11 12 13 15 17 19 20 21 21 20 17
6 7 9 10 10 11 11 10 10 8 7 7 7 8 8 8 9 9 10 10 10 10 9 9 9 10 10 11 13 13 14 14 15 16 20 22 18 19 18 17 16 15 14
9 9 9 8 8 8 8 8 7 8 8 8 8 8 9 10 12 11 11 11 11 11 11 10 10 10 11 13 14 16 16 18 19 18 19 21 12 11 12 13 14 14 15
8 7 6 6 6 8 8 9 9 10 9 9 9 10 11 11 12 13 12 12 12 11 11 10 10 9 10 10 12 12 10 11 12 9 9 13 12 11 11 13 16 17 18
6 5 5 5 7 8 9 9 10 11 11 11 11 11 11 12 13 14 13 12 11 11 11 11 12 13 13 11 11 12 11 10 10 8 7 9 12 12 9 12 15 16 16

GFSMA_850_spd_066.txt.gz
Wind_Speed
8 9 8 7 7 8 8 8 9 11 12 13 14 14 15 16 17 17 17 16 16 16 16 16 17 16 16 15 14 11 10 9 8 7 7 6 6 6 5 4 4 3 3
7 8 8 9 9 9 8 8 9 10 12 14 14 15 15 17 18 19 18 18 18 18 18 18 18 18 17 16 16 14 12 11 10 10 9 9 8 8 7 6 5 5 4
9 9 10 10 9 10 11 11 11 13 14 15 17 16 17 16 18 19 19 19 19 19 20 19 20 20 19 19 18 17 14 14 13 12 11 11 10 10 9 9 7 7 6
12 13 13 12 11 12 14 15 15 17 18 18 20 20 20 20 20 20 21 22 21 20 21 21 21 22 22 21 20 18 18 15 15 15 14 13 13 12 12 10 9 8 8
16 17 17 16 14 15 17 18 20 21 23 23 23 24 24 25 25 24 24 25 25 24 24 24 24 23 24 23 22 19 16 18 17 17 17 16 15 15 14 13 12 11 11
20 21 22 22 22 21 22 23 25 25 26 28 29 30 29 29 29 29 29 29 29 29 29 28 27 26 25 25 24 22 19 20 23 20 20 19 18 17 16 15 14 13 12
23 24 24 25 26 27 26 25 25 27 28 28 31 34 34 33 32 30 28 29 31 32 31 31 31 29 27 26 27 25 24 20 23 26 23 21 20 18 17 15 14 13 12
27 28 29 29 29 29 28 27 28 29 29 29 30 32 32 28 31 25 22 20 18 22 25 28 32 32 30 28 28 29 28 26 23 26 26 21 20 19 17 14 13 12 10
30 30 30 31 30 31 30 30 30 28 27 25 26 26 19 18 24 26 25 24 23 24 25 27 28 30 30 28 30 31 31 30 27 24 26 23 19 18 16 15 14 12 12
25 26 27 27 28 29 29 28 27 26 23 22 22 23 24 26 26 20 17 22 23 24 26 27 25 24 22 24 26 30 31 32 31 30 28 25 24 19 18 16 16 16 16
28 29 29 30 29 29 28 27 27 26 24 22 21 20 20 21 22 24 25 22 22 22 21 21 23 23 22 27 28 31 33 34 36 36 31 29 21 22 21 18 20 21 19
16 17 19 20 21 22 24 27 26 25 23 22 20 20 20 20 18 20 22 22 22 19 21 20 23 25 26 27 24 23 26 33 34 36 38 29 32 25 23 28 28 25 24
18 18 19 19 19 19 20 20 21 23 24 22 20 20 19 18 18 19 22 22 24 23 21 18 19 21 21 20 19 21 24 25 30 34 36 32 34 43 32 29 32 34 30
18 19 19 20 19 19 18 18 19 18 19 20 20 19 19 19 20 20 18 19 23 21 18 19 20 17 19 19 18 21 19 19 25 30 35 34 35 32 37 37 34 30 29
14 15 16 16 17 16 16 16 16 17 18 19 18 18 19 20 21 22 24 23 22 19 19 15 16 19 18 22 22 24 22 18 18 20 25 29 25 30 29 29 26 27 31
13 14 15 15 16 16 15 15 14 15 16 16 16 17 18 19 19 18 17 14 17 17 18 18 20 21 22 22 22 21 20 15 12 11 17 19 23 20 20 22 24 26 28
14 14 13 13 14 14 14 13 13 13 14 13 14 13 12 11 9 9 9 11 11 12 15 17 18 21 22 23 17 17 14 11 8 10 18 20 21 24 27 25 28 26 22
12 11 11 12 12 12 12 11 11 11 10 10 9 8 5 5 6 7 8 9 10 12 13 15 17 19 18 17 15 12 11 11 10 17 19 20 22 24 25 22 20 19 22
9 8 8 9 8 7 7 7 6 6 4 2 2 3 4 4 4 5 6 8 9 10 11 13 14 16 15 11 11 11 11 11 11 13 17 20 23 26 26 26 25 23 23
7 7 7 6 4 3 0 1 2 2 4 2 1 1 1 1 1 2 4 6 6 7 8 10 10 11 12 11 10 9 9 8 9 11 13 15 18 19 20 21 21 22 22
6 4 2 0 3 5 7 8 8 8 7 5 3 2 1 3 4 5 5 6 7 8 9 10 10 9 10 11 10 10 9 10 10 10 10 11 12 13 15 17 18 20 22
5 4 4 5 8 10 10 9 9 7 7 5 4 4 5 7 8 8 8 9 9 9 9 9 10 11 11 10 11 11 10 10 9 10 11 11 14 15 17 18 20 20 20
7 7 8 9 9 9 9 8 7 7 6 7 7 7 7 8 9 9 10 11 11 12 11 11 11 11 11 12 13 13 13 14 14 15 18 18 17 16 17 17 16 16 14
10 10 8 8 7 7 7 6 6 7 7 7 7 7 8 10 10 9 11 11 11 11 10 10 10 11 12 13 14 15 15 16 17 16 16 15 12 9 9 11 11 11 10
10 8 6 6 5 6 6 6 7 8 8 8 9 9 10 10 12 13 11 11 11 11 11 10 10 10 11 11 14 13 12 12 12 9 11 12 12 12 10 10 11 13 14
9 7 5 5 4 4 5 6 7 8 9 9 10 11 12 12 12 12 12 11 10 10 10 10 11 12 11 11 11 10 9 9 9 8 6 10 12 14 8 10 10 13 14

GFSMA_850_spd_069.txt.gz
Wind_Speed
6 7 7 6 6 6 6 6 7 8 8 10 10 12 13 13 13 14 14 14 14 14 14 15 16 16 15 14 13 12 10 9 8 8 7 7 7 6 6 5 5 4 4
6 5 6 7 7 7 7 7 7 8 8 10 10 11 11 12 13 14 15 15 15 15 15 15 17 17 17 16 15 14 12 11 11 10 10 10 9 8 7 7 7 6 6
5 6 7 7 7 8 9 10 10 11 11 12 12 12 13 13 14 15 16 17 17 17 16 16 16 18 19 18 17 16 16 13 12 12 12 12 11 11 10 10 9 8 8
9 10 10 9 9 11 12 13 13 14 15 16 16 16 16 17 17 18 19 20 20 20 19 19 17 17 19 20 19 17 15 18 15 14 14 14 14 14 13 12 11 10 9
13 14 15 14 13 14 16 16 17 18 20 21 21 22 22 22 22 22 22 23 24 24 23 22 21 20 19 21 21 18 15 19 21 18 15 16 16 17 16 15 14 14 13
17 18 18 18 18 19 20 21 23 22 23 24 25 26 26 27 26 26 26 25 25 25 26 26 25 25 23 22 22 22 20 18 22 22 21 17 19 18 18 17 17 16 15
21 21 22 22 21 22 23 24 25 25 25 24 27 28 29 29 28 27 20 18 17 15 16 17 21 25 25 24 23 23 23 21 21 24 25 23 20 20 18 17 17 17 16
25 26 26 26 26 26 26 26 27 28 28 26 26 27 24 21 23 18 12 13 19 20 22 21 19 21 22 24 24 24 24 25 23 22 26 29 26 23 21 17 15 15 14
27 27 28 29 29 29 30 29 28 27 28 25 23 22 15 16 17 19 17 20 18 19 20 19 20 20 21 19 18 21 23 26 27 25 23 27 27 24 21 19 16 15 16
24 24 24 25 26 27 27 27 26 25 25 25 24 22 21 21 15 13 12 12 17 18 18 19 18 19 19 17 18 19 22 25 29 30 29 29 27 25 21 20 20 16 17
25 26 26 28 28 29 28 28 27 26 26 25 24 21 19 20 20 20 19 16 16 16 17 13 14 15 15 17 19 20 21 24 26 30 32 29 31 26 32 26 33 33 22
17 18 18 19 19 19 19 19 19 22 24 22 23 21 21 18 15 16 19 21 21 20 18 19 14 15 15 18 20 19 17 17 19 20 24 31 32 29 23 22 24 27 30
17 18 19 19 20 20 20 20 19 19 19 20 22 21 19 18 17 18 20 23 20 19 15 18 15 14 15 15 16 12 11 14 16 18 21 25 29 32 34 29 28 25 26
17 17 18 18 18 18 18 18 19 18 16 15 15 17 18 17 18 19 19 19 19 20 20 17 17 16 13 14 15 15 15 17 16 14 17 24 25 33 35 33 27 20 20
13 13 13 13 13 13 14 15 15 16 16 16 17 18 20 18 19 19 20 20 17 13 12 11 11 14 19 19 18 17 16 14 13 13 12 13 19 11 19 21 25 29 28
12 13 13 13 14 14 14 13 14 14 15 16 19 19 20 18 18 19 17 15 12 13 14 14 15 16 18 20 18 15 14 12 10 9 9 15 19 17 17 17 23 26 27
13 13 13 14 14 14 13 13 12 12 13 14 15 15 15 14 12 9 8 9 10 10 10 11 14 16 18 18 14 11 11 6 7 6 10 12 15 18 14 19 22 22 25
13 12 11 11 11 12 11 10 10 10 9 9 8 7 6 6 5 6 7 9 10 11 12 13 14 15 17 15 11 8 9 10 9 7 9 13 14 19 20 24 25 27 28
11 10 9 9 9 8 7 6 5 5 5 4 2 3 3 3 4 5 6 8 10 11 10 10 12 13 14 12 9 9 9 9 9 9 14 18 18 20 21 22 21 20 21
10 9 8 8 7 5 4 4 5 4 5 4 2 2 2 3 3 5 6 7 7 7 7 8 9 9 10 10 10 9 8 8 8 9 10 11 13 17 20 22 22 22 23
9 8 6 4 3 4 4 7 7 8 6 5 4 2 1 2 1 3 4 5 6 7 8 9 9 9 10 10 10 9 9 8 8 9 10 12 12 13 13 15 17 18 19
7 6 4 5 6 8 9 10 9 7 6 4 2 1 2 3 5 6 7 8 9 9 10 10 10 10 10 10 10 11 11 10 9 11 10 11 13 14 15 17 18 19 20
8 7 9 11 9 9 9 7 7 5 3 2 2 3 4 5 6 7 9 10 11 11 10 10 10 10 10 10 11 12 12 12 12 14 15 15 15 15 16 17 18 18 18
11 12 12 11 8 7 6 5 5 4 4 4 4 4 5 6 6 7 9 9 10 10 10 9 9 10 10 11 10 11 12 13 12 11 10 9 8 7 8 9 9 9 10
14 12 11 9 7 6 5 4 4 5 4 4 5 6 7 8 11 10 8 9 9 9 9 9 9 9 10 10 12 11 11 10 9 8 8 7 7 8 7 8 8 9 10
14 12 10 8 6 4 3 4 5 4 5 5 6 8 9 9 10 11 8 8 9 9 8 9 9 9 8 8 8 7 7 6 6 5 5 9 11 11 5 5 5 6 10

GFSMA_850_spd_072.txt.gz
Wind_Speed
6 7 7 7 6 5 5 6 6 7 8 9 10 10 10 10 11 12 12 11 11 11 12 12 13 15 15 13 12 12 11 10 9 9 9 8 8 8 8 7 7 6 6
6 7 6 7 6 6 7 7 7 7 7 9 9 10 10 10 11 12 13 13 12 13 13 13 13 14 14 16 16 15 13 11 11 11 11 11 11 10 9 9 9 8 8
5 6 7 6 6 8 8 10 10 11 11 11 11 11 12 12 14 14 15 16 17 16 15 15 14 15 16 16 16 15 17 15 12 11 12 12 12 12 12 12 11 11 10
8 9 9 8 9 10 11 12 12 13 14 14 15 13 14 16 17 18 19 20 21 20 21 19 19 18 18 18 17 18 17 19 18 15 13 13 14 14 14 14 14 13 12
12 12 13 13 13 14 15 16 16 16 17 16 18 19 19 20 21 22 22 23 24 24 24 25 24 23 21 21 20 19 19 19 21 20 18 16 15 16 17 17 16 15 14
16 17 17 17 17 18 19 19 20 19 22 22 22 23 23 23 24 23 23 22 20 21 20 21 24 24 23 22 23 22 21 20 22 24 22 20 18 16 18 19 19 18 16
20 20 21 20 21 21 21 22 23 24 24 24 24 24 18 21 22 19 15 15 14 14 15 17 16 18 19 21 22 23 24 23 22 24 25 24 23 21 19 19 20 19 16
22 23 24 25 26 26 25 25 25 25 26 25 23 22 17 15 17 12 10 10 14 18 17 18 19 17 17 17 16 19 23 25 24 24 25 26 27 27 25 21 20 20 17
24 25 26 27 27 28 28 28 28 27 25 25 22 22 13 14 12 11 14 13 16 15 15 17 17 18 17 17 17 18 19 23 25 26 27 26 27 30 27 24 22 20 20
24 24 24 24 25 25 26 27 27 28 27 26 25 25 25 24 13 12 13 13 16 16 20 16 19 18 18 18 18 18 18 20 24 27 28 29 28 29 32 28 22 19 19
25 25 26 26 26 27 28 28 27 27 27 26 25 25 24 22 20 20 17 16 14 16 17 15 19 19 19 17 16 18 20 22 22 25 27 30 30 31 27 31 25 24 24
20 20 20 21 21 21 21 22 22 22 22 23 23 22 25 22 18 18 17 18 18 18 17 18 19 17 16 15 16 16 16 14 15 18 20 22 23 25 29 37 31 28 25
20 21 21 22 22 23 23 23 23 22 21 20 18 21 22 22 22 19 16 19 18 17 17 18 19 18 16 15 15 15 14 15 17 16 16 18 22 26 27 31 31 27 27
21 21 21 21 21 21 21 20 20 20 19 16 15 17 18 19 18 17 16 17 17 19 19 15 18 15 16 17 18 19 18 18 18 19 17 18 22 26 32 31 33 26 28
18 17 17 16 16 16 16 16 17 18 17 15 14 16 17 20 17 17 16 17 16 9 12 14 14 13 16 18 21 20 18 18 17 16 15 18 20 16 13 21 28 26 27
15 15 15 15 15 15 15 15 16 16 16 16 16 15 18 20 20 19 19 18 17 13 11 12 14 16 16 18 22 17 16 13 12 10 11 15 16 14 7 11 11 13 16
15 16 15 15 15 14 14 14 14 14 14 15 15 15 16 16 15 14 12 10 9 10 11 12 13 14 16 18 18 15 10 8 7 9 11 12 13 11 9 12 16 19 24
15 15 15 14 14 13 13 12 12 12 11 11 10 11 11 10 9 9 9 8 9 11 11 13 14 15 16 16 17 11 9 7 8 10 11 10 11 11 10 14 16 15 15
15 15 14 13 13 12 11 10 9 9 9 9 8 8 8 8 8 7 6 7 8 11 11 13 13 14 13 12 10 9 9 9 9 10 12 14 16 18 18 19 19 22 25
15 15 14 12 11 10 8 7 6 6 4 3 3 3 3 4 6 6 6 8 8 8 8 9 10 11 11 10 9 8 8 10 10 10 11 11 13 16 18 18 18 19 20
13 14 11 9 7 5 5 5 5 6 6 5 4 3 3 2 4 5 6 7 7 8 8 9 9 9 10 10 9 10 10 10 12 10 11 13 13 13 15 16 17 18 19
11 10 8 6 6 6 7 8 8 7 6 5 4 3 2 3 4 5 6 7 8 8 9 9 9 8 10 10 11 11 11 10 6 13 10 10 14 14 15 16 17 18 19
10 9 8 9 9 9 9 8 7 6 5 3 2 2 2 4 5 6 8 9 9 8 8 8 8 8 9 10 10 10 10 10 10 13 13 10 12 11 14 15 16 17 18
12 10 11 11 10 9 8 6 5 4 3 2 1 1 2 4 4 6 7 8 8 8 8 8 8 9 9 9 9 10 10 10 9 10 8 6 8 7 8 9 10 10 10
14 13 13 11 9 7 7 6 4 3 2 1 1 2 4 5 6 6 7 7 8 9 9 9 9 9 10 10 9 9 8 7 5 6 8 5 6 8 9 8 9 9 9
15 15 13 11 10 8 6 5 4 2 1 1 3 4 5 6 8 6 6 7 8 9 9 9 10 9 9 9 8 7 7 6 6 5 6 9 10 9 5 7 7 5 6

GFSMA_850_spd_075.txt.gz
Wind_Speed
5 5 6 6 6 6 6 6 6 6 6 6 7 8 8 7 8 9 10 13 12 12 12 12 12 13 13 12 11 10 10 10 10 10 10 10 9 9 8 8 7 7 5
6 7 6 6 6 6 6 6 6 6 6 7 7 8 9 9 9 11 13 14 15 14 14 14 14 13 14 13 14 15 13 10 10 10 10 11 11 10 10 9 9 9 7
6 6 6 6 6 7 7 8 8 9 9 9 10 9 10 10 11 12 14 16 17 19 17 17 16 16 16 16 15 16 18 19 14 11 10 11 13 12 11 12 11 10 9
7 7 7 7 8 8 9 9 9 10 10 10 11 11 11 13 15 14 16 16 20 22 21 21 19 19 19 19 19 16 17 20 19 17 15 13 13 13 13 14 13 12 12
10 10 9 10 10 11 11 12 11 12 12 14 14 14 17 17 16 16 17 19 19 20 22 19 22 23 21 22 22 21 20 20 22 20 18 16 15 14 13 14 15 15 14
11 13 13 13 12 13 14 14 15 15 16 16 17 18 21 20 17 19 21 17 16 16 17 17 15 17 17 16 18 22 22 21 21 23 24 21 18 17 14 13 15 16 16
14 15 16 15 15 17 17 17 18 19 19 19 18 23 21 15 19 22 14 13 13 13 14 15 18 16 15 17 17 17 20 23 22 23 23 24 24 20 19 17 15 16 15
19 20 21 21 20 20 22 22 21 22 21 18 19 20 24 20 15 17 13 11 8 11 14 15 15 15 17 16 15 19 17 19 23 24 25 23 23 26 26 23 21 18 16
21 22 23 24 24 25 25 25 26 24 24 24 24 22 13 10 11 11 11 9 10 11 14 14 18 18 17 16 17 18 19 19 19 23 25 26 24 23 27 32 27 24 20
21 22 22 24 24 24 25 24 24 23 20 24 22 23 23 23 20 15 15 11 14 17 12 9 11 15 15 15 16 18 16 17 18 19 22 25 27 24 27 24 33 30 22
23 24 24 24 25 25 25 25 25 25 24 24 22 20 24 22 24 23 19 21 18 16 15 14 16 19 22 20 18 16 17 19 19 21 23 25 26 24 24 24 29 25 21
23 22 22 21 20 21 21 21 21 22 22 21 20 19 20 17 16 22 22 21 17 19 20 20 24 22 21 20 17 16 17 17 16 15 16 17 19 23 22 22 22 34 33
20 21 20 21 22 23 23 23 23 24 23 21 20 17 19 22 23 23 20 18 15 17 20 19 22 24 21 18 15 17 17 18 19 18 18 20 22 23 24 26 25 21 36
20 21 22 22 23 23 22 22 21 20 20 19 19 16 19 18 21 22 21 15 13 13 16 17 16 17 17 15 16 17 19 20 20 19 18 19 22 22 23 21 24 26 27
20 20 19 19 19 19 19 18 18 18 18 17 15 14 14 16 20 17 18 17 16 12 14 15 16 14 14 16 17 20 20 16 16 16 17 17 18 19 18 15 12 19 24
18 18 18 18 18 18 18 18 18 18 17 18 16 15 17 18 19 20 19 19 17 17 15 14 15 15 16 17 18 20 19 16 12 12 13 14 14 13 8 8 5 10 15
18 18 18 18 18 18 17 17 17 16 16 16 16 17 15 16 18 16 15 13 13 12 12 14 13 14 16 17 19 19 17 12 10 10 13 13 12 10 7 8 8 8 10
18 18 18 18 18 17 16 15 15 14 13 13 13 12 11 10 10 10 10 10 10 10 11 13 13 14 15 15 16 15 11 10 10 10 11 13 12 9 8 6 7 9 12
18 18 17 16 16 15 14 13 12 11 10 10 10 10 8 8 9 9 9 9 9 10 11 12 14 13 13 12 13 12 11 11 10 10 12 12 13 14 14 15 14 14 17
18 18 17 16 14 13 12 11 9 8 8 8 7 8 7 7 7 8 7 8 8 8 8 8 11 12 12 11 11 10 8 11 11 11 11 12 12 13 14 16 16 16 16
17 17 16 14 13 12 11 9 8 7 7 6 5 4 4 3 3 6 6 7 8 9 9 8 8 9 10 9 10 11 10 11 11 12 11 12 12 13 14 14 16 16 17
15 14 13 11 10 10 9 8 8 8 6 5 4 3 2 3 3 6 7 8 9 9 9 8 8 7 10 10 11 11 11 10 5 13 11 10 15 13 15 17 17 17 18
12 11 10 9 9 8 8 8 7 7 5 5 4 4 3 3 4 5 5 7 7 7 7 7 7 8 9 10 11 10 10 9 10 13 13 8 11 9 12 13 13 15 17
11 11 11 10 8 8 8 6 6 6 5 5 5 4 3 4 4 5 6 6 6 6 5 7 8 9 9 10 9 10 9 9 7 11 9 6 8 7 8 10 10 9 9
13 13 11 10 9 8 8 7 6 6 5 4 4 4 4 5 5 5 5 5 6 7 7 7 8 8 9 9 8 9 8 7 5 6 11 7 7 9 10 9 9 8 9
14 14 13 12 10 9 8 7 6 6 5 4 4 5 5 5 6 4 5 5 5 8 9 9 9 9 8 7 6 6 7 6 6 4 10 10 11 11 6 8 6 6 6

GFSMA_850_spd_078.txt.gz
Wind_Speed
6 7 7 7 5 4 5 5 6 6 7 7 8 10 9 9 10 11 13 14 13 12 13 13 13 14 15 14 14 12 10 10 10 10 9 9 8 7 7 6 6 5 4
9 9 8 7 7 6 6 6 6 7 7 8 8 9 10 11 11 13 15 17 17 15 14 14 14 15 15 15 14 16 16 12 10 11 11 10 10 10 9 8 8 7 7
8 7 6 5 5 6 6 7 8 10 11 11 11 10 11 12 13 15 16 17 20 22 20 18 16 16 17 17 16 16 17 17 15 12 12 12 11 10 10 10 10 9 8
6 6 6 6 6 7 9 9 9 10 11 11 12 11 11 15 14 20 19 17 18 20 24 23 22 19 18 18 20 18 17 18 19 17 15 13 11 10 9 9 11 10 9
8 8 7 7 8 10 11 12 12 12 13 13 14 16 17 19 22 20 19 19 19 19 20 20 17 21 17 16 17 19 19 19 19 22 19 18 15 14 11 10 10 10 11
9 10 11 10 11 12 13 14 14 14 16 17 19 20 21 21 21 19 19 20 17 13 16 17 23 16 15 14 14 13 16 19 20 21 21 21 19 17 15 13 12 11 11
13 13 13 11 11 13 15 15 17 18 20 21 21 21 21 22 22 24 22 19 10 12 17 16 16 14 13 15 16 15 15 17 20 22 21 20 21 22 21 18 16 14 14
19 19 19 19 18 18 18 18 19 20 20 19 21 23 25 25 22 13 14 15 13 9 14 17 17 14 15 14 16 18 18 17 17 18 21 22 21 20 23 23 22 21 17
15 17 18 20 20 21 21 22 24 25 26 25 23 21 12 7 8 8 8 9 9 13 16 18 15 16 16 18 18 18 17 16 15 17 18 21 23 23 20 22 23 31 21
15 17 18 20 20 21 22 23 23 22 20 21 21 21 21 23 17 14 15 13 17 13 15 10 11 17 23 22 22 19 17 15 15 16 19 21 21 21 20 20 20 22 19
17 18 20 21 22 22 22 22 21 22 22 21 20 21 19 18 20 23 22 20 20 17 16 15 19 24 25 23 22 18 15 14 15 16 18 17 18 22 23 19 21 20 20
19 20 21 21 20 20 19 19 19 19 19 21 21 18 17 17 18 18 21 20 23 17 15 19 21 24 23 21 23 19 14 15 15 15 15 15 16 16 17 19 21 20 17
21 22 19 18 19 20 20 21 21 21 21 21 18 16 16 18 18 23 21 18 16 15 15 19 22 25 23 21 19 17 17 17 17 17 16 16 18 17 18 19 21 20 22
20 20 19 19 20 20 20 20 19 18 19 19 18 17 19 17 15 19 19 20 20 14 13 16 17 16 16 17 16 15 18 19 15 12 12 14 15 16 16 18 17 17 18
18 18 18 18 18 18 18 18 17 17 17 19 15 14 13 14 16 16 14 15 14 13 16 17 17 16 15 14 14 16 19 18 13 11 12 14 13 12 12 10 14 9 9
17 17 17 17 17 17 17 17 17 17 16 18 16 14 14 15 16 17 18 18 20 19 19 17 16 15 14 14 14 16 19 17 12 9 11 13 11 9 7 4 5 8 4
18 19 19 18 18 17 17 17 17 16 16 17 15 14 14 15 17 19 22 22 20 16 16 18 18 14 11 13 15 17 15 12 9 9 10 12 9 8 6 4 5 3 2
19 19 19 19 18 17 17 16 16 15 14 15 14 15 15 16 16 15 12 11 10 10 11 13 14 11 14 14 14 13 11 10 10 10 11 11 10 7 6 5 5 4 4
17 18 18 18 17 16 15 14 14 15 14 13 12 12 11 11 10 10 9 10 10 9 10 11 14 12 12 9 11 11 10 11 10 10 10 10 10 10 10 9 10 10 9
17 19 19 18 16 15 15 14 14 14 12 11 10 10 9 8 8 9 9 8 7 8 10 11 12 10 9 9 9 9 9 11 11 10 10 11 10 10 11 12 13 13 15
17 17 18 17 15 14 13 11 10 11 9 7 6 6 6 5 5 6 6 8 8 8 9 11 10 9 9 10 10 11 11 9 12 10 8 10 10 10 12 12 12 13 14
17 16 16 15 13 12 10 9 10 9 6 7 7 6 5 5 6 7 7 8 9 8 7 11 9 10 11 10 10 10 11 8 7 9 8 9 10 10 11 13 14 15 14
16 14 13 12 10 7 8 8 7 7 7 7 6 5 4 4 4 4 3 4 6 6 7 8 8 8 10 10 11 9 9 9 8 9 8 5 6 6 8 9 8 9 10
13 10 12 11 8 7 8 9 8 8 8 7 6 5 4 3 3 4 4 4 4 4 4 6 7 8 8 9 9 8 8 7 6 7 6 5 5 5 6 9 7 7 7
12 12 12 10 9 9 9 8 8 8 7 6 5 4 4 3 2 5 3 3 5 3 4 5 6 7 7 7 8 8 7 5 4 6 7 6 6 7 8 7 6 6 6
12 13 13 11 11 10 10 9 8 8 7 6 6 5 4 3 3 4 4 4 5 6 7 6 6 6 6 6 7 6 5 5 5 5 5 8 10 10 5 5 3 9 9

GFSMA_850_spd_081.txt.gz
Wind_Speed
10 8 6 4 4 3 4 4 3 5 6 6 7 8 8 8 9 9 11 13 13 13 13 12 12 13 14 13 13 13 12 9 9 9 9 9 9 8 8 7 5 5 4
10 8 7 7 6 5 5 6 5 6 6 7 8 8 10 10 10 11 13 15 18 17 16 15 15 15 15 15 15 16 16 14 11 10 9 9 8 8 8 8 7 6 6
11 9 9 7 6 6 6 6 6 8 9 10 10 9 9 10 13 14 16 17 18 18 19 18 20 18 16 16 16 16 17 18 14 11 12 12 10 8 7 8 7 7 6
10 9 8 7 6 6 6 7 8 9 10 10 10 11 12 13 15 16 19 20 18 17 18 19 19 18 16 16 15 17 18 18 17 16 14 13 12 12 10 8 8 7 8
7 7 7 7 7 8 9 10 10 11 11 12 14 15 17 18 19 21 22 20 18 17 20 17 17 17 19 14 13 13 13 14 16 17 18 17 15 14 13 11 10 9 8
8 7 7 7 9 10 11 12 13 12 14 17 17 20 22 21 20 20 18 17 16 13 12 12 14 16 17 17 14 15 15 15 16 18 18 17 19 18 16 14 14 12 10
11 12 12 11 12 12 13 15 16 17 18 20 22 23 22 22 23 24 20 15 16 14 13 17 13 17 16 16 15 17 15 15 15 16 19 21 18 18 20 18 17 15 13
16 16 18 15 15 17 16 17 18 20 21 19 20 21 25 23 20 8 9 12 13 13 13 14 15 18 15 15 15 16 17 16 15 16 16 18 18 18 15 20 22 19 17
24 21 18 17 18 17 18 20 21 22 23 23 22 22 13 7 11 12 6 6 10 13 14 16 18 17 18 20 20 22 19 17 15 14 15 16 16 17 18 18 16 22 23
18 18 17 18 18 18 19 21 22 23 22 21 20 18 20 21 12 11 10 8 13 14 14 16 16 15 14 21 23 23 18 16 14 15 15 16 16 16 15 14 16 18 17
16 16 17 18 19 20 21 21 21 21 20 19 19 19 20 22 20 20 20 19 15 16 19 15 15 15 20 23 23 23 19 16 14 14 14 14 13 15 15 16 20 21 18
17 17 17 19 20 20 20 19 19 19 19 19 20 20 21 19 16 14 15 17 17 16 19 18 14 17 20 24 24 21 15 14 14 14 13 14 15 14 15 15 16 16 16
17 17 18 19 19 19 19 19 20 20 21 21 21 21 18 17 17 18 21 20 18 15 16 15 17 16 18 22 15 16 14 15 17 13 5 10 13 12 12 14 16 17 18
18 19 19 19 19 20 20 20 19 19 19 19 20 18 17 17 19 20 21 18 19 16 16 20 16 16 16 17 16 12 15 17 17 12 10 10 9 8 9 11 12 13 13
17 17 18 19 19 18 18 18 18 18 18 18 20 18 15 14 14 17 19 21 19 16 17 17 15 17 14 15 15 13 15 17 15 11 10 9 8 6 7 6 9 8 6
17 18 17 17 19 19 18 18 18 18 17 18 20 18 15 14 14 14 17 18 14 17 12 14 16 15 15 16 13 12 14 15 13 9 8 8 9 5 4 4 2 7 9
19 18 18 19 18 18 18 18 18 18 17 18 19 16 15 16 16 19 21 22 21 21 20 19 17 16 15 11 11 11 12 10 7 8 8 9 9 8 5 4 3 2 6
18 17 18 18 18 18 18 18 18 17 16 17 17 16 16 17 17 17 17 16 16 15 14 14 14 14 12 11 10 10 10 9 8 8 8 8 9 9 7 4 3 2 4
16 17 17 18 17 17 17 18 17 17 15 15 15 14 12 11 13 12 11 11 11 10 12 12 13 12 10 7 8 9 9 9 9 9 9 9 9 9 9 9 8 7 7
15 17 17 16 17 17 17 17 17 15 15 14 13 12 11 10 10 11 10 10 10 9 9 10 9 9 7 7 7 8 8 10 10 10 11 10 9 9 10 9 10 10 11
15 15 16 16 16 16 16 15 15 13 12 13 10 9 9 9 8 8 8 8 8 9 9 10 9 8 7 7 9 8 9 10 9 9 10 8 8 9 9 9 10 11 11
14 16 16 16 16 13 13 13 13 10 9 8 6 6 6 6 6 6 7 8 9 10 9 10 9 9 8 8 8 9 8 9 7 7 8 9 7 7 7 7 8 9 10
15 16 17 15 13 10 10 11 9 8 7 8 7 7 7 6 7 6 5 7 8 8 8 7 7 7 7 7 9 8 8 8 7 6 6 4 3 4 5 5 4 5 5
16 16 14 12 11 7 8 9 10 9 9 8 8 7 6 5 5 4 5 4 5 5 4 4 5 6 7 7 7 7 6 6 6 4 3 2 2 3 5 6 5 5 4
15 15 12 11 10 8 9 9 9 9 9 8 7 7 6 5 4 4 4 4 4 3 3 3 3 4 5 6 6 6 4 4 5 5 4 2 2 4 6 5 4 4 4
14 12 12 12 11 10 10 10 10 10 9 8 8 8 7 6 5 5 4 4 3 3 3 3 3 4 4 5 4 4 4 3 4 5 2 4 4 4 4 3 3 8 8

GFSMA_850_spd_084.txt.gz
Wind_Speed
5 5 5 5 4 4 4 3 3 2 2 4 5 6 6 6 7 7 8 9 11 12 12 12 13 13 15 16 15 15 13 11 9 9 9 9 9 8 8 6 6 6 5
8 7 8 7 5 4 4 4 4 4 4 6 7 8 8 8 8 9 10 12 13 15 15 15 15 16 16 15 16 16 16 15 13 11 10 10 10 9 9 8 6 6 6
13 11 9 7 6 5 5 6 6 6 7 9 9 9 8 8 9 12 15 16 16 17 15 16 16 16 14 12 14 15 15 17 17 14 12 12 11 9 9 9 8 8 7
15 12 11 9 8 7 7 7 7 9 10 10 10 9 12 13 14 15 14 18 18 19 16 17 13 14 14 15 16 15 15 15 13 16 16 15 13 12 11 10 9 9 8
12 11 10 9 9 9 9 8 9 10 11 11 13 15 15 16 18 20 22 21 20 15 15 17 14 15 15 15 16 16 16 16 14 13 13 16 17 15 13 12 11 11 10
6 7 6 5 8 10 10 11 12 12 14 15 17 18 19 21 22 22 21 20 19 16 15 11 12 12 14 15 14 13 13 15 14 15 16 16 15 18 17 15 14 13 12
13 11 10 11 11 11 12 14 16 16 17 19 21 21 22 21 22 23 23 19 18 15 16 15 14 15 13 19 14 11 13 14 15 15 15 16 16 16 15 22 19 17 14
18 16 15 16 16 15 15 17 17 18 20 19 20 22 24 23 19 12 8 9 10 13 13 13 15 16 17 16 12 16 18 19 15 15 15 15 15 15 14 14 15 23 18
18 18 18 20 20 20 22 20 21 22 23 25 22 21 10 7 7 11 12 8 5 10 13 14 18 17 15 12 13 18 23 18 14 14 14 15 15 16 13 13 17 16 21
22 22 24 24 23 21 20 21 23 24 25 25 23 21 22 24 13 10 6 8 9 13 17 18 18 16 17 15 15 21 23 20 15 13 13 13 13 11 13 14 15 13 17
22 22 22 21 20 20 21 22 23 24 23 22 21 21 20 20 22 23 19 18 15 15 18 17 20 18 18 14 17 18 20 19 13 12 13 12 12 13 12 11 12 16 20
23 21 20 20 20 21 22 22 22 22 21 21 20 21 21 20 18 14 15 15 16 15 16 17 18 17 17 13 15 19 15 12 12 11 9 10 14 13 12 12 12 14 16
21 19 18 18 20 20 21 21 21 22 22 22 22 22 22 22 22 21 20 19 19 17 17 17 17 16 15 14 15 16 12 13 15 12 9 13 10 8 9 11 13 15 17
20 18 18 19 19 19 20 20 21 21 21 21 21 21 20 21 22 19 19 18 18 21 19 23 23 18 16 15 15 14 15 14 17 13 10 7 6 8 10 11 11 12 12
16 17 18 20 20 20 21 20 20 21 20 20 20 21 21 21 17 18 19 20 21 15 17 18 21 17 14 14 14 16 14 14 14 13 10 6 5 6 7 7 5 7 6
17 17 19 19 20 21 21 21 20 21 20 20 20 21 22 21 16 16 16 16 18 18 19 16 15 14 16 16 16 14 12 12 12 8 8 6 6 5 5 4 2 3 6
14 23 26 22 21 21 21 21 21 21 20 20 20 21 22 18 16 17 18 17 19 19 17 19 18 17 17 17 14 11 10 10 10 7 7 7 8 8 6 6 4 4 2
24 25 21 21 21 21 21 21 21 20 20 19 19 21 20 17 17 18 17 19 23 23 23 21 19 15 16 15 12 11 11 9 9 8 9 8 9 8 8 5 4 4 7
16 17 19 19 20 20 20 21 20 19 19 18 17 18 18 15 15 17 17 15 14 12 13 15 15 14 13 12 10 10 9 9 9 9 9 9 9 9 8 8 8 8 7
15 16 17 18 19 19 20 21 20 18 18 17 16 16 16 13 13 13 12 11 11 11 12 12 13 12 12 9 9 8 9 10 10 11 9 10 8 9 9 9 9 10 10
15 16 17 18 19 19 19 20 19 18 15 14 16 14 11 10 9 10 12 10 10 10 9 10 10 10 9 9 8 8 9 10 10 10 9 8 8 8 8 8 9 10 11
15 16 17 18 19 20 19 17 15 13 11 11 11 9 9 8 7 9 10 8 8 8 9 10 12 11 11 9 8 7 9 8 7 9 8 7 8 6 6 5 6 6 8
16 17 17 19 18 17 15 13 12 11 11 10 9 7 6 6 6 6 7 9 8 9 9 8 9 8 10 8 8 7 8 7 7 7 7 5 5 4 4 3 3 2 2
17 17 17 17 15 14 12 10 10 11 11 10 9 9 7 7 6 7 6 5 5 4 4 5 6 7 7 7 7 6 6 6 6 5 4 4 4 4 4 5 5 4 4
17 17 16 15 13 13 10 11 11 12 11 10 9 8 7 7 7 6 6 5 4 3 2 3 5 5 5 4 5 5 5 5 5 5 4 4 4 5 5 5 5 4 4
17 17 16 13 13 12 11 12 12 11 10 10 9 8 7 8 7 6 6 5 4 4 3 3 3 3 3 3 3 3 4 4 4 4 4 4 5 4 3 6 6 5 8

GFSMA_850_spd_087.txt.gz
Wind_Speed
9 6 7 7 6 6 6 5 4 3 3 3 3 3 4 5 6 6 6 7 8 9 10 11 13 14 15 17 14 15 14 13 12 11 11 10 9 10 9 9 8 7 5
9 7 7 7 7 5 5 5 5 5 4 4 5 6 7 7 7 7 8 10 12 12 12 13 15 15 17 12 11 13 14 14 15 14 12 10 10 10 9 8 8 8 7
9 8 8 7 7 7 6 5 5 5 6 7 8 8 7 7 10 12 14 14 15 17 14 17 15 14 14 13 14 17 15 14 14 15 15 14 12 10 10 9 8 8 7
11 11 10 9 9 8 7 6 6 7 8 9 9 8 11 13 12 14 15 17 18 18 19 16 15 15 13 14 16 17 17 19 16 12 12 16 15 14 13 12 10 8 8
12 13 12 10 10 9 9 8 9 9 10 9 11 13 14 16 17 19 22 22 21 20 16 16 15 12 10 12 15 16 17 17 16 14 12 13 15 17 15 14 12 11 10
10 10 10 9 9 9 10 10 10 11 12 13 15 18 19 20 21 23 24 22 22 21 19 15 15 12 11 12 17 15 14 15 16 16 15 14 15 14 17 18 16 15 12
13 10 8 8 8 10 10 11 12 14 15 16 18 20 23 24 23 22 22 21 16 15 15 13 15 12 12 14 14 12 14 16 18 18 16 15 14 14 14 14 20 22 16
17 15 15 15 16 16 14 13 15 17 18 18 19 21 22 22 18 11 12 13 11 11 10 12 12 14 14 14 13 10 17 20 21 16 16 14 14 13 12 13 16 12 24
22 18 15 17 18 18 17 17 21 22 23 23 22 19 11 7 11 12 13 15 11 8 9 13 14 16 14 15 13 12 13 22 22 20 16 13 14 10 9 10 11 14 15
19 18 17 20 19 23 22 22 23 23 24 25 24 22 21 23 16 12 9 8 8 12 15 16 17 19 16 16 15 16 14 18 21 17 15 13 12 11 12 13 14 16 13
22 23 21 22 21 22 22 21 21 22 23 24 22 22 20 19 20 22 20 20 18 17 18 19 20 18 17 18 18 14 14 16 15 14 13 8 12 14 12 11 11 12 13
21 21 21 22 20 20 20 21 22 22 21 22 21 21 21 19 18 17 18 20 19 18 19 20 17 18 20 16 14 16 14 14 14 15 7 11 13 12 6 7 10 13 14
22 25 26 21 19 18 19 21 21 21 21 22 22 22 21 21 20 20 18 21 21 22 21 21 24 20 18 15 14 15 14 13 15 15 11 16 16 9 8 5 8 11 14
26 24 20 19 17 18 19 20 20 20 21 20 20 21 20 19 19 21 22 18 19 18 26 24 18 17 19 18 15 13 15 15 15 15 13 13 9 9 10 12 13 14 11
20 18 18 16 15 18 21 22 20 20 21 21 21 21 21 20 20 22 19 19 20 16 20 20 20 18 15 18 12 16 18 16 14 14 11 10 8 9 9 9 7 8 6
16 15 12 12 24 31 29 26 24 23 24 22 21 21 22 22 21 22 17 16 19 20 23 22 21 20 18 14 13 19 19 15 14 12 9 8 8 8 6 6 5 6 7
15 21 25 24 33 31 25 25 24 23 23 22 21 21 22 22 22 20 16 16 16 14 17 17 18 15 15 16 19 19 14 13 12 10 8 8 9 9 8 6 6 5 4
22 22 20 28 24 23 23 23 22 21 21 21 20 20 21 21 19 16 16 16 18 21 22 22 22 20 19 22 19 16 13 11 11 11 9 10 10 9 8 5 6 5 6
16 20 20 18 19 20 21 22 22 21 20 19 18 18 19 20 17 16 17 17 18 17 17 19 21 20 19 18 16 13 12 11 11 11 10 11 9 9 8 7 7 7 7
17 16 14 16 18 19 21 22 22 21 20 19 18 18 18 18 16 13 12 13 13 13 12 14 15 15 16 17 13 11 11 11 11 10 11 11 10 9 8 9 9 9 10
13 13 14 15 18 19 21 22 22 21 19 17 16 16 17 15 12 11 11 11 11 11 12 12 12 14 13 13 10 11 11 11 11 10 10 10 10 9 8 8 9 10 10
13 13 14 16 18 19 22 24 22 17 14 13 13 13 11 8 8 8 8 8 9 9 10 12 12 12 11 11 11 11 11 10 10 9 10 10 9 7 7 6 5 6 8
14 14 15 16 18 19 22 20 16 12 11 11 11 10 8 8 9 8 7 9 9 10 12 11 11 10 10 10 10 10 9 9 9 9 9 8 7 6 5 5 3 3 3
14 15 16 17 18 19 19 17 12 10 11 11 11 11 10 9 9 7 7 7 6 6 7 7 9 8 8 9 9 8 8 7 7 7 7 6 7 6 5 5 5 5 4
15 16 17 18 18 17 14 15 10 11 12 12 12 11 10 9 8 7 7 7 5 5 3 4 6 6 6 6 6 6 6 6 5 6 6 6 7 6 6 7 6 6 6
17 19 18 18 16 13 13 13 12 13 13 11 11 11 10 10 9 7 7 7 6 4 4 4 4 3 3 3 4 4 4 4 5 4 6 7 6 6 4 7 7 7 7

GFSMA_850_spd_090.txt.gz
Wind_Speed
12 10 9 9 8 8 6 7 5 5 4 4 3 3 3 3 5 4 4 5 6 8 9 10 12 14 15 15 12 12 13 13 12 11 11 10 9 9 9 8 7 6 4
13 10 9 9 9 7 7 7 6 6 5 4 4 4 5 5 5 5 6 8 11 12 13 10 13 14 15 13 14 12 13 14 12 13 13 12 11 10 9 8 8 8 7
12 11 10 9 9 9 8 7 7 6 6 6 6 6 6 6 8 9 11 11 12 13 15 15 12 12 15 13 14 14 17 15 14 13 13 13 12 12 11 10 9 8 7
13 13 11 9 9 9 9 8 7 6 6 7 7 6 8 10 11 13 14 15 16 19 21 17 13 12 14 12 13 16 18 17 15 13 11 10 14 15 13 12 10 9 8
11 13 12 10 11 11 9 8 8 7 7 7 8 9 12 14 15 16 18 19 21 21 18 16 13 14 10 10 11 14 16 16 16 14 12 12 13 11 15 15 13 11 9
13 13 13 12 11 12 9 8 8 8 8 10 13 15 15 17 20 23 24 24 22 22 20 19 14 12 11 11 10 14 12 14 19 18 16 13 13 13 13 12 17 17 14
16 10 9 11 11 9 7 7 8 10 11 13 15 18 18 21 20 18 19 17 15 11 11 12 13 13 13 11 15 14 13 12 18 17 18 16 13 13 12 13 14 14 22
23 20 16 14 15 13 11 11 12 14 15 15 18 19 14 18 2 5 11 10 13 14 10 10 11 13 12 13 13 13 14 15 16 19 18 16 12 11 10 9 10 13 11
23 21 21 20 15 14 14 16 17 17 19 19 18 16 8 5 16 12 9 17 15 13 9 9 11 13 15 15 13 14 15 18 19 20 18 14 10 8 8 9 12 10 11
25 22 24 22 16 16 17 19 21 20 21 19 18 17 16 17 11 9 7 6 7 7 11 13 15 17 18 19 16 16 17 18 16 16 15 12 8 10 10 9 9 11 15
23 17 19 18 13 16 18 23 21 19 18 18 18 18 16 14 15 16 19 18 17 14 13 17 20 20 19 18 17 16 16 15 15 12 10 8 11 11 8 7 4 7 10
17 14 15 13 10 20 21 18 17 18 18 18 17 18 18 16 15 14 16 19 20 18 14 16 19 20 21 16 20 16 15 14 15 13 11 14 15 13 6 2 5 5 7
19 17 14 13 14 17 15 15 17 18 18 19 19 18 18 18 18 17 17 18 19 21 22 20 19 21 22 22 19 16 16 14 17 16 14 16 18 17 12 11 9 6 9
17 14 17 17 17 13 10 11 17 19 19 20 18 17 18 17 17 17 17 17 18 19 18 21 23 21 22 18 17 18 14 14 20 17 16 17 16 11 11 11 12 11 12
17 18 23 17 12 7 9 23 22 19 19 19 18 17 18 17 17 17 18 17 15 14 16 18 19 22 21 20 18 15 15 15 21 17 14 13 12 10 9 11 8 7 8
20 19 16 13 11 16 28 31 29 28 24 20 19 18 18 17 17 18 18 17 16 17 20 19 19 21 19 20 18 16 15 17 19 16 13 10 10 9 9 8 6 5 6
17 17 16 16 18 19 31 28 28 23 20 20 19 18 18 18 17 18 19 16 15 17 18 20 18 20 20 22 16 16 18 21 16 14 12 11 10 10 10 8 8 6 5
17 17 16 17 13 22 22 20 19 20 20 19 18 18 18 19 18 18 17 13 15 17 18 20 20 18 15 16 19 19 20 17 14 13 12 12 11 11 10 7 7 7 5
16 16 14 14 19 18 18 18 19 19 19 18 17 17 16 17 18 17 16 15 16 18 18 20 22 24 22 20 19 18 17 13 14 12 12 12 11 12 8 8 7 8 7
16 15 16 16 14 15 17 18 19 19 18 18 17 16 16 17 17 16 13 12 13 14 14 13 14 16 17 17 17 18 14 12 13 12 12 12 11 11 10 8 7 7 9
16 14 13 13 13 14 15 17 19 20 19 18 16 13 13 14 10 8 9 10 10 11 12 14 14 15 16 16 16 13 12 12 12 12 11 11 11 10 9 9 7 7 9
14 13 13 12 12 13 16 19 21 20 18 14 12 11 12 10 8 8 9 9 10 11 11 13 14 14 13 13 12 11 11 11 11 10 11 10 9 8 7 6 6 5 6
14 13 12 11 12 14 17 19 22 20 13 10 10 10 10 8 8 8 8 9 9 9 10 11 13 12 12 11 11 11 10 10 11 10 8 8 8 7 6 5 4 2 2
14 13 13 13 13 15 17 18 18 14 9 9 9 9 10 9 8 8 8 7 6 6 8 10 11 10 9 9 9 9 10 9 8 8 7 5 6 6 6 6 4 4 4
15 14 14 14 14 15 15 14 13 11 9 9 10 10 10 9 10 8 7 7 7 5 6 6 7 6 7 8 8 7 7 7 6 6 6 5 5 6 6 6 6 6 5
16 16 16 15 15 14 14 12 11 11 10 11 11 10 10 11 11 9 7 7 6 6 5 5 4 4 4 4 4 4 4 5 4 3 5 6 5 4 3 7 8 7 7

GFSMA_850_spd_093.txt.gz
Wind_Speed
14 13 12 10 11 10 9 9 9 8 7 6 4 4 4 4 4 4 3 4 5 7 8 10 10 13 15 12 12 12 11 12 12 11 9 9 8 8 8 8 6 5 4
14 12 10 10 9 9 9 9 9 8 7 6 4 4 5 5 4 4 5 6 8 9 10 12 12 12 13 12 13 13 11 13 12 12 12 11 10 9 8 8 7 7 6
13 12 11 9 10 10 9 9 8 8 7 6 5 5 5 5 6 8 7 10 10 11 14 14 15 13 14 12 14 13 13 14 15 14 13 13 11 11 10 10 9 8 6
13 13 12 11 11 11 10 9 8 8 7 7 6 5 5 8 9 10 12 13 15 16 15 18 16 13 12 12 14 12 13 14 14 15 13 12 11 13 13 12 11 9 7
14 14 13 12 12 12 11 10 9 8 7 7 7 8 10 11 12 15 17 20 21 21 20 17 16 12 12 10 13 11 11 15 15 17 15 12 13 13 12 13 15 13 11
16 13 12 14 14 14 12 10 8 7 7 9 12 13 13 14 17 20 22 20 19 19 17 16 16 15 13 14 13 14 16 15 13 15 15 14 13 13 13 13 12 17 17
21 18 15 16 17 14 11 9 8 8 9 10 15 15 17 20 14 16 10 14 10 10 13 13 11 13 13 14 13 11 16 14 14 16 18 18 15 11 12 13 12 15 13
24 26 18 17 17 15 14 9 8 9 12 13 16 18 12 13 6 5 17 11 10 14 14 9 9 11 13 14 13 14 14 14 15 19 19 18 12 11 6 7 10 10 13
26 27 23 22 22 21 14 13 12 14 14 14 16 15 7 5 12 15 8 12 14 10 10 10 9 11 13 15 15 13 16 15 16 19 18 15 9 7 7 10 12 13 11
27 24 21 23 24 16 12 9 9 15 18 18 17 15 15 17 7 8 9 8 10 14 10 11 13 14 15 17 17 16 16 16 15 14 15 10 6 6 9 11 14 9 12
30 37 23 21 21 17 18 18 11 12 19 17 16 16 15 14 15 16 14 17 13 13 16 12 15 17 19 19 19 18 16 17 13 14 14 13 11 13 12 5 4 7 10
18 16 14 17 16 17 16 11 7 17 15 16 16 16 16 15 15 15 17 20 21 20 14 14 14 16 18 20 21 16 17 16 14 13 15 16 17 17 14 10 7 8 9
21 17 14 13 13 14 14 15 15 12 9 14 16 17 17 17 16 17 17 15 15 19 18 18 16 17 18 18 20 21 19 15 16 13 17 19 19 17 16 18 20 17 8
17 18 18 17 19 20 15 13 8 9 11 13 15 16 17 17 16 16 16 16 16 14 17 20 16 16 20 19 19 19 16 16 15 16 17 17 17 16 12 13 14 11 9
16 16 17 18 19 16 14 14 10 13 16 17 16 17 17 16 15 16 17 17 15 9 11 14 14 16 18 18 17 20 18 14 17 18 19 15 14 12 10 9 10 8 9
17 17 19 19 18 18 17 13 16 16 18 19 18 19 17 16 16 16 17 18 17 17 15 15 16 17 18 17 18 17 16 16 17 20 14 15 13 12 11 8 8 7 8
20 22 22 21 21 20 16 15 16 12 21 20 20 19 17 16 16 17 17 18 18 18 19 21 19 18 18 19 19 19 17 14 16 20 14 13 11 11 11 9 8 8 6
18 20 22 22 20 17 16 14 12 15 18 17 17 16 16 16 17 17 17 18 17 16 19 20 19 17 17 17 18 16 14 16 17 16 14 12 12 11 11 10 9 8 6
18 21 21 19 18 16 15 10 15 17 16 16 16 15 15 16 17 17 16 17 16 17 19 21 21 21 21 20 18 17 17 18 18 14 13 12 13 11 10 9 9 7 7
16 18 18 18 17 14 11 14 14 14 15 16 16 16 16 17 17 17 17 14 13 14 16 16 17 17 16 18 18 17 16 16 14 13 12 13 13 12 10 9 8 8 8
18 18 17 16 14 13 12 13 14 15 17 17 18 17 14 13 12 10 10 11 12 12 13 13 14 14 13 14 14 13 14 12 12 12 13 12 11 11 10 8 8 7 8
17 17 15 14 14 12 12 13 15 16 17 18 17 13 10 10 10 9 9 9 9 11 12 12 13 13 14 14 14 13 10 9 9 11 11 11 10 9 8 7 6 5 7
18 18 16 15 13 12 13 14 15 17 17 15 12 10 10 10 9 9 8 8 9 9 8 9 11 13 13 11 12 11 9 8 9 10 9 9 8 7 7 6 3 2 3
18 17 16 14 13 12 13 14 15 15 16 11 9 10 10 11 10 9 8 8 7 7 9 10 12 12 11 11 9 8 7 8 8 7 7 7 7 6 6 6 4 4 4
20 17 16 15 13 13 13 13 13 13 12 9 10 11 11 12 10 10 8 8 7 7 7 7 6 8 8 8 6 5 5 5 5 6 6 5 5 5 6 7 7 6 5
19 17 17 16 15 14 13 13 13 12 11 11 12 13 13 11 11 9 9 8 8 8 6 5 5 6 6 5 4 6 6 5 4 3 4 5 5 4 3 6 8 7 6

GFSMA_850_spd_096.txt.gz
Wind_Speed
18 17 16 14 14 13 12 12 10 10 9 8 6 5 5 5 5 5 5 6 6 7 9 10 11 11 13 14 11 10 10 9 10 11 10 10 10 9 7 6 6 6 6
17 16 15 12 12 13 13 11 11 10 8 7 6 5 5 5 5 6 6 8 10 10 10 11 12 12 14 13 14 11 10 10 11 11 13 13 11 11 9 8 6 7 7
14 14 12 11 11 11 11 11 11 11 10 9 7 7 6 6 6 8 9 9 11 13 13 16 15 15 17 14 15 13 9 10 11 12 12 12 12 12 11 11 10 8 8
14 13 13 11 11 12 12 12 11 11 9 8 6 6 6 6 8 9 11 10 12 14 16 18 18 17 16 15 14 12 10 11 13 14 16 12 11 11 13 15 13 12 10
17 15 13 13 13 13 14 13 12 10 8 7 6 6 7 8 8 10 11 14 16 22 18 19 21 18 15 14 14 13 12 11 16 15 15 15 12 13 14 14 13 15 14
18 17 15 16 15 16 16 14 12 11 8 8 8 8 8 9 10 10 13 15 15 16 13 13 14 11 15 14 14 15 14 13 14 16 17 19 17 13 14 14 13 13 16
18 18 18 17 18 19 16 14 13 11 9 8 6 7 8 11 11 12 13 10 16 10 11 14 15 8 13 15 17 16 13 15 15 17 19 21 19 17 12 11 13 14 15
21 23 22 21 20 20 19 16 14 10 8 8 6 7 6 8 7 6 9 13 10 12 14 12 10 10 12 15 15 17 14 13 16 17 20 19 17 13 8 8 10 12 12
17 18 21 30 24 23 22 22 18 15 10 7 9 5 6 4 8 8 11 11 10 13 11 12 11 11 13 14 16 17 14 16 17 17 16 17 13 7 9 11 13 16 16
17 20 21 20 19 28 24 20 13 8 9 7 9 11 12 12 7 8 6 9 10 13 15 12 14 15 16 16 16 17 17 18 16 16 15 15 11 9 9 10 14 14 12
22 18 22 21 23 26 22 16 13 11 9 6 9 12 11 11 13 10 12 8 10 14 15 16 15 15 18 20 19 18 20 20 16 17 16 15 18 18 19 15 10 8 11
21 21 12 4 20 16 6 13 24 31 27 27 22 13 15 14 11 12 11 13 13 13 16 14 16 17 18 19 18 19 19 19 19 16 14 18 22 23 19 16 19 13 13
28 23 19 19 19 20 22 22 22 18 21 24 20 15 16 18 18 17 17 15 14 12 12 16 18 17 18 18 17 17 18 19 21 15 17 19 23 22 19 17 20 23 18
23 23 26 25 20 21 20 22 21 19 15 14 15 15 16 17 16 16 16 14 12 13 12 12 15 15 16 17 18 18 19 18 19 17 16 20 23 21 18 17 15 17 20
18 22 22 23 23 23 22 23 22 19 15 14 15 15 17 16 17 18 18 17 16 10 10 11 12 13 14 14 16 16 18 17 17 16 17 20 20 19 17 12 10 13 13
18 22 23 24 24 25 25 25 24 17 16 15 16 16 16 17 17 18 18 18 19 18 14 13 15 14 15 17 16 16 17 18 18 17 17 23 18 17 15 11 9 9 9
18 22 23 24 25 25 25 25 21 18 17 16 16 15 17 17 18 19 18 18 19 19 21 18 19 16 17 18 17 19 19 18 18 15 16 22 17 15 13 11 11 9 9
17 21 24 25 26 26 25 23 19 17 16 15 14 15 17 17 18 18 18 18 18 17 19 17 17 17 16 16 17 17 18 16 14 15 18 19 16 13 13 12 11 9 9
16 20 23 25 25 24 22 19 17 16 15 13 15 17 18 18 18 19 20 19 18 18 17 19 20 18 18 18 19 18 18 17 16 17 17 16 16 13 13 11 10 9 8
16 19 22 23 23 23 21 19 18 16 13 14 17 17 18 18 18 19 20 18 17 15 15 17 17 16 16 17 17 18 17 17 16 17 16 15 14 14 13 11 10 9 8
18 20 22 22 23 22 21 19 17 14 13 15 16 18 18 18 18 16 14 12 12 12 13 13 14 13 14 13 13 13 14 15 17 14 14 14 13 11 11 10 10 8 8
20 21 22 22 22 20 19 17 15 14 14 15 15 17 17 15 14 11 10 11 11 11 12 12 13 13 13 13 13 13 14 14 13 11 13 12 11 10 9 8 8 6 6
21 22 23 22 22 20 19 17 15 14 14 15 15 15 15 13 11 12 11 10 10 11 10 10 11 12 13 12 14 13 13 13 14 11 9 9 9 9 8 7 5 4 3
23 24 24 24 22 20 18 17 15 14 13 13 11 12 12 11 12 12 10 10 10 9 11 12 13 14 13 13 12 12 12 12 11 10 9 7 6 7 7 6 5 4 3
24 23 22 22 20 19 18 16 14 13 12 12 11 11 12 12 13 12 11 11 10 10 10 10 9 10 11 11 10 10 10 10 8 7 7 5 5 6 6 6 7 5 5
24 24 23 22 21 20 19 18 16 15 13 13 12 12 14 14 14 13 12 11 10 11 9 7 8 9 8 8 9 11 9 7 7 5 4 5 4 3 3 5 7 7 7

GFSMA_850_spd_099.txt.gz
Wind_Speed
16 15 13 14 12 11 11 10 9 8 6 6 6 5 4 4 4 4 4 9 8 7 8 8 8 10 12 12 11 12 12 10 11 11 12 12 12 12 11 10 10 10 9
15 15 13 12 12 12 11 10 8 8 7 7 6 6 6 5 5 5 4 8 12 12 11 9 9 12 13 14 14 10 11 8 10 12 14 15 14 13 12 11 10 10 10
16 16 13 13 12 12 10 10 8 9 8 8 7 6 6 5 6 5 7 6 11 12 13 14 14 13 14 16 14 11 7 6 9 12 14 16 13 11 12 13 13 13 12
16 16 15 13 11 11 11 9 9 9 8 7 6 6 6 6 6 7 7 8 8 9 12 13 17 16 14 13 14 11 7 7 9 11 15 16 15 13 14 14 12 15 13
18 17 16 14 13 12 11 11 10 9 8 8 6 7 9 6 7 7 7 9 11 13 13 12 15 14 13 12 12 15 10 10 10 12 14 17 18 17 16 16 16 12 15
19 20 16 14 12 12 11 11 11 10 9 9 10 7 7 8 8 8 9 8 8 12 10 8 9 11 10 9 13 14 12 11 10 13 14 18 20 18 18 15 15 14 13
18 17 17 13 14 13 11 12 11 12 12 12 9 7 8 8 8 12 8 3 8 8 9 10 8 8 9 9 15 16 15 14 11 12 15 17 18 15 16 13 9 11 13
16 17 17 16 15 15 15 14 13 14 15 11 8 7 5 3 7 7 7 8 6 9 11 11 10 8 10 10 12 16 16 16 14 13 16 17 15 14 11 8 11 13 14
17 17 16 17 20 21 19 18 18 21 15 13 9 4 2 4 4 8 8 8 6 8 10 12 13 11 13 9 12 14 16 15 14 14 14 15 14 10 11 12 12 16 20
12 16 18 17 17 17 22 24 23 20 17 11 7 6 8 8 2 5 8 11 14 10 12 12 12 14 15 14 13 15 15 16 15 14 14 14 12 11 13 17 17 16 13
11 12 12 13 18 20 16 18 25 30 13 14 10 8 7 6 7 8 11 8 12 14 16 12 15 14 16 16 17 17 17 16 16 16 13 12 16 15 16 16 15 15 12
18 20 20 14 16 23 19 7 2 21 30 24 22 19 16 17 17 16 13 14 17 15 16 17 14 15 18 17 16 16 16 16 16 14 14 13 17 17 19 19 13 15 20
26 23 24 25 21 14 19 14 21 25 28 25 26 25 25 22 16 17 20 20 16 15 12 16 14 15 16 16 18 16 15 15 15 18 17 18 17 20 21 21 19 17 17
22 30 30 28 23 22 20 19 24 23 21 19 18 17 15 16 17 18 18 17 16 15 11 13 17 14 14 14 15 15 16 16 16 19 19 18 18 20 21 21 19 15 13
21 21 24 29 32 31 26 26 27 24 22 20 19 19 18 18 19 19 20 19 16 9 6 7 14 14 13 14 13 14 15 14 14 15 16 16 16 21 21 19 14 13 13
18 19 20 28 28 27 26 27 27 25 24 22 21 20 20 19 18 19 18 16 17 17 13 14 16 18 16 16 15 14 14 15 17 18 17 17 17 21 19 14 13 11 10
17 20 20 21 26 29 30 29 27 26 26 23 23 21 19 19 19 18 18 17 17 17 16 16 18 19 19 16 16 16 16 16 16 16 17 15 17 22 17 14 12 11 10
18 19 20 25 29 32 30 29 28 28 27 24 21 20 20 19 18 18 19 18 19 18 18 18 21 19 16 15 16 17 17 17 15 15 14 17 18 17 14 13 13 11 11
17 18 20 26 29 28 29 29 28 28 25 23 21 20 20 17 17 18 19 20 21 19 18 18 17 17 18 18 18 18 18 17 16 16 16 16 19 16 13 11 11 9 9
16 18 20 25 27 29 29 28 28 26 24 22 21 20 18 17 18 19 19 20 21 19 16 15 16 19 17 17 17 16 15 15 15 15 15 18 14 14 14 11 10 8 6
17 17 20 24 26 26 26 26 26 24 22 21 19 18 18 19 19 20 20 20 18 15 13 12 15 17 16 14 14 12 11 12 12 14 16 12 12 12 11 11 9 7 6
17 19 20 22 24 25 26 25 24 22 21 20 19 18 19 18 17 17 16 15 14 12 12 13 14 14 13 13 13 11 10 11 11 10 10 12 11 9 9 9 7 5 5
21 22 23 24 25 26 24 23 22 22 21 19 18 17 17 17 16 15 14 12 12 12 13 14 12 12 14 12 12 12 11 13 13 10 9 10 8 8 7 6 5 4 4
24 25 25 26 26 26 24 23 23 22 20 18 17 16 15 15 14 13 13 12 13 13 13 15 14 14 14 12 14 14 14 13 11 9 9 9 6 7 6 5 5 3 4
26 26 27 28 28 27 24 24 23 21 20 18 17 16 14 14 13 13 15 13 13 13 12 13 13 14 14 14 13 12 12 11 10 8 8 7 5 4 5 5 5 4 4
28 27 28 29 29 28 26 26 24 23 21 19 18 16 14 14 13 13 15 14 14 13 12 11 11 11 11 12 12 12 10 10 9 6 7 7 5 3 2 3 3 4 4

GFSMA_850_spd_102.txt.gz
Wind_Speed
24 19 19 19 17 13 10 7 6 7 8 5 7 6 4 3 3 3 8 8 11 10 9 7 5 6 9 10 10 9 8 7 7 8 10 12 13 11 10 9 10 10 9
24 18 16 17 15 15 16 13 10 8 5 6 6 2 1 4 8 7 6 8 9 11 13 9 8 9 12 12 12 10 8 4 4 8 11 14 15 13 11 11 11 11 10
27 26 23 21 19 16 14 12 10 7 7 5 6 9 7 6 6 4 6 8 10 12 10 9 11 10 10 14 13 12 8 5 5 7 11 14 15 15 13 13 12 14 13
25 24 21 18 15 13 12 11 12 12 13 12 9 6 4 6 4 5 6 7 8 10 16 17 16 14 13 14 12 13 9 6 6 6 9 12 16 17 15 14 13 14 12
23 21 19 16 14 12 12 11 10 12 10 10 12 8 10 8 6 7 7 8 14 18 17 16 12 11 9 9 12 13 10 10 8 8 9 12 13 17 16 15 15 13 12
22 20 19 15 13 13 12 11 11 12 12 8 10 12 12 10 11 11 12 13 16 12 11 7 9 10 10 7 9 13 11 11 10 10 10 13 14 15 15 16 13 10 10
19 21 19 17 14 12 10 10 9 12 11 12 13 13 9 10 11 13 14 13 10 11 9 8 10 10 12 8 10 14 14 13 11 12 12 13 13 14 13 14 9 9 10
18 16 18 16 15 15 14 12 13 13 15 15 15 11 11 10 15 13 10 9 9 9 11 10 9 13 11 7 8 11 15 14 13 13 13 14 14 12 10 9 12 14 14
18 18 18 17 17 16 14 17 17 19 19 19 17 11 7 5 8 6 10 9 9 9 12 11 11 13 11 8 9 13 15 15 17 15 14 15 12 10 7 10 13 13 16
16 16 19 16 17 16 16 18 20 23 22 18 17 16 10 10 5 5 9 9 12 12 13 14 15 14 15 13 13 13 16 18 15 15 13 14 13 14 13 13 11 14 12
14 15 17 16 17 16 17 20 20 25 26 21 25 18 17 15 11 12 13 8 13 13 14 17 15 18 19 16 13 13 15 17 16 14 12 14 14 17 18 16 17 15 15
17 17 18 17 14 12 11 15 17 20 21 12 21 23 21 24 17 15 21 19 19 16 19 17 15 17 19 18 15 14 14 15 15 14 13 14 17 16 17 17 16 17 18
23 22 21 19 21 18 13 6 5 13 20 22 25 24 23 23 25 25 20 17 17 15 15 16 18 14 14 16 15 14 14 14 13 14 13 17 17 18 18 20 19 18 19
28 26 25 28 24 19 17 21 24 24 26 24 25 25 25 24 22 20 19 19 18 17 16 14 18 18 14 12 11 12 11 12 14 14 13 16 15 16 18 19 20 19 18
23 21 21 24 29 30 25 26 25 23 24 21 20 21 20 18 19 18 20 20 19 16 11 14 18 18 14 14 13 12 11 12 15 12 15 16 16 15 19 20 19 17 16
21 24 25 25 25 30 35 32 30 28 27 27 23 20 21 20 21 22 22 21 20 20 17 14 17 18 17 18 17 14 12 11 12 13 16 14 15 17 18 19 14 13 13
20 21 21 20 19 19 26 29 31 28 28 25 25 23 22 22 24 22 21 20 19 17 19 22 22 21 19 18 18 13 13 12 13 15 15 15 15 14 19 16 14 13 12
17 17 19 19 19 19 27 32 31 31 28 28 26 25 24 23 22 21 20 20 19 19 21 20 21 18 20 19 14 14 15 15 16 15 13 13 15 15 20 15 14 13 11
16 17 18 20 20 22 26 30 32 32 30 30 27 26 24 23 22 21 22 20 20 20 21 21 20 20 18 15 16 16 16 16 16 14 14 16 17 17 15 13 13 11 8
17 17 18 19 20 25 27 31 32 30 29 29 28 26 24 24 22 22 23 21 22 23 23 22 21 19 17 16 16 16 14 13 12 12 13 14 16 16 12 13 10 9 7
17 19 19 20 20 24 26 27 28 29 29 28 28 26 25 24 23 23 23 23 23 24 24 22 19 17 17 16 14 13 12 11 10 11 12 14 13 13 11 10 8 7 7
17 19 20 21 21 24 27 28 28 29 29 29 28 26 25 24 23 25 25 25 24 22 19 18 20 18 14 13 13 12 11 11 10 11 12 9 10 9 8 8 6 5 6
18 20 21 21 22 24 25 25 26 28 28 28 27 26 24 23 23 22 22 20 19 19 18 19 17 17 14 12 13 13 12 12 12 11 9 7 7 7 7 5 5 3 3
20 22 22 23 24 24 24 26 27 29 29 28 27 26 24 22 22 20 18 18 17 18 19 18 17 16 14 11 13 13 13 13 12 11 9 8 7 5 5 4 3 2 1
20 23 24 25 26 26 26 27 28 30 30 28 27 26 25 23 20 18 19 17 17 19 16 17 17 17 15 14 14 14 14 13 14 10 9 8 6 5 4 4 4 2 2
21 21 25 26 26 27 28 27 29 30 31 30 29 27 25 22 18 18 19 17 17 18 17 16 15 17 16 15 16 14 13 12 13 8 9 9 7 5 4 3 2 2 2

GFSMA_850_spd_105.txt.gz
Wind_Speed
33 30 30 29 24 20 17 15 13 11 9 7 8 7 5 6 3 1 5 7 6 6 9 8 6 6 10 11 10 10 9 7 4 5 8 12 13 12 9 10 9 9 8
29 28 25 23 21 20 18 16 14 10 6 9 8 6 7 4 4 6 5 6 5 7 9 6 6 7 12 13 12 11 9 7 3 4 7 10 12 14 12 10 11 11 12
25 25 25 26 23 21 17 14 12 13 11 8 8 9 7 7 6 7 7 7 7 10 9 9 12 13 11 13 14 13 9 6 6 5 6 9 11 14 15 13 12 13 12
25 27 26 25 23 20 19 17 15 14 13 12 11 10 10 7 6 9 10 7 8 10 12 16 18 16 14 13 12 14 10 9 8 7 7 7 11 15 15 15 14 13 11
29 29 25 23 23 21 20 17 16 15 15 15 13 11 9 7 9 10 10 11 13 15 18 20 17 12 10 9 9 12 11 10 11 10 10 9 11 14 15 15 15 11 9
29 29 27 24 22 21 19 18 17 16 13 12 12 12 9 10 12 14 16 17 18 19 17 12 9 10 10 8 8 11 13 11 12 12 11 12 12 13 13 15 12 8 8
28 27 26 23 22 21 18 16 16 16 15 15 14 15 15 15 16 18 19 17 18 14 10 8 9 9 10 11 7 13 12 12 15 15 14 13 12 13 13 13 10 11 12
27 26 26 23 21 19 18 17 17 16 16 18 17 14 14 15 17 16 17 15 14 10 9 9 11 11 12 12 7 12 15 14 16 14 14 14 13 14 13 11 12 15 14
23 22 24 24 23 21 19 19 19 19 19 20 22 17 10 12 18 17 18 13 10 9 10 12 13 15 15 14 9 11 14 17 15 13 15 16 15 13 15 14 16 15 14
25 24 22 23 22 21 18 18 18 19 20 23 27 25 21 14 14 11 19 15 12 11 12 17 17 17 16 14 13 13 15 15 17 17 14 14 14 13 16 15 16 15 14
23 22 23 21 19 18 20 21 21 20 26 26 28 28 26 21 15 13 11 14 15 14 18 18 19 19 18 15 13 13 15 17 17 17 16 13 16 18 17 18 19 18 17
18 19 22 18 23 22 23 17 17 18 27 28 27 26 28 30 26 21 17 19 16 18 19 19 20 20 20 18 15 15 15 15 14 15 15 18 17 18 19 19 20 20 19
19 17 15 18 18 19 20 20 20 23 22 18 21 23 26 24 20 22 19 21 22 18 17 18 20 21 17 17 17 15 14 14 13 13 14 20 19 20 21 22 22 22 20
26 25 27 27 20 23 24 27 25 25 22 20 20 18 18 18 22 22 24 23 20 19 20 22 22 22 19 16 15 14 14 12 13 15 17 17 16 17 18 20 19 23 22
21 15 16 20 22 25 26 26 27 29 23 21 28 24 22 24 24 25 24 21 19 18 19 21 21 21 19 17 15 14 13 13 13 15 16 16 16 18 18 19 19 23 20
28 29 26 21 26 28 28 33 31 29 27 25 23 22 22 23 24 24 22 20 20 20 22 18 19 19 17 17 17 18 16 14 11 14 15 15 15 16 18 18 20 21 18
17 18 23 26 26 26 26 33 35 35 32 31 31 26 26 25 25 24 21 21 22 22 23 25 24 21 21 23 20 19 16 12 12 13 14 15 15 15 15 17 22 17 17
12 14 17 19 21 22 24 23 25 28 33 33 29 28 28 28 27 25 22 22 23 22 22 23 23 23 22 21 17 19 16 15 15 15 16 16 16 16 18 20 20 15 15
13 14 15 16 18 20 20 23 27 28 32 33 30 30 28 29 27 26 24 24 23 22 22 21 21 22 22 22 21 18 18 16 17 16 16 17 17 17 17 21 16 14 12
14 14 16 18 19 19 19 21 24 26 30 31 30 29 30 29 27 26 25 24 22 21 21 20 22 23 23 21 20 19 17 17 17 16 16 17 16 15 17 15 12 13 10
15 16 16 17 18 19 19 21 24 26 27 29 30 28 27 27 26 26 25 23 22 22 23 22 24 24 24 20 19 16 16 17 16 16 16 15 15 16 12 12 10 10 8
15 18 19 18 18 18 18 20 23 24 25 24 25 27 27 28 27 27 25 26 25 24 25 23 24 25 23 18 18 15 17 15 15 16 15 16 15 11 10 9 7 7 6
16 17 18 20 20 20 20 21 23 24 24 26 27 27 28 27 27 27 28 26 26 26 25 23 22 21 20 17 15 16 16 16 15 14 11 12 10 9 7 8 5 4 4
17 18 19 20 22 22 21 22 23 25 25 26 27 28 28 28 27 27 27 26 26 24 24 21 19 17 16 15 15 14 16 17 17 16 13 14 10 10 7 6 4 3 2
20 20 20 21 24 24 22 23 25 27 28 29 29 30 30 29 28 29 29 27 26 24 23 21 20 18 18 15 16 18 22 19 20 15 13 13 10 8 7 6 5 3 2
20 20 22 22 22 24 24 25 26 27 31 31 31 32 32 31 30 30 29 27 26 23 21 20 20 19 21 19 21 19 21 19 19 13 14 15 11 9 6 6 5 4 3

GFSMA_850_spd_108.txt.gz
Wind_Speed
31 31 32 29 28 27 25 21 17 15 13 11 12 10 8 8 7 5 2 2 3 3 7 5 3 5 9 10 9 10 10 8 6 4 5 7 11 12 12 11 11 11 12
31 29 35 33 31 27 24 21 18 15 13 11 12 10 9 10 9 7 5 3 5 7 7 8 6 6 10 12 11 11 11 9 7 7 6 7 10 12 14 14 13 13 14
30 34 36 36 31 25 24 21 19 17 15 12 12 12 12 11 9 6 5 8 8 10 10 11 11 13 15 15 14 13 12 10 9 8 8 9 9 12 14 15 15 14 14
27 31 32 32 27 26 25 22 20 18 15 15 13 14 13 11 10 10 11 11 11 14 13 13 16 18 17 15 12 11 12 10 10 11 10 10 11 13 14 16 16 15 13
26 25 28 30 29 28 26 23 20 18 18 17 16 15 14 11 12 13 12 15 13 16 16 16 20 16 12 11 10 8 13 11 11 11 11 11 12 14 15 17 16 15 11
32 32 31 28 30 29 26 23 22 21 20 18 17 16 16 15 16 17 16 16 16 18 19 21 16 11 10 9 8 7 14 12 12 12 13 13 14 16 15 16 17 14 12
29 26 29 29 28 27 26 24 23 22 21 17 18 18 17 17 18 19 20 20 20 20 18 16 13 11 9 9 9 10 14 12 13 16 15 16 13 15 15 16 16 13 15
30 31 33 31 29 28 26 24 25 23 21 20 20 20 20 21 21 21 23 21 19 19 15 11 10 10 10 11 9 10 14 15 16 15 17 14 14 15 17 16 16 17 17
31 32 33 32 30 27 26 25 24 24 24 23 25 21 10 13 21 25 24 22 19 17 14 9 8 12 12 12 10 11 14 17 17 16 15 17 17 16 18 16 18 17 17
32 33 31 30 30 28 25 23 24 25 25 24 25 29 28 16 12 12 25 24 20 18 15 11 14 15 15 15 14 14 15 17 16 16 17 16 15 16 14 20 19 18 17
30 31 30 29 28 27 27 24 24 22 22 22 27 27 27 29 26 21 22 25 22 17 17 15 19 17 18 16 14 14 15 16 17 16 15 16 18 20 22 21 22 22 20
25 27 29 27 25 23 23 21 21 22 24 27 23 28 30 32 35 29 20 20 22 18 19 22 21 21 19 17 16 15 14 16 16 16 15 18 21 22 21 22 22 22 24
20 21 24 23 21 24 25 28 27 32 28 27 28 32 34 35 37 31 22 19 18 18 20 24 22 22 21 18 17 15 13 15 16 13 14 20 21 22 23 23 22 23 24
21 30 25 20 20 24 27 27 28 28 29 28 30 31 28 29 29 31 22 25 22 21 22 23 21 23 22 19 17 15 14 14 14 12 16 20 22 23 20 20 23 24 24
19 22 25 26 25 25 26 27 27 34 36 32 31 24 27 22 24 22 24 27 26 22 21 23 24 23 21 20 18 15 16 15 16 16 17 19 21 21 20 20 22 25 22
20 24 24 26 25 23 28 27 26 29 31 25 29 29 29 28 27 27 28 27 26 23 23 19 19 20 19 18 17 17 18 17 16 16 16 18 20 18 18 19 22 22 24
10 14 20 27 29 29 30 34 32 33 35 29 34 33 33 29 27 25 25 25 24 23 24 23 22 21 20 19 18 20 20 18 16 14 13 16 17 17 19 19 20 22 26
9 11 13 17 20 23 24 24 25 29 31 36 40 39 40 35 33 29 27 26 24 24 23 23 22 22 23 22 22 18 18 19 17 14 16 18 18 19 19 20 20 23 21
8 10 12 14 15 17 20 22 25 27 28 29 32 36 41 38 30 32 29 26 24 25 23 24 23 22 22 22 21 19 20 18 17 16 18 19 19 18 19 20 21 22 18
10 11 14 16 17 18 19 18 20 24 27 28 30 31 34 33 29 31 27 25 26 25 25 25 24 24 23 21 22 22 21 18 17 18 18 17 18 18 18 18 20 18 16
10 11 13 15 16 16 17 18 20 21 24 26 27 28 29 30 32 34 27 27 26 27 25 25 25 26 26 24 23 18 18 16 17 17 17 18 17 16 18 19 16 15 13
12 13 15 17 18 19 18 19 20 22 23 26 27 27 29 29 29 27 27 28 26 25 27 25 27 30 28 25 24 19 17 16 17 16 18 18 18 17 17 16 14 12 11
18 18 18 17 18 20 20 21 22 24 24 24 24 24 25 26 26 27 29 30 29 30 31 31 32 29 27 22 19 20 19 16 16 17 14 16 15 13 12 13 12 9 7
18 21 22 22 22 22 22 23 23 24 25 25 25 26 27 27 27 27 28 29 29 29 28 30 28 23 21 18 20 18 15 15 18 17 18 18 15 12 11 12 10 8 7
19 21 23 25 26 26 25 25 25 27 27 27 25 26 27 28 27 27 29 30 29 31 29 29 26 24 21 18 18 20 21 21 21 20 20 16 15 11 11 12 10 8 6
22 21 21 20 22 24 23 23 21 27 30 30 29 28 29 29 28 28 31 32 32 30 29 28 26 24 23 21 21 20 19 22 22 18 20 19 16 11 8 13 11 8 7

GFSMA_850_spd_111.txt.gz
Wind_Speed
35 31 30 30 30 30 27 25 21 18 16 15 14 14 13 11 11 9 7 3 4 4 4 6 5 6 8 10 11 10 11 10 9 8 7 8 10 12 14 13 13 13 13
38 35 31 32 31 31 29 26 23 19 16 15 15 15 13 13 11 10 8 7 5 6 8 9 8 8 9 12 13 11 11 10 10 9 8 9 10 11 13 14 16 16 15
40 40 34 33 34 33 30 27 24 21 19 18 16 16 15 15 13 12 9 9 10 10 11 13 14 13 15 16 13 13 13 11 11 10 10 10 11 12 14 15 17 17 16
41 42 38 34 35 33 30 29 25 23 21 19 16 15 15 15 15 14 14 15 12 14 15 16 15 17 19 17 13 12 11 12 11 10 11 12 12 13 16 16 16 17 15
50 47 40 34 35 34 30 29 26 24 22 21 18 16 17 17 16 16 17 15 16 16 17 17 17 20 19 13 11 10 10 14 11 10 12 13 15 16 17 16 17 16 13
38 32 27 30 32 33 30 29 28 24 23 19 16 18 17 18 19 19 19 18 18 18 19 19 20 19 15 12 10 9 12 16 12 12 13 15 15 16 15 18 18 17 14
25 23 24 27 29 32 31 30 26 24 24 20 19 20 20 20 22 23 22 20 20 21 21 22 21 17 13 11 10 8 13 12 13 14 16 17 16 15 18 18 18 17 16
41 27 31 31 31 34 33 30 29 26 24 23 21 19 19 23 26 23 23 22 23 23 22 20 19 15 11 10 11 9 11 16 17 17 16 18 16 15 16 17 18 16 15
31 29 26 29 36 33 33 31 28 28 29 24 24 19 11 13 19 28 27 26 26 25 22 21 18 14 11 13 12 11 13 17 20 19 18 17 17 17 17 18 17 20 18
31 31 33 29 28 31 29 28 28 29 27 25 24 27 27 18 9 9 21 29 29 28 26 23 20 18 16 15 15 13 15 18 19 19 18 18 16 16 15 19 21 22 22
27 29 25 26 30 32 32 30 30 29 27 26 26 25 25 29 30 23 20 22 27 30 28 25 22 20 19 17 17 16 16 17 18 18 18 17 17 20 21 21 23 23 24
27 28 27 26 30 31 32 31 30 26 24 23 24 26 28 28 30 30 34 40 37 33 31 26 25 23 21 20 18 18 16 15 16 17 16 16 19 20 21 23 23 25 24
24 21 23 25 27 28 27 26 26 25 23 25 24 28 29 33 38 41 38 39 35 34 32 28 26 26 24 21 18 19 16 14 14 14 15 16 21 19 22 23 26 23 23
16 15 15 17 18 19 19 21 24 29 32 33 33 34 37 38 37 40 37 39 30 29 25 27 25 26 24 21 21 20 17 16 14 14 17 20 20 20 23 23 24 23 23
13 20 20 23 20 19 22 26 30 33 31 30 31 33 38 38 37 35 31 28 28 21 30 31 27 25 23 22 20 19 17 16 15 16 17 18 20 20 21 23 23 21 23
11 13 19 19 25 29 25 24 28 35 32 33 31 33 37 36 30 28 27 29 30 32 32 21 22 23 19 20 20 19 18 17 18 18 18 19 19 20 22 21 20 21 22
12 11 13 18 23 26 30 33 32 28 31 35 32 30 32 31 33 33 32 33 39 37 33 28 24 21 21 21 20 20 20 20 21 19 18 18 17 17 18 19 21 21 22
6 6 9 13 17 20 21 21 21 24 28 29 30 31 30 33 40 38 40 35 35 31 27 27 28 25 24 21 21 22 23 23 21 19 17 15 17 17 18 19 21 21 22
4 6 8 10 11 13 16 19 24 26 27 30 29 30 32 33 34 36 33 36 36 31 28 29 29 24 24 23 24 25 24 22 21 18 18 16 17 16 18 19 18 21 20
6 8 10 11 12 13 16 18 19 20 23 25 28 30 32 33 33 38 32 35 35 31 26 25 29 25 23 26 25 26 24 22 22 20 19 18 18 16 16 17 18 20 17
8 10 11 13 14 16 17 19 20 22 24 25 26 29 30 29 30 31 31 31 29 29 26 25 29 26 20 28 31 26 23 22 23 21 19 17 17 16 15 16 17 17 16
14 14 16 17 17 18 21 23 25 27 26 26 27 27 28 28 29 29 30 31 27 28 29 28 28 30 21 27 28 27 26 25 24 20 19 18 17 15 15 17 16 14 12
15 16 17 19 20 20 22 24 25 26 29 28 27 26 28 27 25 25 25 27 26 28 28 28 27 34 25 25 28 29 29 28 22 17 12 14 15 14 16 14 13 11 9
17 19 21 22 23 24 25 26 26 26 28 30 30 28 27 26 26 26 27 28 29 28 29 29 31 28 26 25 28 27 21 20 19 18 18 17 16 13 14 12 12 10 7
19 19 20 22 24 24 26 28 28 30 31 31 31 30 29 29 26 25 27 28 28 28 26 27 28 27 27 25 26 23 24 22 23 22 20 18 17 12 14 13 12 10 7
24 25 24 23 23 23 22 24 26 28 30 30 30 31 30 29 28 27 29 29 31 31 27 28 29 28 28 26 25 22 22 24 25 20 21 21 18 12 8 14 13 10 9

GFSMA_850_spd_114.txt.gz
Wind_Speed
26 28 27 27 26 26 30 28 25 22 20 18 16 15 14 12 11 11 10 7 5 5 5 4 5 6 6 8 10 12 11 11 10 9 8 8 9 10 12 13 13 14 13
26 29 29 28 29 28 30 29 26 24 21 19 17 16 15 15 14 13 11 10 8 6 7 7 8 9 10 11 13 13 12 13 11 9 9 10 10 11 13 13 13 15 14
27 32 33 32 34 31 30 29 27 25 22 21 19 18 17 17 16 14 13 12 12 12 12 12 11 13 14 16 16 14 12 14 12 11 11 11 11 12 13 15 14 15 15
29 36 35 34 39 35 33 32 29 27 25 22 20 18 18 18 18 17 15 14 14 14 15 17 15 16 17 19 18 13 11 13 13 12 12 12 12 12 15 17 16 16 15
32 38 38 38 40 43 38 33 31 29 26 23 20 17 17 18 18 18 18 18 16 15 15 15 16 18 19 20 15 12 11 13 14 13 12 12 14 15 14 15 14 19 16
35 33 43 44 43 40 36 34 31 30 28 24 20 19 19 19 20 21 21 20 18 16 18 16 18 19 20 17 13 11 11 15 14 14 13 14 16 17 17 15 14 16 18
33 31 39 47 45 38 29 30 31 30 28 23 20 21 21 21 23 24 24 21 21 19 20 18 20 21 19 16 13 12 11 12 13 15 17 17 15 15 17 15 15 15 16
33 28 36 36 31 24 29 33 30 31 29 24 21 20 21 22 26 26 24 24 22 21 21 21 22 21 19 15 13 12 10 13 15 17 19 18 16 15 16 18 16 17 18
29 31 28 23 28 35 40 33 28 31 28 24 23 20 8 13 12 17 25 24 23 24 25 24 25 23 20 16 13 14 13 15 17 19 20 19 15 14 17 15 17 17 22
28 34 33 27 17 21 32 30 27 31 28 27 26 26 29 18 7 5 8 13 21 26 28 29 26 24 22 21 19 16 15 15 17 20 22 19 18 17 16 20 19 21 21
26 32 36 27 32 25 27 34 35 35 32 31 30 30 28 29 30 30 27 24 23 23 26 31 32 30 28 25 22 20 20 17 19 20 17 17 17 18 20 21 21 20 23
22 30 33 29 26 24 28 31 33 32 32 33 32 32 30 29 25 27 29 30 34 34 40 36 36 37 33 28 25 22 20 20 19 16 16 17 19 22 20 20 21 23 23
23 18 23 29 24 22 26 25 27 28 27 28 27 28 30 30 28 33 32 34 40 42 42 41 39 37 36 31 27 23 22 21 18 17 16 16 21 20 21 21 22 23 24
25 21 18 16 19 21 23 25 23 25 26 27 31 30 31 33 34 35 36 36 33 36 39 37 36 39 37 28 28 24 24 22 19 18 17 20 19 21 21 21 22 23 23
16 18 18 16 15 18 23 25 28 27 25 28 32 34 34 34 33 34 37 41 39 30 28 31 35 29 29 32 32 26 27 23 21 19 18 19 21 22 22 21 22 21 21
5 7 13 17 19 21 22 20 20 23 27 28 31 37 35 34 36 36 35 38 34 31 32 28 28 29 34 33 29 29 27 24 21 20 20 20 21 22 21 21 22 20 19
5 6 8 10 15 17 17 22 25 27 29 33 30 30 32 33 33 29 30 29 33 34 36 36 35 31 27 26 27 28 26 23 22 21 21 20 20 20 20 19 19 18 19
2 3 5 6 8 10 12 16 20 19 21 20 21 23 24 28 28 29 32 32 39 39 37 38 35 29 26 25 27 27 24 25 22 21 21 21 20 19 19 20 19 18 18
3 4 4 4 6 8 10 13 17 20 23 26 28 29 30 30 31 31 31 34 33 31 34 35 34 29 25 25 27 28 24 25 24 22 21 20 20 20 19 19 19 17 17
6 6 7 8 9 11 13 15 17 19 21 22 24 25 26 28 29 28 30 31 31 31 30 34 33 31 30 26 26 26 24 26 26 22 23 23 22 23 20 19 18 17 17
8 9 10 11 12 13 15 17 19 21 23 25 25 26 27 28 30 32 32 29 28 27 28 31 33 32 32 32 33 28 22 22 25 26 27 25 24 22 21 19 18 19 15
11 12 13 15 16 18 21 24 25 26 27 28 29 29 28 27 27 27 28 30 30 27 27 28 34 33 35 34 29 27 24 25 27 30 28 27 25 22 20 18 18 17 14
14 14 16 18 19 20 22 24 26 27 28 29 31 32 33 31 29 28 29 28 28 25 27 28 32 35 33 35 30 27 28 29 28 29 24 17 22 21 20 19 18 15 11
15 16 17 19 20 20 22 25 27 28 30 30 30 30 31 31 28 30 31 30 30 29 27 29 32 35 33 28 30 24 26 25 27 27 24 22 19 19 17 17 15 13 11
14 15 16 18 19 20 20 23 25 27 28 30 31 31 28 28 28 29 31 32 31 31 29 30 30 29 30 27 29 27 29 28 28 27 25 23 22 18 17 17 17 15 11
21 22 22 23 23 24 24 25 24 26 28 31 33 31 28 27 28 29 27 29 32 31 30 30 29 27 31 27 28 28 26 29 27 25 25 25 21 16 12 18 19 16 12

GFSMA_850_spd_117.txt.gz
Wind_Speed
23 23 24 23 24 23 22 24 25 23 22 20 19 17 15 14 12 11 11 10 8 6 6 4 4 5 5 5 7 10 11 10 10 11 9 9 9 10 11 12 14 14 15
17 21 23 25 25 25 24 24 26 25 24 23 21 19 17 16 15 14 13 13 12 9 8 8 5 6 7 9 10 12 12 12 12 11 11 10 11 11 12 13 14 14 16
17 21 24 25 27 26 25 24 27 28 27 25 23 21 19 17 18 16 15 15 14 13 13 12 11 11 11 12 14 16 14 13 13 11 11 10 12 12 12 13 13 14 16
22 23 26 28 30 30 26 26 26 29 28 27 25 23 22 20 20 19 18 17 17 16 15 15 17 17 15 15 16 17 13 12 13 13 11 11 13 13 14 14 13 13 15
26 26 27 30 33 32 32 33 29 28 29 28 26 24 24 22 21 21 21 20 18 18 17 17 16 16 16 17 18 16 13 12 12 13 12 13 13 14 15 16 15 14 16
27 28 28 31 35 38 38 37 30 29 30 31 27 26 24 24 22 23 22 21 20 20 19 18 19 17 17 19 19 16 14 15 13 12 14 15 15 16 16 16 16 14 14
31 31 32 33 34 39 41 36 36 36 33 32 28 27 27 26 26 25 24 23 22 21 21 21 21 21 19 20 19 17 14 15 13 14 15 16 18 18 16 16 14 15 15
33 33 32 34 34 37 43 33 35 37 33 30 27 25 21 25 27 25 27 26 24 23 23 23 21 22 22 21 20 19 16 15 15 17 18 19 19 18 18 15 17 15 17
32 30 28 31 31 32 35 38 34 36 38 35 29 25 10 12 14 17 18 22 24 23 23 22 21 24 25 24 23 20 19 18 18 18 19 20 20 18 18 18 18 16 20
21 24 25 28 30 31 30 34 35 40 38 40 31 27 27 28 16 11 8 8 16 16 19 21 20 20 26 28 28 24 22 20 20 20 21 22 22 20 22 21 21 21 23
18 23 24 26 28 28 25 31 35 38 35 35 33 24 31 33 34 33 28 28 29 28 24 23 26 30 32 35 33 29 29 23 22 22 22 24 24 23 23 22 24 25 25
17 21 23 25 29 31 25 26 32 31 28 27 27 30 36 33 31 29 35 34 31 30 30 32 34 36 40 33 37 36 32 26 25 23 22 22 23 20 23 23 24 26 23
23 20 24 25 32 36 32 30 30 32 30 33 34 35 34 31 31 28 31 32 33 36 37 39 41 40 33 34 38 41 37 31 24 23 23 23 21 23 25 24 27 26 24
21 22 17 13 19 30 31 19 27 29 27 26 26 26 26 27 31 31 33 34 35 34 38 43 46 42 33 31 37 38 28 26 23 22 23 23 23 24 24 24 24 24 24
24 19 18 12 12 11 14 17 16 17 19 22 24 25 26 28 33 39 36 32 32 31 35 37 43 36 29 25 30 32 28 29 24 24 24 25 25 25 26 26 23 23 23
6 6 9 12 13 14 12 15 19 21 25 27 25 25 30 32 32 38 34 32 32 34 38 36 33 29 26 26 27 31 31 31 26 24 27 24 25 26 25 23 23 22 23
7 5 3 15 14 13 14 16 21 24 26 22 24 27 29 26 26 24 24 28 29 26 30 37 37 36 33 29 32 33 33 29 29 27 27 27 25 25 25 25 23 21 21
5 2 1 1 3 7 13 12 11 12 16 24 26 28 26 24 25 27 28 31 30 30 32 35 34 33 38 37 32 33 32 32 31 30 28 28 26 27 25 23 23 21 20
6 4 3 1 1 2 3 6 9 11 15 18 21 23 25 28 30 30 31 33 32 32 32 33 35 34 35 35 32 32 34 31 30 28 27 28 28 26 24 22 22 20 20
6 5 4 4 3 4 5 7 10 11 13 15 17 20 21 23 25 26 28 29 31 32 32 34 33 33 36 38 38 35 35 33 34 30 27 28 29 28 26 23 22 21 21
5 5 5 5 6 7 10 12 14 15 17 18 19 21 22 24 25 26 28 29 29 30 30 30 33 34 35 35 37 36 41 37 34 31 30 30 32 30 28 26 22 22 21
5 5 6 7 8 10 13 15 17 18 19 21 23 24 25 27 27 27 27 27 28 29 29 29 31 36 37 37 41 39 38 39 35 35 34 32 32 31 28 27 23 22 20
7 9 10 11 13 14 16 18 20 21 21 21 22 24 26 26 26 27 28 27 28 28 30 31 33 34 35 38 37 40 39 44 36 36 34 36 34 31 28 26 23 22 20
8 9 10 11 12 14 16 18 19 20 20 20 22 23 25 27 26 25 27 28 30 31 29 29 32 36 37 35 36 34 39 42 37 35 31 30 28 26 25 24 23 22 20
10 11 13 14 15 16 17 18 20 22 24 24 24 24 24 23 22 22 25 28 30 32 33 32 30 32 34 32 33 31 29 32 38 37 33 31 27 23 23 23 23 22 19
16 17 17 18 19 21 21 23 24 25 26 26 26 27 28 25 23 23 23 26 33 34 32 31 32 32 29 28 30 28 27 32 35 31 30 30 25 21 18 24 23 23 20

GFSMA_850_spd_120.txt.gz
Wind_Speed
18 19 22 21 20 20 20 17 16 16 20 20 20 18 15 14 13 12 12 13 12 11 9 9 9 7 8 7 8 10 12 14 14 12 11 10 10 10 10 11 12 13 14
21 20 19 20 21 22 24 21 21 18 22 22 21 19 18 16 16 16 15 14 15 14 12 10 9 8 9 10 10 12 15 16 15 15 13 12 11 12 12 13 14 12 13
20 18 19 19 20 20 24 23 22 22 23 21 23 21 20 19 18 16 16 16 16 17 16 14 13 13 13 13 13 16 18 17 16 16 14 14 13 13 14 15 15 15 14
19 19 21 20 21 23 24 25 24 23 27 28 21 22 22 20 20 18 19 17 17 19 19 18 17 18 18 17 16 18 19 17 17 16 15 15 16 16 16 17 16 17 15
21 22 23 23 23 28 29 30 28 26 27 28 32 25 26 25 23 20 21 20 21 22 21 20 19 19 18 17 16 18 19 18 17 18 17 17 18 18 17 18 18 18 17
23 25 26 25 27 29 31 32 33 32 29 29 34 32 27 27 26 25 22 21 21 24 23 23 23 21 20 19 19 18 19 19 19 20 20 19 19 19 19 20 20 18 18
30 28 28 27 28 31 32 33 33 35 34 34 31 33 29 27 29 30 26 24 24 25 25 24 24 23 24 21 20 19 19 20 22 21 19 19 21 21 21 22 20 18 19
33 32 30 29 29 29 32 33 34 37 36 38 36 31 20 20 21 26 22 27 27 28 27 26 26 27 26 24 23 21 19 21 22 21 24 23 22 23 23 21 20 19 20
33 33 32 32 31 32 34 35 35 36 40 43 41 27 14 17 16 15 10 18 23 28 29 27 28 27 25 18 18 20 22 24 25 23 26 25 24 24 22 22 21 22 22
29 30 33 33 31 29 31 33 31 33 36 39 41 44 35 14 9 10 19 18 20 16 19 22 24 25 26 23 24 28 33 35 38 29 28 25 23 24 23 22 24 24 26
25 26 26 26 25 26 29 32 31 27 38 39 38 32 40 29 24 18 21 31 30 27 30 31 28 26 28 31 30 39 38 35 33 35 35 28 27 26 23 23 25 23 27
21 21 23 22 25 25 29 30 27 29 30 36 37 33 31 30 27 24 26 35 37 36 33 34 33 36 34 35 40 40 39 35 36 36 34 27 27 22 24 21 25 30 28
22 20 20 21 25 23 29 30 29 31 30 31 33 32 31 31 29 29 29 33 33 37 37 37 42 39 39 42 44 45 36 38 40 41 34 30 25 23 25 25 32 30 28
23 22 20 21 23 19 27 34 30 26 29 30 30 27 29 31 29 28 30 31 32 35 39 46 43 39 38 41 38 31 34 39 41 39 33 30 27 26 26 26 32 29 31
25 25 22 20 19 14 16 18 26 26 29 24 25 28 23 23 25 26 26 30 33 36 38 33 35 35 37 35 26 26 29 29 38 33 32 30 31 31 28 28 32 31 29
21 18 19 19 14 12 11 13 15 14 20 25 24 20 21 23 26 29 32 32 30 38 35 35 36 33 29 29 28 29 31 30 32 36 35 37 35 32 28 29 30 29 29
14 9 8 11 13 13 11 12 13 15 18 20 23 27 31 33 33 33 30 29 26 27 32 34 35 34 32 29 30 33 36 34 36 39 40 39 36 33 30 31 29 30 28
10 11 7 6 9 14 15 12 16 21 24 23 27 27 19 23 25 24 24 25 29 31 35 39 38 37 35 34 32 33 35 39 42 42 43 41 38 35 31 30 29 28 27
8 8 4 4 5 4 4 7 7 9 10 11 12 15 17 19 21 22 24 26 28 30 31 33 36 36 36 35 35 37 38 40 44 44 44 43 38 35 31 30 29 26 26
9 8 7 5 4 3 4 4 6 7 9 10 12 14 16 18 20 22 24 26 27 29 31 34 36 37 36 34 34 35 38 40 44 47 46 43 40 36 33 31 30 29 27
6 4 3 1 1 2 3 5 6 8 10 12 14 15 17 20 22 24 25 26 26 27 28 31 33 35 37 36 35 36 39 38 47 48 45 42 38 36 36 34 35 31 26
4 3 2 2 3 5 7 10 11 11 12 14 15 16 18 19 20 23 24 23 24 27 28 30 30 32 33 35 37 37 38 40 44 44 49 48 41 39 39 37 37 29 26
4 4 5 5 6 7 8 9 10 12 14 15 17 18 18 19 20 21 22 23 24 24 24 27 31 33 36 35 36 39 39 39 42 43 40 48 45 45 42 40 34 29 28
6 6 6 6 7 8 8 10 11 12 12 12 14 15 16 17 16 20 22 22 23 22 25 27 30 31 34 33 34 37 39 41 40 40 39 37 47 48 46 40 33 30 27
4 4 5 6 7 8 10 11 13 13 14 15 16 16 18 17 18 23 24 27 28 28 27 28 29 31 32 30 31 31 37 37 38 38 35 37 40 37 39 35 31 29 27
5 7 8 9 10 12 13 16 16 14 14 16 17 18 19 22 24 25 27 30 32 31 30 31 31 32 33 32 30 28 31 36 36 34 33 32 34 26 20 24 25 26 26